     2              OBSERVATION DATA    GPS                 RINEX VERSION / TYPE
teqc 2000Feb29 Duncan Agnew 20000605 21:44:12UTC            PGM / RUN BY / DATE
                                                            COMMENT
L2: 1 -> 1; 5 -> 5; 60 -> 9                                 COMMENT
L2: 1 -> 1; 5 -> 5; 60 -> 9                                 COMMENT
L2: 1 -> 1; 5 -> 5; 60 -> 9                                 COMMENT
L2: 1 -> 1; 5 -> 5; 60 -> 9                                 COMMENT
L2: 1 -> 1; 5 -> 5; 60 -> 9                                 COMMENT
Original Marker Name: LAZY                                  COMMENT
Campaign Name: CSRC Post Hector                             COMMENT
4-Character Station Name: LAZY                              COMMENT
6-Character Antenna Code: TRMCMP                            COMMENT
Vertical Measurement Point: BPA                             COMMENT
Vertical Offset to Rinex Ref. Point: 0.0000                 COMMENT
Radial Measurement Point: RRP                               COMMENT
Radial Offset to Rinex Ref. Point: 0.0000                   COMMENT
Antenna Height from Field Measurement: 2.0000 m             COMMENT
Additional Antenna Identification Info.:                    COMMENT
Model 22020.00+GP                                           COMMENT
Original XYZ: -2353805.5111 -4718140.3480 3578601.3954      COMMENT
New XYZ position is based on association with SCEC monument COMMENT
E1F2G7O2+0011. Position of that monument is believed to be  COMMENT
valid to within 1 m horizontally; vertical accuracy         COMMENT
should be no worse than 3-times this value.                 COMMENT
                                                            COMMENT
Revised Rinex header created by UCSD GPS archive for        COMMENT
GSAC on 16-Jun-2000 (2000:168) 03:16:40 GMT                 COMMENT
For assistance contact dagnew@ucsd.edu                      COMMENT
or anderson@python.ucsd.edu                                 COMMENT
                                                            COMMENT
LAZY 1980                                                   MARKER NAME
LAZY                                                        MARKER NUMBER
-Unknown- SAN BERNARDINO COUNTY                             OBSERVER / AGENCY
13381 TRIMBLE 4000 SSI NP 7.29; SP 3.07                     REC # / TYPE / VERS
41620 TR GEOD L1/L2 GP                                      ANT # / TYPE
 -2353802.5205 -4718132.9670  3578586.3352                  APPROX POSITION XYZ
        2.0000        0.0000        0.0000                  ANTENNA: DELTA H/E/N
     1     1     0                                          WAVELENGTH FACT L1/2
     7    C1    L1    L2    P1    P2    S1    S2            # / TYPES OF OBSERV
     0                                                      INTERVAL
  2000     5     1    18    59   15.000000                  TIME OF FIRST OBS
  2000     5     2     0    32   15.000000                  TIME OF LAST OBS
                                                            END OF HEADER
 00  5  1 18 59 15.0000000  0  7G 4G 5G 6G 9G10G24G30
  23205326.8054      46056.53256     35887.66356                  23205334.0864
        18.2504         14.2504
  20511124.1174        960.13358
        31.7504
  24072288.9144     -25102.05756    -19560.27456                  24072299.4064
        13.2504         12.0004
  24189749.8754      44492.69856     34669.28756                  24189767.1764
        13.2504         12.2504
  22234274.2814     -28404.09557    -22132.57156                  22234284.0594
        24.2504         21.5004
  20840108.7664      23588.31858     18380.72657                  20840115.1644
        32.0004         27.7504
  22068246.6414     -28106.59858    -21901.40956                  22068253.2624
        28.7504         23.5004
 00  5  1 18 59 30.0000000  0  7G 4G 5G 6G 9G10G24G30
  23215477.6094      99398.72946     77452.96846                  23215485.1484
        18.5004         14.2504
  20511390.1174       2357.44148
        31.5004
  24066808.8364     -53899.20246    -41999.55646                  24066819.5744
        13.0004         12.5004
  24199554.7974      96015.16346     74816.43445                  24199572.7544
        13.0004         11.7504
  22228086.1954     -60921.79547    -47470.96046                  22228095.8094
        24.5004         21.5004
  20845337.6414      51066.76848     39792.49647                  20845344.2384
        32.0004         27.5004
  22062121.5864     -60294.49348    -46982.86046                  22062128.2194
        29.7504         23.7504
 00  5  1 18 59 45.0000000  0  7G 4G 5G 6G 9G10G24G30
  23225639.5004     152799.01446    119063.55046                  23225647.0164
        18.5004         14.7504
  20511686.6414       3916.71248      1134.90657                  20511692.6644
        31.2504         27.0004
  24061336.6094     -82656.93746    -64408.09146                  24061348.1684
        13.7504         12.2504
  24209368.3754     147582.57046    114998.61346                  24209385.6054
        14.2504         12.5004
  22221923.7114     -93305.46847    -72704.91846                  22221933.6764
        24.0004         21.5004
  20850590.9224      78672.93848     61303.78847                  20850597.3554
        32.0004         27.7504
  22056018.9454     -92364.60948    -71972.53646                  22056025.7194
        29.5004         23.7504
 00  5  1 19  0  0.0000000  0  7G 4G 5G 6G 9G10G24G30
  23235767.4064     206022.02246    160535.99146                  23235774.5004
        18.5004         14.7504
  20511969.9534       5404.78648      2294.43447                  20511975.9534
        31.5004         27.2504
  24055827.2814    -111606.49946    -86966.11245                  24055838.2304
        13.2504         11.7504
  24219145.1644     198964.62546    155036.37045                  24219162.4414
        12.5004         11.7504
  22215742.6724    -125786.37647    -98014.63746                  22215752.3794
        23.7504         21.7504
  20855824.4304     106174.80948     82733.81347                  20855830.8284
        32.0004         27.7504
  22049894.7274    -124548.14748    -97050.59046                  22049901.3014
        30.0004         24.0004
 00  5  1 19  0 15.0000000  0  7G 4G 5G 6G 9G10G24G30
  23245837.5704     258940.17646    201770.87546                  23245844.6644
        18.5004         14.5004
  20512215.5944       6695.03548      3299.81747                  20512221.6174
        32.2504         27.2504
  24050258.0634    -140872.28945   -109770.55246                  24050268.5784
        11.7504         12.0004
  24228864.8674     250035.51546    194831.63346                  24228882.5664
        14.5004         12.2504
  22209520.1254    -158486.29547   -123495.02046                  22209529.9144
        24.2504         21.7504
  20861013.9774     133446.22948    103984.26147                  20861020.5394
        31.7504         27.5004
  22043724.6334    -156969.75048   -122314.15546                  22043731.5044
        30.0004         24.2504
 00  5  1 19  0 30.0000000  0  7G 4G 5G 6G 9G10G24G30
  23255847.5474     311542.70746    242759.82346                  23255855.2974
        18.0004         14.7504
  20512421.2814       7776.73248      4142.68747                  20512427.2584
        30.7504         27.2504
  24044626.6564    -170466.30646   -132830.76046                  24044638.2384
        13.5004         12.5004
  24238520.6724     300779.53746    234372.23846                  24238537.4224
        13.0004         12.5004
  22203253.6024    -191416.71147   -149155.00846                  22203263.1684
        24.0004         21.7504
  20866157.4844     160475.90148    125046.33547                  20866164.0354
        32.0004         27.7504
  22037507.7974    -189641.94248   -147772.98746                  22037514.6414
        29.7504         24.0004
 00  5  1 19  0 45.0000000  0  7G 4G 5G 6G 9G10G24G30
  23265801.3364     363851.16346    283519.61746                  23265808.5944
        17.7504         14.5004
  20512591.0704       8668.95748      4837.92147                  20512597.1174
        31.5004         27.2504
  24038936.4534    -200369.01146   -156131.47546                  24038948.1884
        12.7504         12.7504
  24248117.7584     351211.16546    273669.37845                  24248134.1214
        13.5004         11.7504
  22196946.6334    -224560.70647   -174981.42146                  22196956.2814
        24.0004         21.5004
  20871258.2504     187280.73948    145933.21847                  20871264.6724
        32.0004         27.5004
  22031245.9774    -222546.43448   -173412.82746                  22031252.9774
        30.0004         24.2504
 00  5  1 19  1  0.0000000  0  7G 4G 5G 6G 9G10G24G30
  23275710.6804     415924.17746    324095.96346                  23275717.9844
        17.7504         15.0004
  20512736.3674       9431.07148      5431.76747                  20512742.5084
        31.5004         27.5004
  24033198.8834    -230519.77546   -179625.50646                  24033209.3404
        14.0004         12.2504
  24257665.5234     401388.51546    312768.41746                  24257683.0824
        13.5004         12.0004
  22190609.3984    -257861.64047   -200930.12446                  22190619.0594
        24.2504         21.7504
  20876327.8914     213921.34348    166692.12347                  20876334.3134
        31.7504         27.7504
  22024951.5084    -255624.76448   -199188.12446                  22024958.7424
        30.0004         24.2504
 00  5  1 19  1 15.0000000  0  7G 4G 5G 6G 9G10G24G30
  23285586.5084     467824.13646    364537.43746                  23285593.6024
        18.0004         14.5004
  20512869.6884      10132.17048      5978.06847                  20512875.8984
        32.0004         27.5004
  24027426.5164    -260852.47046   -203261.30746                  24027437.2424
        14.0004         12.5004
  24267179.2734     451376.97146    351720.23445                  24267197.1484
        13.0004         11.7504
  22184254.4384    -291255.55947   -226951.28646                  22184263.9104
        24.2504         21.7504
  20881378.6644     240463.26648    187374.13447                  20881385.0044
        31.7504         27.7504
  22018635.7194    -288813.61648   -225049.54246                  22018642.7074
        30.0004         24.2504
 00  5  1 19  1 30.0000000  0  7G 4G 5G 6G 9G10G24G30
  23295437.5314     519589.89646    404874.35446                  23295444.8594
        17.7504         14.7504
  20512999.8834      10816.01848      6510.92847                  20513006.1294
        30.5004         27.7504
  24021627.4774    -291327.60946   -227008.09346                  24021638.9414
        13.0004         13.0004
  24276663.3674     501215.71046    390555.38846                  24276681.3594
        13.5004         12.0004
  22177889.4304    -324704.43047   -253015.26446                  22177898.6804
        24.5004         22.2504
  20886417.8204     266944.06748    208008.51947                  20886424.1254
        31.7504         27.7504
  22012306.8364    -322072.16148   -250965.27246                  22012313.8954
        30.0004         24.2504
 00  5  1 19  1 45.0000000  0  7G 4G 5G 6G 9G10G24G30
  23305265.9304     571238.93246    445120.31546                  23305273.2584
        18.0004         14.5004
  20513129.5704      11498.30348      7042.56947                  20513135.7234
        28.0004         27.7504
  24015804.7584    -321926.96546   -250851.67446                  24015815.8834
        14.5004         13.5004
  24286122.6644     550923.27346    429288.33146                  24286139.7664
        13.5004         12.2504
  22171517.1174    -358191.15547   -279108.73346                  22171526.3204
        24.7504         22.0004
  20891448.5004     293380.98448    228608.70247                  20891454.9574
        31.7504         27.7504
  22005968.5634    -355380.55448   -276919.83846                  22005975.6094
        29.7504         24.5004
 00  5  1 19  2  0.0000000  0  7G 4G 5G 6G 9G10G24G30
  23315071.8914     622768.40246    485273.11046                  23315079.1134
        17.7504         14.5004
  20513258.5234      12175.91947      7570.57147                  20513264.5824
        27.5004         27.7504
  24009956.3984    -352658.36446   -274798.14146                  24009968.1334
        13.2504         13.0004
  24295555.3364     600493.73346    467914.45646                  24295572.8834
        13.5004         12.2504
  22165136.7814    -391720.74947   -305235.61946                  22165146.0554
        24.7504         22.2504
  20896470.2194     319770.72948    249172.13547                  20896476.5234
        32.0004         27.5004
  21999620.1024    -388741.23148   -302915.15046                  21999627.0664
        29.7504         24.5004
 00  5  1 19  2 15.0000000  0  7G 4G 5G 6G 9G10G24G30
  23324850.2734     674154.32046    525314.04146                  23324857.4494
        16.7504         14.2504
  20513382.4454      12826.33048      8077.37547                  20513388.6334
        28.7504         27.5004
  24004077.7274    -383549.92746   -298869.38846                  24004088.6174
        13.2504         12.5004
  24304956.9844     649898.45846    506411.43945                  24304974.6374
        12.7504         11.2504
  22158743.1174    -425319.22747   -331416.17246                  22158752.5664
        25.2504         22.0004
  20901478.1024     346086.45448    269677.88447                  20901484.3364
        31.5004         27.5004
  21993257.5004    -422178.39948   -328970.06046                  21993264.3834
        30.0004         24.2504
 00  5  1 19  2 30.0000000  0  7G 4G 5G 6G 9G10G24G30
  23334595.7734     725369.38946    565221.84446                  23334603.0204
        16.5004         13.7504
  20513496.1644      13424.01147      8543.08547                  20513502.2814
        26.2504         27.7504
  23998163.3284    -414632.53346   -323089.55446                  23998174.7704
        14.7504         13.2504
  24314322.0704     699108.02846    544756.33645                  24314340.2854
        12.7504         11.0004
  22152330.7274    -459016.59347   -357673.78446                  22152339.9304
        25.2504         22.0004
  20906465.9694     372297.79548    290102.30147                  20906472.3554
        31.7504         27.5004
  21986874.8364    -455718.05148   -355104.83846                  21986881.7074
        30.0004         24.2504
 00  5  1 19  2 45.0000000  0  7G 4G 5G 6G 9G10G24G30
  23344305.5634     776395.12246    604982.11546                  23344312.9024
        17.5004         14.5004
  20513596.5314      13951.59048      8954.17747                  20513602.5554
        28.5004         27.5004
  23992208.1334    -445924.18446   -347472.56246                  23992219.3984
        13.5004         13.5004
  24323646.2664     748107.00346    582937.11045                  24323663.3094
        12.5004         11.7504
  22145896.0314    -492829.37147   -384021.32346                  22145905.4694
        25.0004         22.5004
  20911430.1094     398384.49648    310429.58947                  20911436.4614
        31.7504         27.5004
  21980470.2664    -489375.20948   -381331.17246                  21980477.4304
        30.0004         24.7504
 00  5  1 19  3  0.0000000  0  7G 4G 5G 6G 9G10G24G30
  23353977.6414     827219.49746    644585.49046                  23353985.4384
        16.7504         14.2504
  20513682.2584      14401.01648      9304.36647                  20513688.3874
        28.2504         27.5004
  23986212.7814    -477432.29946   -372024.24346                  23986223.9184
        14.2504         12.5004
  24332928.7894     796889.30146    620949.11245                  24332946.4534
        12.7504         10.5004
  22139438.5864    -526765.49647   -410464.97946                  22139447.6844
        25.0004         22.7504
  20916368.8444     424337.57848    330652.76147                  20916375.3714
        32.0004         27.5004
  21974041.3834    -523156.96148   -407654.59346                  21974048.3594
        30.0004         24.5004
 00  5  1 19  3 15.0000000  0  7G 4G 5G 6G 9G10G24G30
  23363611.3594     877843.19146    684032.48846                  23363619.0634
        17.0004         14.0004
  20513753.0084      14773.90048      9594.91347                  20513759.0664
        30.0004         27.5004
  23980176.0314    -509155.00446   -396743.19746                  23980186.4884
        14.0004         12.7504
  24342171.8364     845459.76646    658796.01746                  24342189.2194
        13.7504         12.5004
  22132958.0234    -560820.12547   -437000.97846                  22132967.1094
        24.7504         22.5004
  20921282.0314     450157.08648    350771.85247                  20921288.3364
        32.0004         27.5004
  21967589.8754    -557061.23148   -434073.48446                  21967596.8874
        30.0004         24.5004
 00  5  1 19  3 30.0000000  0  7G 4G 5G 6G 9G10G24G30
  23373208.2344     928275.90646    723330.65346                  23373216.0084
        17.2504         14.0004
  20513810.8674      15078.09348      9831.93847                  20513816.8554
        31.0004         27.5004
  23974099.9694    -541084.47246   -421623.20846                  23974111.5864
        14.2504         13.2504
  24351375.1564     893826.39345    696484.06545                  24351394.3444
        10.5004         11.5004
  22126456.7504    -594983.61547   -463621.80346                  22126465.7194
        24.7504         22.5004
  20926170.9224     475847.75748    370790.54447                  20926177.3444
        32.0004         27.5004
  21961116.9224    -591076.32548   -460578.73646                  21961123.6254
        30.0004         24.7504
 00  5  1 19  3 45.0000000  0  7G 4G 5G 6G 9G10G24G30
  23382771.1484     978530.21146    762489.80546                  23382778.5124
        16.2504         14.2504
  20513856.7194      15320.38148     10020.72047                  20513862.7544
        29.7504         27.5004
  23967986.2504    -573209.12946   -446655.32546                  23967997.7274
        12.7504         12.7504
  24360543.6024     942002.32446    734023.49945                  24360560.9494
        12.0004         11.2504
  22119936.8134    -629245.06947   -490318.96546                  22119945.9344
        25.2504         22.5004
  20931037.0164     501419.08148    390716.24547                  20931043.6374
        31.5004         27.5004
  21954625.5474    -625189.11848   -487160.10746                  21954632.4654
        30.5004         24.5004
 00  5  1 19  4  0.0000000  0  7G 4G 5G 6G 9G10G24G30
  23392302.5234    1028618.41846    801519.52846                  23392309.7464
        17.5004         14.2504
  20513892.9064      15509.74648     10168.25947                  20513899.0944
        30.7504         27.5004
  23961838.6564    -605516.87646   -471830.12546                  23961848.9734
        14.5004         13.0004
  24369677.2034     989999.16346    771423.42345                  24369695.0084
        12.2504         10.5004
  22113400.6484    -663593.05747   -517083.55846                  22113409.8164
        25.0004         22.5004
  20935882.4774     526882.60548    410557.94247                  20935889.1564
        31.7504         27.5004
  21948117.0004    -659390.59448   -513810.59046                  21948123.9304
        30.2504         24.7504
 00  5  1 19  4 15.0000000  0  7G 4G 5G 6G 9G10G24G30
  23401804.8524    1078552.06546    840428.83246                  23401812.2974
        17.0004         13.7504
  20513921.1564      15657.57248     10283.44047                  20513927.2974
        28.0004         27.5004
  23955657.5634    -637994.69146   -497137.43846                  23955667.9844
        13.2504         12.7504
  24378778.6954    1037827.05046    808691.72345                  24378796.9454
        12.0004         11.7504
  22106850.6804    -698013.66247   -543904.72746                  22106859.9304
        25.2504         22.2504
  20940709.4694     552248.84048    430323.83247                  20940715.8794
        31.7504         27.5004
  21941594.2584    -693669.60348   -540521.48946                  21941600.9614
        30.2504         24.5004
 00  5  1 19  4 30.0000000  0  7G 4G 5G 6G 9G10G24G30
  23411276.4304    1128325.54346    879213.32546                  23411284.5434
        16.2504         13.7504
  20513939.5864      15755.29547     10359.57547                  20513945.5744
        25.2504         27.5004
  23949445.0784    -670643.26346   -522577.81846                  23949456.5314
        13.0004         13.0004
  24387847.4384    1085483.43246    845826.33046                  24387865.8524
        12.0004         12.0004
  22100285.8674    -732510.15847   -570785.04446                  22100295.1994
        25.2504         22.7504
  20945517.0234     577512.52048    450009.81047                  20945523.3634
        31.7504         27.2504
  21935054.9224    -728033.23648   -567298.32246                  21935061.7544
        31.0004         25.0004
 00  5  1 19  4 45.0000000  0  7G 4G 5G 6G 9G10G24G30
  23420719.8204    1177954.34846    917885.06246                  23420727.6294
        16.5004         13.7504
  20513951.0474      15815.50347     10406.47847                  20513957.1174
        26.5004         27.7504
  23943203.2664    -703444.52346   -548137.15046                  23943214.0634
        14.2504         12.5004
  24396887.6954    1132986.80746    882841.69046                  24396905.0314
        14.5004         12.0004
  22093710.3444    -767065.69047   -597711.35646                  22093719.3484
        25.5004         23.0004
  20950308.7344     602693.81248    469631.58847                  20950315.0274
        32.0004         27.5004
  21928502.8594    -762466.16348   -594129.15546                  21928509.5394
        31.7504         25.2504
 00  5  1 19  5  0.0000000  0  7G 4G 5G 6G 9G10G24G30
  23430139.7814    1227453.26346    956455.59946                  23430147.9774
        16.5004         13.7504
  20513957.7894      15849.50247     10432.95447                  20513964.1174
        25.5004         27.7504
  23936934.8984    -736383.06146   -573803.50046                  23936945.8714
        13.2504         12.5004
  24405899.5864    1180349.07645    919747.17545                  24405917.2274
        10.7504         10.2504
  22087125.5474    -801668.83247   -624674.76846                  22087134.9964
        25.5004         22.7504
  20955087.6724     627806.36248    489199.80347                  20955093.8834
        32.0004         27.5004
  21921938.8834    -796959.41348   -621006.99346                  21921945.4694
        31.5004         24.7504
 00  5  1 19  5 15.0000000  0  7G 4G 5G 6G 9G10G24G30
  23439536.1954    1276831.63246    994932.20546                  23439544.0274
        16.0004         13.0004
  20513960.3134      15862.21848     10442.84947                  20513966.5354
        28.7504         27.7504
  23930641.6414    -769455.28646   -599573.96446                  23930652.1334
        13.5004         12.7504
  24414886.3444    1227573.20245    956544.95045                  24414905.2854
        10.5004         10.5004
  22080532.6094    -836314.89247   -651671.62846                  22080541.6604
        25.5004         23.0004
  20959854.2814     652855.50148    508718.60747                  20959860.4694
        31.7504         27.5004
  21915364.0004    -831509.50748   -647929.12746                  21915370.6804
        31.5004         25.0004
 00  5  1 19  5 30.0000000  0  7G 4G 5G 6G 9G10G24G30
  23448911.0634    1326095.96046   1033319.95346                  23448919.1994
        16.2504         13.5004
  20513959.8054      15859.53948     10440.74647                  20513966.0044
        28.5004         27.7504
  23924323.4304    -802660.11246   -625447.79746                  23924333.9454
        13.7504         12.5004
  24423848.9454    1274665.40445    993239.91945                  24423867.7234
        11.7504         11.2504
  22073932.3054    -870999.23347   -678698.30846                  22073941.2624
        25.5004         23.2504
  20964609.5864     677844.74848    528190.73847                  20964615.8794
        32.0004         27.5004
  21908779.3444    -866111.69448   -674891.85446                  21908785.8954
        32.0004         25.2504
 00  5  1 19  5 45.0000000  0  7G 4G 5G 6G 9G10G24G30
  23458264.2424    1375247.01246   1071619.42946                  23458271.7934
        16.7504         13.5004
  20513957.2194      15846.13748     10430.28947                  20513963.5474
        29.0004         27.7504
  23917979.4064    -835997.40846   -651424.84446                  23917990.7774
        13.7504         13.0004
  24432784.6884    1321628.75645   1029834.54646                  24432803.1604
        11.7504         12.0004
  22067325.1884    -905719.83847   -705753.25646                  22067334.2154
        26.0004         23.2504
  20969354.5314     702778.66348    547619.75447                  20969360.8484
        32.0004         27.2504
  21902185.4694    -900763.72148   -701893.41346                  21902192.0434
        31.5004         25.2504
 00  5  1 19  6  0.0000000  0  7G 4G 5G 6G 9G10G24G30
  23467596.1334    1424284.24746   1109830.21246                  23467603.9184
        16.7504         13.2504
  20513953.1094      15825.45148     10414.15547                  20513959.4024
        31.5004         27.7504
  23911609.8594    -869467.05146   -677505.02346                  23911620.9144
        13.2504         13.0004
  24441697.2894    1368464.12845   1066329.37145                  24441715.5864
        11.7504         11.2504
  22060711.9774    -940472.75147   -732833.37546                  22060720.9804
        26.0004         23.5004
  20974089.0634     727659.64348    567007.52547                  20974095.5084
        31.7504         27.5004
  21895581.4534    -935467.67648   -728935.43447                  21895587.9454
        32.0004         25.7504
 00  5  1 19  6 15.0000000  0  7G 4G 5G 6G 9G10G24G30
  23476906.9924    1473214.54946   1147957.67146                  23476914.4144
        17.7504         13.7504
  20513949.8914      15809.47648     10401.69147                  20513956.0554
        31.5004         27.7504
  23905216.9384    -903063.28046   -703683.81146                  23905227.1484
        13.5004         13.0004
  24450586.6254    1415174.12946   1102726.58045                  24450603.8444
        12.2504         11.0004
  22054094.1254    -975247.86247   -759930.79546                  22054103.4924
        26.0004         23.7504
  20978814.8754     752493.53948    586358.60347                  20978821.1914
        31.5004         27.5004
  21888969.0314    -970216.12348   -756012.13447                  21888975.4774
        32.0004         26.0004
 00  5  1 19  6 30.0000000  0  7G 4G 5G 6G 9G10G24G30
  23486201.1024    1522054.49446   1186014.73846                  23486208.9344
        17.5004         13.5004
  20513951.4534      15817.97848     10408.29947                  20513957.6414
        31.7504         27.7504
  23898802.7974    -936771.04546   -729949.55146                  23898813.4654
        14.2504         13.0004
  24459455.5234    1461774.70746   1139038.51445                  24459473.8444
        12.0004         11.2504
  22047475.5314   -1010028.99847
        26.2504
  20983534.5634     777295.32348    605684.65947                  20983540.8324
        32.0004         27.5004
  21882351.3914   -1004991.26448   -783109.64746                  21882356.4884
        32.0004         20.7504
 00  5  1 19  6 45.0000000  0  7G 4G 5G 6G 9G10G24G30
  23495478.0394    1570805.95346   1224002.86346                  23495485.8714
        16.7504         13.7504
  20513958.9614      15855.08948     10437.20447                  20513965.3364
        30.2504         27.7504
  23892366.5944    -970590.70546   -756302.48846                  23892377.6374
        12.5004         12.2504
  24468301.9304    1508268.40845   1175267.12745                  24468320.5904
        11.7504         11.7504
  22040855.6564   -1044817.45847
        26.2504
  20988248.7114     802068.58348    624988.49347                  20988255.0864
        32.0004         27.5004
  21875729.5864   -1039789.91848   -810225.45646                  21875735.8794
        32.0004         24.2504
 00  5  1 19  7  0.0000000  0  7G 4G 5G 6G 9G10G24G30
  23504733.8134    1619444.84446   1261903.23046                  23504741.6214
        17.0004         13.0004
  20513967.4454      15900.10448     10472.26847                  20513973.8914
        30.5004         27.7504
  23885904.6884   -1004546.90046   -782761.77746                  23885916.2584
        13.0004         12.5004
  24477123.4774    1554626.51745   1211390.09245                  24477142.5824
        10.0004         10.5004
  22034229.6254   -1079637.75647
        26.2504
  20992952.4384     826787.50548    644249.98547                  20992958.8834
        32.0004         27.2504
  21869099.3054   -1074632.90148   -837375.79546                  21869105.7504
        32.2504         24.7504
 00  5  1 19  7 15.0000000  0  7G 4G 5G 6G 9G10G24G30
  23513972.9454    1667997.96346   1299736.80346                  23513981.2344
        16.2504         13.5004
  20513983.0314      15981.18248     10535.42647                  20513989.5824
        31.2504         27.5004
  23879421.9774   -1038614.75246   -809308.07946                  23879432.6804
        13.5004         13.0004
  24485925.0704    1600874.70945   1247427.40445                  24485943.3554
        11.7504         11.7504
  22027603.0944   -1114460.09147    -21705.58456                  22027612.2974
        26.2504         23.0004
  20997650.8204     851476.15448    663487.88647                  20997657.1254
        31.2504         27.5004
  21862465.6484   -1109491.33348   -864538.19646                  21862472.2934
        32.0004         25.2504
 00  5  1 19  7 30.0000000  0  7G 4G 5G 6G 9G10G24G30
  23523195.7584    1716462.64746   1337501.44946                  23523204.0824
        15.7504         13.0004
  20514005.3914      16100.12548     10628.09447                  20514011.6954
        29.0004         27.7504
  23872917.4304   -1072794.99646   -835941.97446                  23872928.1914
        13.2504         13.0004
  24494705.1174    1647015.39246   1283380.95145                  24494723.6134
        12.0004         11.2504
  22020975.9534   -1149282.82747    -48840.11846                  22020985.1564
        25.7504         23.5004
  21002343.5634     876137.20948    682704.28847                  21002349.9614
        31.7504         27.5004
  21855830.3204   -1144361.51648   -891709.74947                  21855836.9884
        31.2504         25.7504
 00  5  1 19  7 45.0000000  0  7G 4G 5G 6G 9G10G24G30
  23532401.9454    1764841.13246   1375198.91346                  23532410.6094
        15.7504         13.2504
  20514036.3284      16262.87548     10754.89947                  20514042.6214
        30.5004         27.5004
  23866393.9774   -1107077.44946   -862655.49746                  23866405.2544
        13.2504         12.7504
  24503466.0084    1693052.69145   1319253.96145                  24503484.5514
         9.7504         10.5004
  22014350.6564   -1184099.58647    -75970.00246                  22014359.8484
        26.2504         23.0004
  21007032.5004     900777.74048    701904.69947                  21007038.7934
        32.0004         27.5004
  21849193.7274   -1179236.18848   -918884.79646                  21849200.3364
        32.0004         25.5004
 00  5  1 19  8  0.0000000  0  7G 4G 5G 6G 9G10G24G30
  23541593.0704    1813140.11746   1412834.46346                  23541601.4184
        15.2504         12.7504
  20514076.5704      16473.31748     10918.86447                  20514082.8054
        28.7504         27.5004
  23859852.8444   -1141450.66846   -889439.76946                  23859863.3484
        13.5004         12.7504
  24512208.7814    1738988.63546   1355047.94745                  24512225.5784
        13.2504         10.7504
  22007727.5944   -1218904.22447   -103090.43246                  22007736.4454
        25.7504         23.7504
  21011718.8134     925405.57648    721095.21247                  21011725.3404
        31.5004         27.5004
  21842557.8834   -1214108.46748   -946057.98946                  21842564.4344
        31.7504         25.5004
 00  5  1 19  8 15.0000000  0  7G 4G 5G 6G 9G10G24G30
  23550768.2034    1861358.90246   1450407.48746                  23550776.7854
        15.5004         12.7504
  20514124.5474      16725.84348     11115.62247                  20514130.8984
        29.0004         27.5004
  23853294.3204   -1175915.91246   -916295.75946                  23853305.1294
        12.2504         12.7504
  24520929.1564    1784817.08146   1390758.25245                  24520945.8834
        12.5004         11.5004
  22001105.8204   -1253702.40947   -130205.83046                  22001114.9184
        26.0004         23.2504
  21016402.3754     950017.21148    740273.10447                  21016408.9734
        32.0004         27.5004
  21835922.0394   -1248978.56248   -973229.47246                  21835928.6724
        32.0004         25.5004
 00  5  1 19  8 30.0000000  0  7G 4G 5G 6G 9G10G24G30
  23559930.1884    1909503.84546   1487922.97046                  23559937.9964
        15.2504         13.2504
  20514181.0704      17023.09247     11347.22747                  20514187.3404
        26.0004         27.7504
  23846719.4144   -1210465.24246   -943217.22346                  23846730.9734
        13.2504         12.7504
  24529630.5084    1830545.60545   1426390.64145                  24529648.4414
        10.5004         10.0004
  21994485.4774   -1288491.32847   -157314.02146                  21994494.5274
        26.5004         23.7504
  21021083.9384     974619.12648    759443.41847                  21021090.3014
        32.0004         27.2504
  21829288.3914   -1283838.32748  -1000392.90247                  21829294.9064
        31.7504         25.7504
 00  5  1 19  8 45.0000000  0  7G 4G 5G 6G 9G10G24G30
  23569078.6564    1957578.61346   1525383.79046                  23569086.0204
        16.5004         13.0004
  20514246.4694      17366.49547     11614.80247                  20514252.5744
        26.0004         27.7504
  23840130.2274   -1245092.58546   -970199.49746                  23840140.6954
        13.2504         13.5004
  24538315.6254    1876181.47445   1461950.79545                  24538334.5904
        11.7504         10.5004
  21987867.9224   -1323266.72947   -184411.66946                  21987876.9384
        26.2504         24.0004
  21025765.3284     999220.16048    778613.04547                  21025771.7974
        31.7504         27.5004
  21822658.1094   -1318681.60148  -1027543.49146                  21822664.4734
        31.7504         25.2504
 00  5  1 19  9  0.0000000  0  7G 4G 5G 6G 9G10G24G30
  23578214.0944    2005586.12846   1562792.20346                  23578221.3164
        15.7504         13.0004
  20514321.3134      17758.77047     11920.45547                  20514327.4884
        27.2504         27.7504
  23833527.3914   -1279791.73546
        13.2504
  24546982.3204    1921729.07745   1497442.23245                  24546999.5164
        10.7504          9.7504
  21981254.9774   -1358017.84047   -211490.40046                  21981264.1684
        26.7504         23.5004
  21030447.7894    1023825.09348    797785.70947                  21030454.3874
        31.7504         27.5004
  21816032.0004   -1353501.88048  -1054676.15746                  21816038.4804
        32.0004         25.2504
 00  5  1 19  9 15.0000000  0  7G 4G 5G 6G 9G10G24G30
  23587339.0234    2053537.33946   1600156.72946                  23587346.7154
        16.5004         13.0004
  20514406.7584      18208.81647     12271.12447                  20514412.9224
        26.5004         27.5004
  23826912.8134   -1314552.04246
        14.2504
  24555635.0634    1967198.23545   1532872.52545                  24555653.4774
        11.0004          9.5004
  21974649.2194   -1392731.76147   -238540.13746                  21974658.3524
        26.7504         23.5004
  21035132.6094    1048443.48548    816968.86947                  21035139.0784
        31.0004         27.5004
  21809412.0634   -1388289.85748  -1081783.66147                  21809418.7894
        31.7504         26.5004
 00  5  1 19  9 30.0000000  0  7G 4G 5G 6G 9G10G24G30
  23596451.5084    2101423.05946   1637470.25446                  23596458.6134
        16.2504         12.7504
  20514501.5634      18707.24647     12659.49947                  20514507.7854
        26.5004         27.7504
  23820284.7584   -1349380.59846
        13.7504
  24564272.6174    2012585.32245   1568238.84745                  24564291.5234
        11.0004         11.0004
  21968048.9304   -1427415.13747   -265566.09146                  21968058.2274
        26.0004         23.5004
  21039818.4774    1073068.61348    836157.27447                  21039824.9454
        31.2504         27.7504
  21802796.4304   -1423054.77748  -1108873.18546                  21802802.8524
        31.7504         25.5004
 00  5  1 19  9 45.0000000  0  7G 4G 5G 6G 9G10G24G30
  23605549.7974    2149234.76746   1674726.08846                  23605558.1684
        15.2504         12.7504
  20514603.7344      19243.48347     13077.32847                  20514609.9344
        27.7504         27.7504
  23813642.5394   -1384285.32746    -16325.09956                  23813653.2424
        14.0004         13.2504
  24572891.7734    2057879.48045   1603532.75745                  24572910.6564
        11.7504         11.0004
  21961452.4454   -1462079.47447   -292577.20346                  21961461.5904
        26.5004         23.7504
  21044503.6414    1097689.32048    855342.23147                  21044510.1334
        32.0004         27.5004
  21796183.3524   -1457806.92248  -1135952.75947                  21796189.7274
        31.7504         25.7504
 00  5  1 19 10  0.0000000  0  7G 4G 5G 6G 9G10G24G30
  23614636.4844    2196984.64046   1711933.72046                  23614644.3164
        15.7504         12.2504
  20514714.7894      19825.95847     13531.18447                  20514720.9884
        26.5004         27.7504
  23806987.8834   -1419256.50646    -43575.33246                  23806999.2194
        13.7504         13.0004
  24581495.2664    2103088.23745   1638760.11345                  24581514.3244
        11.2504         10.2504
  21954862.1804   -1496712.58047   -319563.99246                  21954871.2894
        26.5004         23.7504
  21049189.3914    1122313.14548    874529.61447                  21049195.8714
        31.7504         27.7504
  21789574.4454   -1492537.88448  -1163015.83146                  21789580.9964
        32.0004         25.5004
 00  5  1 19 10 15.0000000  0  7G 4G 5G 6G 9G10G24G30
  23623712.0784    2244677.24946   1749096.74146                  23623720.3094
        15.5004         12.5004
  20514835.2034      20459.44347     14024.78047                  20514841.4844
        25.0004         28.0004
  23800320.5634   -1454293.86646    -70877.10746                  23800332.4614
        13.5004         13.2504
  24590082.4144    2148217.37245   1673925.43545                  24590100.8984
        10.0004          9.5004
  21948278.4384   -1531309.69747   -346522.73946                  21948287.4064
        26.7504         24.2504
  21053876.6414    1146944.96748    893723.21647                  21053883.3094
        32.0004         27.5004
  21782970.0164   -1527244.13448  -1190059.66447                  21782976.5554
        32.0004         25.7504
 00  5  1 19 10 30.0000000  0  7G 4G 5G 6G 9G10G24G30
  23632776.3204    2292310.85046   1786213.79346                  23632783.7894
        15.7504         12.2504
  20514965.6414      21144.09247     14558.26847                  20514971.8754
        25.0004         27.7504
  23793639.2974   -1489399.89946    -98232.38046                  23793650.2464
        14.0004         12.7504
  24598657.2194    2193270.30746   1709031.40045                  24598675.8794
        12.5004          9.5004
  21941702.3754   -1565867.12047   -373450.53446                  21941711.0744
        27.0004         24.2504
  21058565.1724    1171584.41848    912922.78947                  21058571.4774
        31.7504         27.2504
  21776370.0084   -1561927.01148  -1217085.25547                  21776376.4884
        31.7504         26.0004
 00  5  1 19 10 45.0000000  0  7G 4G 5G 6G 9G10G24G30
  23641830.7814    2339893.82246   1823291.37846                  23641838.5554
        15.0004         12.5004
  20515108.1024      21893.01347     15141.82247                  20515114.2894
        23.0004         27.7504
  23786948.2894   -1524564.58546   -125633.39246                  23786958.8404
        14.2504         13.0004
  24607218.0704    2238258.98146   1744087.31745                  24607235.3954
        12.5004         10.2504
  21935136.9064   -1600368.02647   -400334.30946                  21935145.8054
        26.7504         24.5004
  21063257.7974    1196242.49348    932136.85747                  21063264.3014
        31.7504         27.2504
  21769776.0864   -1596578.40248  -1244086.32547                  21769782.5904
        32.0004         26.0004
 00  5  1 19 11  0.0000000  0  7G 4G 5G 6G 9G10G24G30
  23650875.3444    2387421.79946   1860326.13846                  23650883.4574
        14.7504         12.5004
  20515262.2974      22704.88647     15774.44547                  20515268.6254
        22.5004         28.0004
  23780244.5704   -1559792.08146   -153083.31046                  23780255.2504
        14.2504         13.2504
  24615765.5784    2283176.58045   1779087.82245                  24615784.3554
        10.2504         10.2504
  21928581.9694   -1634813.63547   -427174.98146                  21928590.7154
        26.7504         24.2504
  21067952.3204    1220912.82448    951360.49647                  21067958.8014
        31.7504         27.2504
  21763187.2034   -1631203.14048  -1271066.60747                  21763193.7074
        31.5004         26.2504
 00  5  1 19 11 15.0000000  0  7G 4G 5G 6G 9G10G24G30
  23659910.3754    2434901.06446   1897322.92246                  23659918.2304
        15.0004         12.0004
  20515430.7424      23588.47147     16462.94147                  20515437.0124
        21.2504         28.0004
  23773529.9534   -1595075.92346   -180577.13446                  23773541.4774
        14.0004         13.2504
  24624300.5704    2328027.61945   1814036.42445                  24624320.3094
        10.2504          9.2504
  21922038.7344   -1669199.50047   -453969.09546                  21922047.4574
        26.7504         24.2504
  21072649.6804    1245597.24448    970595.10847                  21072656.1954
        32.0004         27.5004
  21756604.1564   -1665796.81648  -1298022.69947                  21756610.8954
        32.0004         26.0004
 00  5  1 19 11 30.0000000  0  7G 4G 5G 6G 9G10G24G30
  23668935.3054    2482326.92046   1934278.08346                  23668943.9924
        15.7504         12.5004
  20515611.2584      24537.51646     17202.43647                  20515617.3524
        19.5004         28.0004
  23766804.0474   -1630421.97046   -208119.46346                  23766814.1764
        14.7504         13.0004
  24632822.0164    2372806.12145   1848928.53145                  24632840.4654
        11.5004          9.7504
  21915504.5314   -1703536.29047   -480724.98846                  21915513.4304
        26.2504         24.5004
  21077348.3284    1270289.88748    989836.11247                  21077354.9264
        32.0004         27.2504
  21750025.7194   -1700366.87548  -1324960.39547                  21750032.2704
        31.7504         26.5004
 00  5  1 19 11 45.0000000  0  7G 4G 5G 6G 9G10G24G30
  23677951.3984    2529708.01246   1971198.38346                  23677959.6294
        15.0004         12.7504
  20515806.4844      25562.80647     18001.34747                  20515812.7424
        20.2504         28.0004
  23760067.8364   -1665820.96446   -235703.02046                  23760077.5784
        13.7504         13.0004
  24641331.0864    2417520.61745   1883770.78445                  24641349.5944
        10.0004          9.5004
  21908981.0164   -1737816.18847   -507436.54446                  21908989.9614
        26.2504         24.0004
  21082050.3204    1294999.03048   1009089.98147                  21082056.8594
        31.2504         27.2504
  21743453.7894   -1734902.95648  -1351871.60847                  21743460.2464
        30.7504         26.2504
 00  5  1 19 12  0.0000000  0  7G 4G 5G 6G 9G10G24G30
  23686959.1804    2577040.16746   2008080.52146                  23686967.7274
        15.7504         13.0004
  20516015.9844      26664.06247     18859.45147                  20516022.2194
        21.2504         28.0004
  23753320.3754   -1701277.27446   -263331.23546                  23753331.0314
        14.2504         13.5004
  24649825.9924    2462163.08845   1918556.91845                  24649845.9414
        10.2504         10.0004
  21902468.1804   -1772043.00547   -534106.73846                  21902476.9494
        26.7504         24.2504
  21086754.7344    1319720.85348   1028353.72747                  21086761.2624
        31.7504         27.2504
  21736887.6644   -1769407.59048  -1378758.31947                  21736894.1334
        31.5004         26.5004
 00  5  1 19 12 15.0000000  0  7G 4G 5G 6G 9G10G24G30
  23695956.1484    2624322.15946   2044923.58246                  23695963.8634
        16.0004         12.5004
  20516240.7034      27844.42847     19779.19647                  20516246.8674
        22.7504         28.0004
  23746563.1254   -1736788.03446   -291001.91546                  23746572.9734
        14.0004         13.0004
  24658308.6884    2506735.53845   1953288.40845                  24658327.4304
        11.7504         10.0004
  21895965.6094   -1806213.58047   -560733.11846                  21895974.5554
        26.7504         24.5004
  21091462.4694    1344460.02448   1047630.98147                  21091469.0314
        32.0004         27.2504
  21730328.4774   -1803876.90448  -1405617.52047                  21730334.9924
        29.7504         26.7504
 00  5  1 19 12 30.0000000  0  7G 4G 5G 6G 9G10G24G30
  23704943.3754    2671549.17446   2081723.80446                  23704950.6214
        16.0004         12.7504
  20516479.5474      29099.98447     20757.52447                  20516485.6994
        20.0004         28.2504
  23739794.8754   -1772355.47046   -318716.73246                  23739804.8634
        14.2504         13.0004
  24666776.7274    2551235.47746   1987963.49245                  24666795.0354
        12.2504         10.2504
  21889472.9774   -1840332.19747   -587319.01046                  21889481.6764
        27.0004         24.5004
  21096172.5234    1369212.28748   1066918.43747                  21096178.8984
        31.7504         27.2504
  21723775.8364   -1838312.03348  -1432450.08347                  21723782.1644
        29.0004         26.5004
 00  5  1 19 12 45.0000000  0  7G 4G 5G 6G 9G10G24G30
  23713922.5554    2718733.18046   2118490.52346                  23713931.2774
        15.7504         12.2504
  20516734.7734      30441.71547     21803.01847                  20516740.9964
        20.7504         28.0004
  23733018.7504   -1807965.71746   -346464.92646                  23733028.9024
        14.2504         13.0004
  24675232.7584    2595671.11046   2022588.46045                  24675251.8054
        12.0004          9.7504
  21882991.9454   -1874390.11347   -613857.59146                  21883000.4574
        27.2504         24.2504
  21100886.8914    1393984.86048   1086221.73347                  21100893.1844
        32.2504         27.0004
  21717231.6484   -1872701.21748  -1459246.82647                  21717237.7544
        28.5004         26.5004
 00  5  1 19 13  0.0000000  0  7G 4G 5G 6G 9G10G24G30
  23722892.5704    2765873.40946   2155223.10446                  23722900.9654
        15.2504         12.5004
  20517006.4844      31868.74746     22914.96647                  20517012.6024
        19.7504         28.0004
  23726234.1024   -1843617.56946   -374245.52046                  23726244.4184
        14.7504         13.5004
  24683674.7194    2640037.02345   2057159.09345                  24683695.3754
        11.0004          9.7504
  21876521.6024   -1908393.40047   -640353.61446                  21876530.1254
        27.0004         24.7504
  21105604.3594    1418776.09048   1105539.55547                  21105610.5944
        32.0004         27.0004
  21710696.7584   -1907042.40747  -1486006.18847                  21710703.0864
        27.0004         26.7504
 00  5  1 19 13 15.0000000  0  7G 4G 5G 6G 9G10G24G30
  23731854.3674    2812968.90546   2191920.85646                  23731862.5164
        15.7504         12.7504
  20517293.5164      33376.73747     24090.02747                  20517299.6454
        21.5004         27.7504
  23719441.3984   -1879311.55446   -402058.93746                  23719450.8954
        15.2504         13.5004
  24692103.9534    2684331.65345   2091674.15345                  24692123.5864
        10.0004         10.2504
  21870060.0634   -1942347.47147   -666811.26546                  21870068.7154
        26.7504         24.5004
  21110325.2034    1443583.37648   1124869.91247                  21110331.3914
        31.7504         27.2504
  21704170.9304   -1941335.21247  -1512727.81547                  21704177.3634
        27.7504         26.7504
 00  5  1 19 13 30.0000000  0  7G 4G 5G 6G 9G10G24G30
  23740807.2344    2860016.16546   2228581.02146                  23740815.1954
        15.0004         12.0004
  20517594.6564      34960.17047     25323.85147                  20517600.8204
        22.7504         28.0004
  23712640.1564   -1915052.75246   -429909.18246                  23712649.8164
        14.0004         13.5004
  24700519.9064    2728552.74645   2126131.88645                  24700540.4064
        10.5004         10.7504
  21863607.3134   -1976257.09547   -693234.29746                  21863616.0124
        26.7504         24.5004
  21115049.0314    1468406.98948   1144212.97947                  21115055.4414
        31.7504         27.2504
  21697653.8914   -1975582.09547  -1539413.68547                  21697660.5354
        27.7504         27.0004
 00  5  1 19 13 45.0000000  0  7G 4G 5G 6G 9G10G24G30
  23749752.4454    2907022.41646   2265209.21146                  23749760.0314
        15.2504         12.2504
  20517911.5004      36624.69947     26620.87047                  20517917.7934
        24.2504         28.0004
  23705830.8914   -1950834.54846   -457790.99646                  23705841.5004
        14.2504         13.7504
  24708922.5944    2772707.62645   2160538.06145                  24708942.1914
        10.5004         10.2504
  21857165.1334   -2010111.27247   -719614.13246                  21857173.8094
        26.5004         24.5004
  21119777.3204    1493255.29248   1163575.27147                  21119783.7194
        32.2504         27.2504
  21691147.2664   -2009774.51448  -1566057.12047                  21691153.9344
        28.2504         27.0004
 00  5  1 19 14  0.0000000  0  7G 4G 5G 6G 9G10G24G30
  23758689.1414    2953985.29046   2301803.59646                  23758697.3594
        15.0004         12.2504
  20518243.9844      38371.33347     27981.86747                  20518250.2074
        22.2504         28.0004
  23699014.4304   -1986656.53946   -485704.18646                  23699024.9924
        15.0004         13.5004
  24717312.2504    2816796.45745   2194892.78145                  24717331.4964
         9.7504          8.7504
  21850733.5474   -2043907.30247   -745948.65046                  21850742.2704
        27.0004         24.7504
  21124510.2894    1518126.93248   1182955.76547                  21124516.7584
        31.7504         27.2504
  21684650.9534   -2043913.12647  -1592658.61647                  21684657.6214
        27.2504         27.0004
 00  5  1 19 14 15.0000000  0  7G 4G 5G 6G 9G10G24G30
  23767618.2584    3000905.79246   2338364.95145                  23767625.5864
        15.7504         11.7504
  20518591.6414      40198.85347     29405.86447                  20518597.9224
        22.7504         28.0004
  23692190.1954   -2022517.21646   -513647.52546                  23692200.1254
        14.5004         13.5004
  24725689.4224    2860821.34745   2229197.68645                  24725708.5514
         9.7504          8.5004
  21844314.4384   -2077641.04647   -772234.65946                  21844323.1954
        27.0004         24.7504
  21129248.2344    1543025.36248   1202357.10247                  21129254.6914
        31.7504         27.5004
  21678165.1484   -2077996.27647  -1619216.92047                  21678171.8524
        27.5004         27.0004
 00  5  1 19 14 30.0000000  0  7G 4G 5G 6G 9G10G24G30
  23776539.3364    3047787.95546   2374896.49846                  23776547.5204
        15.0004         12.5004
  20518954.7814      42107.23946     30892.91747                  20518961.0864
        19.7504         28.0004
  23685358.9534   -2058415.52246   -541620.17546                  23685369.3284
        14.5004         14.0004
  24734055.8524    2904786.17745   2263455.78945                  24734075.3794
         9.7504          9.2504
  21837907.2274   -2111310.98647   -798470.92046                  21837915.8674
        27.0004         24.7504
  21133991.6254    1567951.82548   1221780.32247                  21133998.0124
        30.7504         27.5004
  21671690.3134   -2112021.24847  -1645729.86247                  21671696.8054
        27.2504         27.0004
 00  5  1 19 14 45.0000000  0  7G 4G 5G 6G 9G10G24G30
  23785452.4694    3094628.48346   2411395.54246                  23785460.0084
        15.2504         12.0004
  20519332.9694      44093.60347     32440.71247                  20519339.1214
        21.0004         28.0004
  23678519.9694   -2094356.41146   -569625.99646                  23678530.1684
        14.7504         13.7504
  24742410.0164    2948686.94245   2297663.94045                  24742429.8134
        10.0004         10.0004
  21831511.7734   -2144919.65047   -824659.43946                  21831520.2624
        27.0004         25.0004
  21138739.5084    1592900.54148   1241220.87147                  21138745.9654
        30.7504         27.5004
  21665225.5864   -2145993.95248  -1672202.08347                  21665232.2664
        28.2504         27.0004
 00  5  1 19 15  0.0000000  0  7G 4G 5G 6G 9G10G24G30
  23794358.9384    3141431.74046   2447865.59446                  23794366.6994
        14.7504         12.0004
  20519726.9694      46164.69047     34054.53347                  20519733.2624
        21.5004         28.0004
  23671672.6884   -2130337.98846   -597663.51346                  23671682.1954
        15.2504         13.7504
  24750752.6484    2992528.78945   2331826.16745                  24750775.1214
         8.2504          9.7504
  21825129.0314   -2178460.22647   -850794.90246                  21825137.5434
        27.0004         24.7504
  21143492.4924    1617878.62348   1260684.29847                  21143498.6684
        31.7504         27.2504
  21658771.9144   -2179908.70848  -1698629.14547                  21658778.5474
        29.5004         27.2504
 00  5  1 19 15 15.0000000  0  7G 4G 5G 6G 9G10G24G30
  23803260.2344    3188205.54546   2484312.66245                  23803268.3834
        14.7504         11.7504
  20520139.3984      48331.59546     35743.02247                  20520145.7384
        19.7504         28.2504
  23664818.8594   -2166353.12446   -625727.20446                  23664828.9534
        15.0004         13.7504
  24759087.6884    3036324.95845   2365952.85045                  24759108.0004
        10.0004         10.0004
  21818761.9064   -2211919.35447   -876866.89746                  21818770.7704
        26.5004         25.0004
  21148253.3364    1642895.80848   1280178.21047                  21148259.6764
        31.0004         27.5004
  21652330.6954   -2213756.81348  -1725004.26847                  21652337.4344
        31.2504         27.2504
 00  5  1 19 15 30.0000000  0  7G 4G 5G 6G 9G10G24G30
  23812154.0944    3234943.94046   2520732.12945                  23812161.3754
        15.2504         11.5004
  20520568.9844      50589.95747     37502.76247                  20520575.4184
        21.0004         28.2504
  23657957.5634   -2202409.81946   -653823.27246                  23657968.5594
        14.0004         14.0004
  24767412.7504    3080073.95945   2400042.76145                  24767432.7344
         9.0004          9.0004
  21812410.1334   -2245298.29647   -902876.41546                  21812418.9734
        27.2504         25.0004
  21153020.1334    1667947.02948   1299698.62647                  21153026.3444
        30.2504         27.5004
  21645901.0474   -2247545.05848  -1751332.76047                  21645907.6564
        28.2504         27.5004
 00  5  1 19 15 45.0000000  0  7G 4G 5G 6G 9G10G24G30
  23821042.4774    3281649.55746   2557126.07846                  23821050.0394
        15.2504         12.0004
  20521017.2114      52944.57547     39337.51247                  20521023.6804
        21.7504         28.2504
  23651088.5004   -2238506.01546   -681950.11846                  23651098.4884
        14.7504         14.2504
  24775729.7194    3123775.47845   2434095.67445                  24775748.2624
        10.2504          9.2504
  21806074.7114   -2278591.36847   -928819.01846                  21806083.6564
        27.2504         25.2504
  21157793.9224    1693032.75348   1319245.93547                  21157800.1914
        31.0004         27.2504
  21639482.6484   -2281273.52248  -1777614.66547                  21639489.2704
        29.0004         27.2504
 00  5  1 19 16  0.0000000  0  7G 4G 5G 6G 9G10G24G30
  23829923.5704    3328323.73446   2593495.51345                  23829931.3674
        15.0004         11.7504
  20521484.4694      55399.04747     41250.07047                  20521490.7624
        22.5004         28.2504
  23644212.5554   -2274640.20646   -710106.58646                  23644222.3914
        15.2504         13.7504
  24784037.3914    3167432.73545   2468114.11245                  24784057.4104
         9.2504          9.7504
  21799756.0554   -2311795.56847   -954692.37546                  21799764.9304
        27.7504         25.2504
  21162573.8204    1718151.13448   1338818.69347                  21162580.0554
        30.5004         27.5004
  21633076.3054   -2314938.20248  -1803846.86447                  21633082.9264
        29.2504         27.5004
 00  5  1 19 16 15.0000000  0  7G 4G 5G 6G 9G10G24G30
  23838800.3054    3374967.57246   2629841.29946                  23838808.7344
        15.7504         12.0004
  20521970.5704      57954.83247     43241.57147                  20521976.9804
        20.2504         28.2504
  23637328.7734   -2310813.27046   -738293.32346                  23637339.2774
        14.7504         13.7504
  24792334.7894    3211044.17944   2502096.85345                  24792354.9264
         7.2504          8.5004
  21793454.0314   -2344911.73847   -980497.13846                  21793462.6374
        27.5004         25.2504
  21167360.3754    1743304.56048   1358418.75447                  21167366.6214
        30.7504         27.5004
  21626682.8204   -2348535.99348  -1830026.94547                  21626689.4064
        30.2504         27.5004
 00  5  1 19 16 30.0000000  0  7G 4G 5G 6G 9G10G24G30
  23847670.7504    3421583.48746   2666165.34946                  23847679.4144
        14.5004         12.0004
  20522476.9304      60614.94246     45314.35247                  20522483.1054
        19.0004         28.2504
  23630437.9304   -2347026.63046   -766511.47746                  23630448.3284
        14.7504         14.0004
  24800626.0944    3254608.20545   2536042.52345                  24800646.7154
         8.2504          8.0004
  21787168.5474   -2377943.01947  -1006235.76646                  21787177.1054
        27.7504         25.2504
  21172152.9144    1768489.56248   1378043.40747                  21172159.2894
        30.7504         27.5004
  21620302.5004   -2382064.81847  -1856153.29947                  21620309.0274
        27.7504         27.2504
 00  5  1 19 16 45.0000000  0  7G 4G 5G 6G 9G10G24G30
  23856536.2584    3468168.17846   2702465.06045                  23856544.7464
        14.7504         11.2504
  20523002.7664      63378.72146     47467.92947                  20523008.9184
        18.5004         28.2504
  23623538.4144   -2383283.11046   -794763.23746                  23623549.1524
        14.2504         13.7504
  24808907.1334    3298121.12345   2569948.51245                  24808926.3674
         9.2504          8.7504
  21780898.4304   -2410891.91047  -1031910.17246                  21780907.0824
        27.5004         25.2504
  21176950.3594    1793700.93648   1397688.62747                  21176956.7464
        32.2504         27.5004
  21613934.8594   -2415527.72248  -1882228.27247                  21613941.3164
        29.5004         27.5004
 00  5  1 19 17  0.0000000  0  7G 4G 5G 6G 9G10G24G30
  23865394.9384    3514725.47946   2738743.41845                  23865403.0984
        14.0004         11.5004
  20523549.7424      66251.53646     49706.47147                  20523555.7544
        19.2504         28.2504
  23616631.8284   -2419577.39646   -823044.41646                  23616642.4144
        14.7504         14.0004
  24817178.0314    3341588.05645   2603818.63145                  24817197.6174
        10.7504          9.0004
  21774645.3284   -2443752.44347  -1057515.73746                  21774653.9924
        27.5004         25.5004
  21181754.0084    1818944.16548   1417358.66247                  21181760.4184
        31.7504         27.5004
  21607581.0084   -2448917.59048  -1908246.33347                  21607587.6174
        29.0004         27.5004
 00  5  1 19 17 15.0000000  0  7G 4G 5G 6G 9G10G24G30
  23874250.1954    3561259.91846   2775003.97845                  23874258.2504
        14.7504         11.2504
  20524118.0864      69239.09446     52034.41747                  20524124.2974
        19.2504         28.2504
  23609719.1414   -2455902.69046   -851349.79446                  23609729.7274
        14.5004         14.2504
  24825442.0784    3385012.30745   2637655.53345                  24825461.1024
        10.5004          8.5004
  21768409.3054   -2476522.78848  -1083051.01846                  21768418.0274
        28.2504         25.5004
  21186564.6644    1844224.36848   1437057.50747                  21186571.1094
        31.7504         27.2504
  21601242.1414   -2482228.44548  -1934202.83147                  21601248.8674
        28.7504         27.2504
 00  5  1 19 17 30.0000000  0  7G 4G 5G 6G 9G10G24G30
  23883099.9384    3607764.65246   2811241.38545                  23883107.8054
        13.5004         11.0004
  20524706.3914      72330.76246     54443.48747                  20524712.5314
        19.2504         28.2504
  23602799.5784   -2492264.71246   -879683.78646                  23602809.6134
        14.5004         13.7504
  24833695.8134    3428383.51445   2671451.09145                  24833714.7894
        10.0004          9.0004
  21762188.9064   -2509211.31947  -1108522.55347                  21762197.4534
        27.7504         25.7504
  21191380.5864    1869532.31848   1456777.97347                  21191386.9844
        32.0004         27.2504
  21594916.6254   -2515469.58948  -1960105.00647                  21594923.2584
        29.0004         27.5004
 00  5  1 19 17 45.0000000  0  7G 4G 5G 6G 9G10G24G30
  23891944.1094    3654242.89146   2847458.16445                  23891952.1644
        14.0004         10.5004
  20525314.8754      75527.36546     56934.32947                  20525321.0274
        19.2504         28.2504
  23595873.3834   -2528660.98546   -908044.46746                  23595883.4414
        15.0004         13.7504
  24841938.2814    3471699.47745   2705203.55145                  24841960.7664
         8.5004          9.7504
  21755983.8914   -2541817.71947  -1133930.08946                  21755992.4024
        27.5004         25.5004
  21196202.5084    1894870.40948   1476521.92247                  21196208.9534
        32.0004         27.5004
  21588604.9064   -2548638.10948  -1985950.59247                  21588611.4574
        28.7504         27.2504
 00  5  1 19 18  0.0000000  0  7G 4G 5G 6G 9G10G24G30
  23900783.5394    3700696.32246   2883655.59145                  23900792.3674
        13.2504         10.7504
  20525943.5004      78831.63646     59509.06547                  20525949.7464
        18.5004         28.2504
  23588941.7734   -2565087.63746   -936428.80646                  23588952.1484
        14.0004         13.7504
  24850170.6094    3514960.43045   2738913.12545                  24850192.1334
         9.7504         10.5004
  21749794.7814   -2574342.00447  -1159273.64046                  21749803.3404
        27.5004         25.5004
  21201029.9924    1920240.06348   1496290.47147                  21201036.3794
        32.2504         27.2504
  21582307.6254   -2581729.60748  -2011736.15747                  21582314.1994
        31.5004         27.5004
 00  5  1 19 18 15.0000000  0  7G 4G 5G 6G 9G10G24G30
  23909620.6884    3747130.09346   2919837.68345                  23909629.0004
        14.0004         10.2504
  20526593.8984      82249.96046     62172.67447                  20526600.1214
        18.2504         28.2504
  23582006.0084   -2601535.46346   -964829.66346                  23582015.7734
        14.5004         13.5004
  24858394.5944    3558173.80545   2772585.67045                  24858414.8954
        10.5004          9.7504
  21743622.1804   -2606779.21448  -1184549.33646                  21743630.7034
        28.0004         25.5004
  21205865.6254    1945650.98748   1516091.17647                  21205872.0234
        32.2504         27.5004
  21576026.8594   -2614733.75648  -2037453.66347                  21576033.4694
        30.7504         27.2504
 00  5  1 19 18 30.0000000  0  7G 4G 5G 6G 9G10G24G30
  23918452.9534    3793545.87346   2956005.77845                  23918461.2194
        13.5004         10.2504
  20527266.6884      85784.58946     64926.91047                  20527272.8054
        18.2504         28.0004
  23575067.1804   -2637998.34246   -993242.23646                  23575077.2504
        14.5004         14.0004
  24866608.7424    3601341.50545   2806222.62945                  24866628.4454
        10.5004          8.2504
  21737466.5314   -2639127.35847  -1209755.63846                  21737474.8324
        27.7504         25.5004
  21210709.7424    1971106.82748   1535926.87747                  21210716.2464
        32.2504         27.2504
  21569763.2664   -2647649.80148  -2063102.51747                  21569769.8164
        31.7504         27.2504
 00  5  1 19 18 45.0000000  0  7G 4G 5G 6G 9G10G24G30
  23927280.3444    3839933.99846   2992152.32445                  23927287.8834
        13.7504         11.0004
  20527959.4064      89425.30346     67763.81347                  20527965.4184
        18.0004         28.2504
  23568124.5164   -2674480.99646  -1021670.22646                  23568134.6914
        14.5004         13.7504
  24874813.4534    3644458.17345   2839819.84145                  24874832.7464
         9.0004          8.0004
  21731326.6414   -2671391.75447  -1234896.67346                  21731335.1524
        27.5004         25.5004
  21215561.2664    1996602.39948   1555793.54547                  21215567.6644
        32.0004         27.5004
  21563514.5554   -2680487.32648  -2088690.18147                  21563521.1644
        31.7504         27.2504
 00  5  1 19 19  0.0000000  0  7G 4G 5G 6G 9G10G24G30
  23936101.7814    3886290.20146   3028273.97545                  23936110.7384
        13.2504         11.0004
  20528671.0394      93164.42246     70677.38947                  20528677.0744
        18.0004         28.0004
  23561178.2584   -2710985.09146  -1050114.91946                  23561188.9384
        14.5004         14.0004
  24883009.2034    3687523.13545   2873376.77745                  24883029.0234
        10.2504          8.0004
  21725202.8054   -2703572.74247  -1259972.72346                  21725211.2344
        27.7504         25.5004
  21220420.7504    2022138.91448   1575692.10847                  21220427.2304
        32.2504         27.2504
  21557280.2894   -2713249.36448  -2114219.03347                  21557286.8984
        32.2504         27.2504
 00  5  1 19 19 15.0000000  0  7G 4G 5G 6G 9G10G24G30
  23944918.1024    3932618.00146   3064373.50545                  23944926.6604
        13.7504         11.2504
  20529401.7814      97004.34246     73669.51747                  20529407.8404
        18.2504         28.2504
  23554228.8444   -2747504.10646  -1078571.23346                  23554239.1844
        14.7504         14.0004
  24891195.5634    3730540.55546   2906896.64645                  24891217.2504
        12.5004         10.2504
  21719095.3204   -2735667.51548  -1284981.58246                  21719103.8444
        28.0004         25.5004
  21225288.9534    2047720.59648   1595625.87947                  21225295.5274
        32.0004         27.2504
  21551060.7424   -2745932.82048  -2139686.64347                  21551067.2464
        31.7504         27.5004
 00  5  1 19 20  0.0000000  0  7G 4G 5G 6G 9G10G24G30
  23971334.3524      33907.05256
        14.2504
  20531707.5314                       3045.19456
        19.5004
  23533361.9454     -26817.41556
        15.0004
  24915696.9924      31429.99755
         9.5004
  21700875.0474     -10596.75558
        28.0004
  21239940.4454      18851.71758
        32.2504
  21532489.6024     -23789.17258
        32.2504
 00  5  1 19 20 15.0000000  0  7G 4G 5G 6G 9G10G24G30
  23980129.3834      80127.78046
        14.0004
  20532515.6174                       7290.84246
        19.5004
  23526401.0944     -63396.97346
        15.2504
  24923846.7194      74257.82645
         9.2504
  21694837.5004     -42323.32047
        27.7504
  21244840.6094      44603.20248
        32.2504
  21526330.3204     -56156.44448
        31.7504
 00  5  1 19 20 30.0000000  0  7G 4G 5G 6G 9G10G24G30
  23988921.9144     126331.83746      2396.26755                  23988929.9924
        13.5004         11.0004
  20533344.1024      11645.42146       911.62557                  20533350.2894
        19.5004         28.2504
  23519438.7504     -99984.62946    -13304.83856                  23519449.5474
        15.2504         14.2504
  24931989.6254     117049.35845
        10.7504
  21688820.4304     -73943.45548     -8203.42457                  21688829.0594
        28.2504         25.7504
  21249751.1564      70406.85348      8045.05857                  21249757.8014
        32.2504         27.5004
  21520187.6024     -88436.65548     -5024.41257                  21520194.1414
        32.0004         27.2504
 00  5  1 19 20 45.0000000  0  7G 4G 5G 6G 9G10G24G30
  23997710.8444     172514.92146     38383.03845                  23997719.5084
        14.2504         10.7504
  20534192.0704      16101.11847      4383.56147                  20534198.2584
        20.2504         28.0004
  23512472.4924    -136590.94246    -41829.18046                  23512482.8094
        15.2504         14.0004
  24940124.6564     159797.35045      2217.07155                  24940144.8874
        10.5004          9.5004
  21682822.1564    -105463.51448    -32764.44047                  21682830.5984
        28.0004         25.7504
  21254669.3524      96252.67748     28184.66647                  21254675.9614
        32.2504         27.7504
  21514059.5234    -120639.54348    -30117.57547                  21514066.3204
        30.2504         27.2504
 00  5  1 19 21  0.0000000  0  8G 4G 5G 6G17G 9G10G24G30
  24006496.0944     218683.56546     74358.57145                  24006504.5234
        13.0004         10.2504
  20535059.6564      20660.23247      7936.10047                  20535065.9614
        20.2504         28.0004
  23505503.5164    -173215.38646    -70367.65746                  23505513.8674
        15.7504         14.0004
  25323815.1414     -36030.78654
         6.7504
  24948252.7894     202505.82946     35496.20245                  24948272.6334
        13.0004          9.2504
  21676843.9774    -136879.13248    -57244.09246                  21676852.6524
        28.0004         25.5004
  21259595.4844     122139.43848     48356.15047                  21259602.2464
        32.5004         27.5004
  21507946.9924    -152760.70548    -55147.04447                  21507953.6724
        29.7504         27.2504
 00  5  1 19 21 15.0000000  0  8G 4G 5G 6G17G 9G10G24G30
  24015281.1094     264848.82846    110331.43445                  24015289.9264
        12.7504         10.2504
  20535949.4064      25336.10746     11579.61847                  20535955.6294
        19.5004         28.2504
  23498532.3364    -209848.09346    -98912.56146                  23498542.2424
        16.2504         14.2504
  25314468.2974     -85150.49342
         4.7504
  24956373.2274     245184.65745     68752.25445                  24956393.6214
        10.0004          9.7504
  21670887.3754    -168181.44348    -81635.45347                  21670895.7234
        28.0004         25.7504
  21264530.5634     148073.62248     68564.59147                  21264537.3014
        32.2504         27.5004
  21501852.2504    -184788.41048    -80103.68247                  21501858.9184
        30.7504         27.5004
 00  5  1 19 21 30.0000000  0  8G 4G 5G 6G17G 9G10G24G30
  24024064.1564     311003.23646    146295.88545                  24024071.7664
        13.7504         10.2504
  20536860.5704      30124.90446     15311.12647                  20536866.6524
        18.5004         28.2504
  23491558.0084    -246498.58746   -127471.33746                  23491567.9264
        15.5004         14.2504
  25305120.7814    -134256.54442
         4.5004
  24964487.6484     287824.39645    101977.79245                  24964509.0314
         8.7504          8.2504
  21664950.5474    -199379.41248   -105945.50947                  21664958.9534
        28.2504         26.0004
  21269472.8594     174046.05548     88802.83947                  21269479.4454
        32.2504         27.7504
  21495774.0784    -216730.21048   -104993.38747                  21495780.8164
        29.7504         27.5004
 00  5  1 19 21 45.0000000  0  8G 4G 5G 6G17G 9G10G24G30
  24032844.9304     357148.79946    182253.41645                  24032853.8404
        12.7504         10.2504
  20537793.9924      35029.65346     19132.98947                  20537800.1804
        18.2504         28.2504
  23484579.3834    -283168.92946   -156045.57746                  23484589.0554
        15.5004         14.2504
  25295780.5784    -183346.67243
         5.7504
  24972595.3444     330426.82745    135174.27245                  24972616.1174
         9.0004          8.7504
  21659033.9924    -230471.00648   -130172.67547                  21659042.1994
        28.2504         26.0004
  21274422.7344     200057.58348    109071.54647                  21274429.2734
        32.5004         27.5004
  21489712.7344    -248582.68648   -129813.48647                  21489719.4614
        28.7504         27.5004
 00  5  1 19 22  0.0000000  0  8G 4G 5G 6G17G 9G10G24G30
  24041624.3984     403283.29646    218202.30345                  24041632.6884
        13.2504         10.5004
  20538749.2734      40049.56646     23044.58847                  20538755.4494
        18.5004         28.2504
  23477597.8364    -319858.31846   -184634.66146                  23477607.4844
        16.2504         14.5004
  25286443.9774    -232417.34644    -33135.62655                  25286465.7344
         7.0004          5.2504
  24980696.5704     372995.02645    168344.08945                  24980719.1724
        10.5004          9.2504
  21653137.2034    -261458.27148   -154318.54447                  21653145.4694
        28.2504         26.0004
  21279380.5944     226110.63748    129372.60847                  21279387.1804
        32.5004         27.5004
  21483668.6884    -280343.86948   -154562.44847                  21483675.2734
        30.5004         27.5004
 00  5  1 19 22 15.0000000  0  8G 4G 5G 6G17G 9G10G24G30
  24050401.4384     449405.29746    254141.49145                  24050409.4224
        13.5004         10.5004
  20539725.6024      45179.39246     27041.83447                  20539731.7544
        18.2504         28.0004
  23470611.9534    -356569.17946   -213240.46846                  23470621.5554
        16.2504         15.0004
  25277109.9454    -281470.68645    -71358.96045                  25277130.0004
         7.7504          7.2504
  24988789.8054     415527.16845    201485.82845                  24988808.0554
        10.7504          8.5004
  21647259.7734    -292344.49548   -178385.68347                  21647268.0394
        28.2504         25.7504
  21284345.7424     252203.17048    149704.44247                  21284352.2344
        32.2504         27.2504
  21477641.3524    -312018.33348   -179243.83547                  21477648.1604
        30.0004         27.5004
 00  5  1 19 22 30.0000000  0  8G 4G 5G 6G17G 9G10G24G30
  24059174.6954     495508.75546    290066.20345                  24059183.9224
        13.2504         10.5004
  20540720.9304      50409.92846     31117.55647                  20540727.2114
        17.7504         28.2504
  23463620.4694    -393309.10846   -241868.92246                  23463629.6954
        16.2504         15.0004
  25267777.0704    -330516.35045   -109576.17645                  25267797.0084
         7.5004          6.5004
  24996874.3284     458013.64945    234592.05445                  24996894.7934
         8.0004          8.5004
  21641399.8134    -323138.23248   -202380.74947                  21641408.2894
        28.0004         26.0004
  21289316.6334     278326.24348    170060.06647                  21289323.2194
        32.5004         27.2504
  21471628.6484    -343615.77848   -203865.20947                  21471635.2704
        29.5004         27.7504
 00  5  1 19 22 45.0000000  0  8G 4G 5G 6G17G 9G10G24G30
  24067946.3284     541603.47046    325984.09045                  24067954.7814
        13.7504         10.5004
  20541737.7974      55754.42046     35282.07647                  20541744.0434
        18.2504         28.2504
  23456625.5394    -430068.03046   -270512.18546                  23456634.9654
        16.7504         14.7504
  25258445.0394    -379543.73243   -147779.25745                  25258462.8094
         5.7504          5.2504
  25004952.4064     500464.23045    267670.15245                  25004974.1414
         8.2504          8.5004
  21635559.6644    -353829.25848   -226295.78847                  21635567.9414
        28.2504         26.0004
  21294295.5474     304489.15748    190446.73747                  21294302.2624
        32.0004         27.2504
  21465632.6414    -375123.43648   -228416.62047                  21465639.2274
        31.5004         27.5004
 00  5  1 19 23  0.0000000  0  8G 4G 5G 6G17G 9G10G24G30
  24076715.4924     587690.62046    361896.10945                  24076723.4654
        13.2504         11.0004
  20542777.4774      61217.00046     39538.60647                  20542783.6294
        18.2504         28.2504
  23449628.0474    -466840.30846   -299165.86746                  23449637.2624
        17.0004         15.2504
  25249120.4694    -428550.74044   -185966.33145                  25249140.9344
         7.0004          5.7504
  25013023.5784     542880.66645    300721.71045                  25013044.2704
         7.7504          7.7504
  21629739.2424    -384414.75848   -250128.58847                  21629747.5314
        28.2504         25.7504
  21299282.0004     330693.37248    210865.58947                  21299288.7854
        32.2504         27.2504
  21459655.9304    -406532.19948   -252890.96847                  21459662.5864
        31.5004         27.7504
 00  5  1 19 23 15.0000000  0  8G 4G 5G 6G17G 9G10G24G30
  24085484.4064     633767.78246    397800.31545                  24085492.9654
        14.2504         10.7504
  20543840.3364      66802.59146     43890.99547                  20543846.5124
        19.2504         28.0004
  23442628.6564    -503622.43046   -327827.21246                  23442638.5394
        16.2504         14.5004
  25239799.0004    -477534.29444   -224135.10345                  25239819.8324
         6.5004          6.5004
  25021089.8984     585261.77845    333745.78145                  25021110.5904
         9.0004          8.2504
  21623939.7974    -414891.56348   -273876.69747                  21623948.1094
        28.5004         26.0004
  21304277.1804     356944.24148    231320.79347                  21304283.7194
        32.5004         27.2504
  21453698.7734    -437836.67848   -277284.05847                  21453705.4884
        32.2504         27.5004
 00  5  1 19 23 30.0000000  0  8G 4G 5G 6G17G 9G10G24G30
  24094250.0394     679828.82946    433691.99545                  24094258.7854
        13.0004         10.2504
  20544926.4924      72509.81046     48338.15747                  20544932.7384
        18.2504         28.0004
  23435626.6644    -540416.88046   -356498.15046                  23435636.3134
        17.0004         15.0004
  25230482.3364    -526496.79445   -262287.53945                  25230506.2854
         7.5004          7.2504
  25029147.0164     627600.78645    366737.03945                  25029166.9884
         9.7504          9.0004
  21618160.7894    -445261.03648   -297541.17347                  21618169.1024
        28.7504         26.0004
  21309281.3984     383241.37548    251812.05147                  21309288.0904
        32.2504         27.0004
  21447760.8054    -469041.35248   -301599.37647                  21447767.5904
        32.2504         27.7504
 00  5  1 19 23 45.0000000  0  8G 4G 5G 6G17G 9G10G24G30
  24103011.7344     725873.21346    469570.68545                  24103018.2504
        13.5004         10.7504
  20546035.1174      78336.23946     52878.20947                  20546041.2464
        17.7504         28.2504
  23428621.8754    -577225.66846   -385180.28546                  23428630.8914
        16.7504         15.2504
  25221168.2734    -575438.56645   -300423.79645                  25221192.4224
         8.7504          8.5004
  25037194.3364     669894.34645    399692.83045                  25037217.4534
         7.5004          8.2504
  21612402.3524    -475520.56748   -321119.97947                  21612410.3594
        29.0004         26.2504
  21314294.3364     409584.21748    272338.92047                  21314300.9224
        32.2504         27.0004
  21441841.4384    -500147.12348   -325837.63147                  21441848.0124
        32.2504         27.7504
 00  5  1 19 24  0.0000000  0  8G 4G 5G 6G17G 9G10G24G30
  24111770.1414     771897.46646    505433.68845                  24111779.3674
        12.7504         10.2504
  20547165.9844      84278.23446     57508.31147                  20547172.1604
        18.2504         28.0004
  23421614.9534    -614049.07946   -413873.79646                  23421624.4264
        17.0004         15.0004
  25211858.4924    -624361.15245   -338545.10845                  25211880.5904
         8.2504          8.0004
  25045232.5864     712139.29744    432610.79545                  25045255.4804
         6.2504          8.7504
  21606665.3444    -505669.43148   -344612.54647                  21606673.2814
        29.0004         26.2504
  21319315.7814     435972.24248    292901.01047                  21319322.3324
        32.0004         27.0004
  21435940.2504    -531157.23848   -350001.34547                  21435946.9884
        32.0004         28.0004
 00  5  1 19 24 15.0000000  0  8G 4G 5G 6G17G 9G10G24G30
  24120523.5164     817899.03446    541279.00845                  24120532.0634
        14.0004         10.2504
  20548318.3444      90334.34446     62227.33547                  20548324.5434
        19.2504         28.0004
  23414604.7194    -650885.82546   -442577.70646                  23414613.9804
        16.5004         14.7504
  25202552.4384    -673264.90345   -376651.72645                  25202573.3634
         9.5004          8.5004
  25053261.7974     754330.78343    465487.05345                  25053288.8754
         5.5004          7.2504
  21600949.2424    -535707.28048   -368018.60947                  21600957.2504
        29.0004         26.2504
  21324345.8914     462404.62548    313497.65547                  21324352.6294
        32.0004         27.0004
  21430057.1884    -562073.77248   -374092.13547                  21430064.1054
        30.5004         27.7504
 00  5  1 19 24 30.0000000  0  8G 4G 5G 6G17G 9G10G24G30
  24129273.5084     863878.83046    577107.38345                  24129281.8094
        12.2504         10.2504
  20549493.6564      96510.74947     67040.09147                  20549500.0904
        20.7504         28.2504
  23407592.7424    -687733.16146   -471289.85546                  23407602.3914
        16.2504         15.0004
  25193249.6334    -722149.32745   -414743.33645                  25193272.3164
         9.2504          7.5004
  25061282.1334     796467.91344    498320.90345                  25061303.9844
         6.7504          7.2504
  21595254.9064    -565630.81048   -391335.59247                  21595262.9024
        28.7504         26.2504
  21329384.5864     488883.64048    334130.63647                  21329391.2544
        31.7504         26.7504
  21424192.3754    -592893.42247   -398107.43947                  21424199.0204
        27.7504         28.2504
 00  5  1 19 24 45.0000000  0  8G 4G 5G 6G17G 9G10G24G30
  24138019.0864     909838.19246    612919.80445                  24138026.5554
        13.0004         10.0004
  20550692.9224     102811.94547     71950.09647                  20550699.1684
        20.7504         28.0004
  23400579.3834    -724590.09046   -500009.48846                  23400588.8554
        16.0004         14.7504
  25183951.4614    -771012.28645   -452818.23245                  25183972.1994
         9.0004          8.0004
  25069290.0394     838553.82445    531115.00145                  25069311.8674
         7.7504          8.2504
  21589582.7194    -595437.23048   -414561.32547                  21589590.7034
        29.2504         26.5004
  21334432.9534     515413.71648    354803.40847                  21334439.6804
        31.7504         26.7504
  21418347.0944    -623611.15548   -422043.32747                  21418353.7734
        30.0004         28.0004
 00  5  1 19 25  0.0000000  0  8G 4G 5G 6G17G 9G10G24G30
  24146761.4224     955778.83946    648717.67945                  24146769.8984
        12.5004         10.2504
  20551916.7974     109243.99646     76962.05647                  20551922.9734
        19.2504         28.2504
  23393565.1414    -761451.01646   -528732.24146                  23393574.4844
        16.2504         15.2504
  25174657.3284    -819849.02045   -490872.60645                  25174678.5594
         8.5004          7.7504
  25077290.3364     880593.04145    563872.62145                  25077311.8134
         9.0004          9.5004
  21583933.8134    -625122.65948   -437692.77847                  21583941.8794
        29.5004         26.5004
  21339492.7424     542002.14748    375521.64647                  21339499.3874
        31.7504         26.7504
  21412522.1644    -654222.33147   -445896.18247                  21412528.8324
        26.0004         28.0004
 00  5  1 19 25 15.0000000  0  8G 4G 5G 6G17G 9G10G24G30
  24155499.6334    1001698.73446    684499.34545                  24155508.3094
        12.7504          9.7504
  20553165.3984     115805.39846     82074.81447                  20553171.8914
        19.7504         28.5004
  23386549.5394    -798316.60946   -557458.61646                  23386559.4454
        16.5004         15.0004
  25165369.5234    -868659.49645   -528906.62845                  25165393.2504
         7.7504          6.7504
  25085281.7424     922585.41045    596593.78945                  25085303.5824
         8.7504          9.5004
  21578307.9384    -654687.02648   -460729.89747                  21578315.8524
        29.2504         26.5004
  21344563.6724     568650.16148    396286.31947                  21344570.3404
        31.5004         26.5004
  21406716.3134    -684731.29047   -469669.39447                  21406722.8404
        23.0004         28.2504
 00  5  1 19 25 30.0000000  0  8G 4G 5G 6G17G 9G10G24G30
  24164232.1884    1047588.47546    720257.51745                  24164240.8754
        12.2504          9.5004
  20554436.8594     122487.15547     87281.35447                  20554443.1414
        20.2504         28.2504
  23379532.2664    -835193.57746   -586193.86946                  23379541.7384
        16.2504         15.0004
  25156083.9454    -917452.51244   -566926.95545                  25156103.0274
         7.2504          7.2504
  25093261.6414     964524.06045    629273.02545                  25093284.5004
         8.2504          9.0004
  21572703.7194    -684137.83348   -483678.52847                  21572711.6094
        29.2504         26.7504
  21349644.3134     595349.41448    417090.91547                  21349651.0274
        31.7504         26.7504
  21400927.6254    -715150.67547   -493372.80647                  21400934.1294
        21.2504         28.5004
 00  5  1 19 25 45.0000000  0  8G 4G 5G 6G17G 9G10G24G30
  24172959.6414    1093452.15746    755995.41745                  24172967.7194
        12.2504         10.0004
  20555731.2974     129289.41847     92581.79547                  20555737.6844
        20.0004         28.5004
  23372512.6954    -872080.56046   -614936.90646                  23372521.9224
        16.5004         15.2504
  25146801.2664    -966226.82745   -604932.70045                  25146823.8794
         7.5004          7.7504
  25101232.9844    1006413.77945    661914.19345                  25101253.9454
         8.7504          9.2504
  21567120.8594    -713474.86848   -506538.50747                  21567128.6804
        29.7504         26.5004
  21354734.9774     622099.93848    437935.46047                  21354741.7974
        32.0004         26.7504
  21395156.7114    -745478.36647   -517004.76847                  21395163.1914
        21.0004         28.5004
 00  5  1 19 26  0.0000000  0  8G 4G 5G 6G17G 9G10G24G30
  24181683.9774    1139294.80146    791716.89745                  24181691.7854
        12.7504         10.2504
  20557048.8914     136213.05346     97976.80847                  20557055.3244
        18.7504         28.5004
  23365492.4844    -908972.78746   -643684.04146                  23365501.5004
        16.0004         15.0004
  25137524.2274   -1014982.68845   -642924.12645                  25137546.1134
         8.2504          9.2504
  25109196.4384    1048259.79944    694521.29645                  25109220.4694
         7.2504          8.7504
  21561560.0314    -742698.22848   -529309.90947                  21561567.7464
        29.5004         26.5004
  21359835.1954     648903.95048    458821.68647                  21359841.8634
        31.7504         27.0004
  21389403.4614    -775711.38747   -540562.96147                  21389409.9884
        21.2504         28.2504
 00  5  1 19 26 15.0000000  0  8G 4G 5G 6G17G 9G10G24G30
  24190403.0864    1185115.05345    827420.93745                  24190412.9804
        11.7504          9.7504
  20558388.9694     143254.77347    103463.83947                  20558395.2854
        20.0004         28.5004
  23358471.0864    -945869.66746   -672434.79446                  23358480.2544
        16.7504         15.0004
  25128249.3594   -1063724.08345   -680904.18245                  25128272.4534
         8.2504          9.0004
  25117151.5864    1090062.44645    727094.58745                  25117175.8404
         7.5004          9.2504
  21556018.9534    -771814.11948   -551997.56647                  21556026.8324
        29.2504         26.7504
  21364945.6484     675757.87548    479746.81147                  21364952.2934
        31.5004         26.7504
  21383667.9144    -805851.24947   -564048.56047                  21383674.2544
        22.0004         28.2504
 00  5  1 19 26 30.0000000  0  8G 4G 5G 6G17G 9G10G24G30
  24199117.6414    1230914.76146    863108.95045                  24199125.9414
        12.2504          9.7504
  20559751.6484     150416.47547    109044.36147                  20559757.9884
        20.7504         28.5004
  23351448.9694    -982770.20746   -701188.40446                  23351458.5004
        16.7504         15.7504
  25118976.6884   -1112451.71645   -718873.57745                  25119000.0744
         8.0004          8.0004
  25125098.4454    1131823.37945    759635.34045                  25125121.7384
         9.0004         10.2504
  21550499.1174    -800821.88948   -574600.97947                  21550506.9494
        29.5004         26.7504
  21370065.1094     702660.14948    500709.60547                  21370072.0164
        31.5004         26.7504
  21377951.3594    -835893.89847   -587458.41247                  21377957.6644
        22.2504         28.2504
 00  5  1 19 26 45.0000000  0  8G 4G 5G 6G17G 9G10G24G30
  24207830.0784    1276696.21545    898782.74345                  24207837.6994
        11.7504          9.7504
  20561137.0704     157697.01746    114717.48747                  20561143.5864
        18.7504         28.7504
  23344426.0864   -1019676.07646   -729946.17746                  23344435.3484
        17.5004         16.0004
  25109706.1954   -1161166.35844   -756832.88545                  25109730.5904
         7.0004          8.2504
  25133037.9694    1173545.17145    792145.65045                  25133061.7074
         9.0004          9.2504
  21544999.3754    -829721.71648   -597120.28047                  21545007.2304
        29.0004         26.5004
  21375193.3204     729609.04748    521708.72447                  21375199.9884
        31.5004         26.5004
  21372252.5164    -865840.19847   -610793.18647                  21372258.9844
        20.2504         28.7504
 00  5  1 19 27  0.0000000  0  8G 4G 5G 6G17G 9G10G24G30
  24216538.6414    1322456.87546    934440.38945                  24216547.0824
        12.0004          9.5004
  20562544.2664     165092.12247    120479.87647                  20562550.7584
        20.2504         28.5004
  23337401.6724   -1056589.44046   -758709.78246                  23337410.2774
        17.2504         15.7504
  25100438.7424   -1209869.67145   -794783.26245                  25100460.2424
         7.7504          7.5004
  25140969.5634    1215225.47745    824623.64045                  25140991.6254
         8.7504          8.2504
  21539520.6024    -858514.29648   -619556.00947                  21539528.6914
        29.2504         26.7504
  21380329.4304     756599.81748    542740.47847                  21380336.1214
        31.7504         26.7504
  21366571.7504    -895693.26446   -634055.31247                  21366578.1134
        19.7504         28.7504
 00  5  1 19 27 15.0000000  0  8G 4G 5G 6G17G 9G10G24G30
  24225243.6174    1368204.23945    970087.56745                  24225250.8054
        11.5004          9.5004
  20563975.1724     172610.43547    126338.25247                  20563981.6884
        21.0004         28.5004
  23330377.5474   -1093501.22846   -787472.18546                  23330386.5514
        16.7504         16.0004
  25091173.7814   -1258552.34745   -832717.69745                  25091195.7154
         7.5004          8.0004
  25148894.4694    1256872.16445    857075.45845                  25148917.1054
         8.7504          8.5004
  21534063.8674    -887188.71448   -641899.69347                  21534071.8754
        29.0004         26.7504
  21385474.3754     783636.73748    563808.16747                  21385481.1024
        31.0004         26.5004
  21360909.9844    -925444.76846   -657238.31947                  21360916.5004
        19.2504         29.0004
 00  5  1 19 27 30.0000000  0  8G 4G 5G 6G17G 9G10G24G30
  24233946.4924    1413936.90246   1005723.35445                  24233954.7344
        12.0004         10.0004
  20565427.9844     180245.07147    132287.29647                  20565434.3834
        21.0004         28.5004
  23323352.8134   -1130417.30546   -816237.90246                  23323362.0394
        17.0004         15.5004
  25081912.9534   -1307218.09745   -870638.90945                  25081935.3674
         8.2504          8.5004
  25156813.2114    1298483.37545    889499.54045                  25156836.1994
         8.5004          8.5004
  21528629.3834    -915748.07548   -664153.68947                  21528637.4024
        29.0004         26.7504
  21390626.7894     810712.31948    584906.01447                  21390633.5864
        30.7504         26.5004
  21355267.5234    -955097.52946   -680344.35647                  21355274.0744
        19.0004         28.7504
 00  5  1 19 27 45.0000000  0  8G 4G 5G 6G17G 9G10G24G30
  24242646.8914    1459659.10845   1041350.99345                  24242655.1454
        11.5004          9.2504
  20566903.6334     187998.31846    138328.76247                  20566910.1254
        19.0004         28.5004
  23316326.9924   -1167337.95846   -845007.19346                  23316335.9844
        18.0004         15.7504
  25072655.5944   -1355865.59745   -908545.89045                  25072676.8134
         7.5004          8.2504
  25164726.3204    1340061.21145    921897.67745                  25164749.5664
        10.2504          8.7504
  21523216.6724    -944190.37048   -686316.46947                  21523224.6454
        28.7504         26.7504
  21395786.0864     837825.30148    606032.99647                  21395793.0634
        30.5004         26.7504
  21349644.2504    -984647.68246   -703370.44147                  21349650.8594
        18.0004         29.0004
 00  5  1 19 28  0.0000000  0  8G 4G 5G 6G17G 9G10G24G30
  24251346.2114    1505372.96646   1076972.14145                  24251354.3834
        12.7504          9.5004
  20568401.7034     195871.79447    144463.90947                  20568408.1254
        21.5004         28.7504
  23309299.5634   -1204266.05746   -873782.28046                  23309309.1994
        17.2504         15.7504
  25063401.0394   -1404492.13144   -946436.44045                  25063424.3094
         6.2504          7.0004
  25172632.6334    1381607.66345    954271.39745                  25172654.3444
        11.5004         10.0004
  21517827.2274    -972514.32748   -708387.04347                  21517835.1994
        29.0004         26.7504
  21400953.0784     864978.00048    627190.92347                  21400959.9964
        31.2504         26.7504
  21344041.0634   -1014093.12746   -726314.93547                  21344047.6134
        18.7504         29.2504
 00  5  1 19 28 15.0000000  0  8G 4G 5G 6G17G 9G10G24G30
  24260043.6954    1551076.21045   1112585.02145                  24260053.0164
        11.7504          9.0004
  20569923.4774     203867.37947    150694.21047                  20569929.8524
        21.7504         28.5004
  23302270.9064   -1241201.38546   -902562.99746                  23302279.9694
        17.7504         16.0004
  25054153.1884   -1453094.67144   -984308.41645                  25054177.0314
         7.2504          7.5004
  25180532.2274    1423122.59045    986620.55945                  25180554.8754
        10.5004         10.0004
  21512460.2344   -1000717.31948   -730363.35047                  21512468.0314
        29.0004         26.7504
  21406127.9304     892171.99248    648381.03647                  21406134.7734
        31.0004         26.7504
  21338458.0164   -1043431.88346   -749176.30147                  21338464.5314
        18.0004         29.0004
 00  5  1 19 28 30.0000000  0  8G 4G 5G 6G17G 9G10G24G30
  24268735.6724    1596754.03245   1148178.06845                  24268744.9694
        11.7504          9.5004
  20571467.1094     211979.20046    157015.08147                  20571473.6724
        19.7504         28.5004
  23295238.5234   -1278157.81146   -931360.16446                  23295247.9384
        18.0004         16.5004
  25044907.4924   -1501681.95744  -1022168.41145                  25044929.6604
         7.0004          8.2504
  25188423.5234    1464592.31945   1018934.42445                  25188447.8834
         8.2504         10.0004
  21507114.9144   -1028806.97748   -752251.35047                  21507122.8874
        29.0004         26.7504
  21411309.2974     919398.40648    669596.40647                  21411316.2624
        31.0004         26.5004
  21332894.1564   -1072669.88946   -771959.15247                  21332900.6254
        18.2504         29.2504
 00  5  1 19 28 45.0000000  0  8G 4G 5G 6G17G 9G10G24G30
  24277424.1484    1642409.97546   1183754.05545                  24277431.8054
        12.7504          8.7504
  20573034.0704     220214.32347    163432.03547                  20573040.5634
        22.2504         28.5004
  23288202.7664   -1315132.54346   -960171.59446                  23288211.9344
        17.7504         16.0004
  25035664.9064   -1550246.96445  -1060011.06045                  25035686.1484
         7.5004          9.0004
  25196307.2734    1506021.35744   1051216.55945                  25196331.9964
         7.2504          9.2504
  21501792.2974   -1056777.38348   -774046.42747                  21501800.1174
        29.0004         26.7504
  21416497.7114     946665.00648    690843.08647                  21416504.6884
        30.7504         26.5004
  21327350.5784   -1101801.07746   -794658.76947                  21327357.1884
        18.2504         29.2504
 00  5  1 19 29  0.0000000  0  8G 4G 5G 6G17G 9G10G24G30
  24286107.0704    1688042.42145   1219311.77445                  24286115.8524
        11.2504          9.0004
  20574624.7194     228573.17546    169945.39847                  20574631.1764
        19.5004         28.7504
  23281162.6884   -1352125.47046   -988997.20746                  23281172.0434
        18.0004         16.0004
  25026429.1884   -1598787.85445  -1097834.90845                  25026451.0164
         9.2504          9.7504
  25204183.6484    1547411.07045   1083468.09245                  25204208.8634
         7.7504          8.2504
  21496492.5084   -1084627.61548   -795747.86247                  21496500.3164
        29.2504         26.7504
  21421694.5864     973974.19648    712122.96047                  21421701.5394
        30.7504         26.7504
  21321827.4454   -1130825.95046   -817275.54647                  21321834.0084
        17.7504         29.2504
 00  5  1 19 29 15.0000000  0  8G 4G 5G 6G17G 9G10G24G30
  24294788.6414    1733663.46346   1254860.56845                  24294798.1134
        12.0004          9.0004
  20576241.6724     237069.34447    176565.76047                  20576247.9884
        20.2504         28.5004
  23274122.6024   -1389121.99646  -1017825.61346                  23274131.4304
        18.2504         15.7504
  25017198.8284   -1647290.07044  -1135628.67545                  25017222.1454
         7.2504          8.5004
  25212055.1804    1588773.56645   1115698.46245                  25212079.9734
         8.7504          9.0004
  21491217.9774   -1112344.88548   -817345.69547                  21491225.8674
        29.2504         27.0004
  21426902.0164    1001339.29448    733446.39447                  21426909.0394
        31.0004         26.7504
  21316327.4144   -1159729.07346   -839797.45247                  21316333.9884
        18.5004         29.5004
 00  5  1 19 29 30.0000000  0  8G 4G 5G 6G17G 9G10G24G30
  24303466.9304    1779272.39945   1290399.96045                  24303477.8794
        11.2504          8.7504
  20577883.6254     245698.22347    183289.53647                  20577889.9534
        23.5004         28.5004
  23267081.1884   -1426125.33346  -1046659.32946                  23267089.7234
        18.5004         16.2504
  25007975.8444   -1695756.62544  -1173394.56345                  25007995.3954
         6.5004          7.5004
  25219920.1564    1630104.52145   1147904.19745                  25219943.2974
        11.0004          9.2504
  21485968.0164   -1139933.38048   -838843.17947                  21485975.8834
        29.2504         27.0004
  21432119.2274    1028757.20048    754810.97547                  21432126.2384
        31.2504         26.5004
  21310850.0314   -1188512.25446   -862225.89747                  21310856.6414
        19.0004         29.5004
 00  5  1 19 29 45.0000000  0  8G 4G 5G 6G17G 9G10G24G30
  24312143.7344    1824867.51245   1325928.56845                  24312152.8554
        11.5004          9.5004
  20579550.2034     254456.73147    190114.32347                  20579556.5664
        22.2504         28.5004
  23260037.6254   -1463139.40746  -1075501.41646                  23260046.2544
        18.7504         16.5004
  24998758.4304   -1744191.07744  -1211135.48045                  24998780.5394
         6.7504          6.5004
  25227779.1644    1671397.65046   1180080.50145                  25227800.2194
        12.2504          9.5004
  21480741.7344   -1167398.03848   -860244.16747                  21480749.6254
        29.5004         27.2504
  21437346.2584    1056225.94748    776215.17847                  21437353.2704
        31.5004         26.7504
  21305395.4924   -1217176.74746   -884561.85747                  21305401.9844
        17.7504         29.5004
 00  5  1 19 30  0.0000000  0  8G 4G 5G 6G17G 9G10G24G30
  24320816.0314    1870437.87746   1361437.86445                  24320825.8444
        12.2504          9.5004
  20581240.5084     263339.04447    197035.57747                  20581247.1054
        21.0004         28.5004
  23252990.5864   -1500170.88846  -1104357.07146                  23252999.8954
        18.2504         16.0004
  24989546.2734   -1792601.87044  -1248858.02345                  24989566.7384
         6.7504          7.2504
  25235627.1094    1712639.39446   1212216.88145                  25235648.2934
        12.2504          8.5004
  21475537.2584   -1194748.07848   -881555.84147                  21475545.1134
        29.5004         27.0004
  21442581.6884    1083736.97148    797652.31847                  21442588.7934
        31.2504         26.5004
  21299961.3284   -1245734.05046   -906814.29247                  21299967.9024
        18.0004         29.7504
 00  5  1 19 30 15.0000000  0  8G 4G 5G 6G17G 9G10G24G30
  24329485.4454    1915993.66145   1396935.81245                  24329494.7304
        11.2504          9.2504
  20582956.4064     272354.90546    204060.89847                  20582962.8754
        19.5004         28.7504
  23245943.2664   -1537205.31846  -1133215.00546                  23245952.7034
        18.7504         16.2504
  24980339.8914   -1840980.07345  -1286555.20545                  24980359.5704
         7.5004          7.5004
  25243465.2274    1753834.68245   1244316.95245                  25243488.4024
         8.5004          7.7504
  21470356.0004   -1221974.69548   -902771.35047                  21470363.8794
        29.5004         27.0004
  21447826.8754    1111300.69048    819130.52347                  21447834.0744
        31.2504         26.5004
  21294549.3914   -1274172.30346   -928973.96247                  21294556.0124
        17.7504         29.5004
 00  5  1 19 30 30.0000000  0  7G 4G 5G 6G17G10G24G30
  24338152.0084    1961539.91745   1432426.33945                  24338161.8324
        11.7504          9.2504
  20584697.5554     281504.86946    211190.71547                  20584704.0354
        19.7504         28.5004
  23238896.5314   -1574235.08546  -1162069.32646                  23238905.4184
        18.7504         16.0004
  24971140.6254   -1889323.50545  -1324225.13645                  24971160.2234
         9.0004          8.7504
  21465198.6884   -1249076.39648   -923889.52047                  21465206.4964
        29.5004         27.2504
  21453082.2194    1138917.02648    840649.72547                  21453089.1024
        31.2504         26.5004
  21289161.3204   -1302487.50046   -951037.74347                  21289167.7194
        17.7504         29.5004
 00  5  1 19 30 45.0000000  0  7G 4G 5G 6G17G10G24G30
  24346816.9384    2007072.95345   1467906.60745                  24346827.1134
        11.5004          9.5004
  20586461.7734     290776.75046    218415.53147                  20586468.2774
        19.0004         28.7504
  23231849.9064   -1611266.17646  -1190924.67346                  23231858.9454
        18.2504         15.7504
  24961945.7664   -1937641.96845  -1361875.72945                  24961966.4344
         9.0004          9.7504
  21460063.5314   -1276060.87448   -944916.34147                  21460071.3754
        29.5004         27.0004
  21458345.0944    1166574.68548    862201.12147                  21458352.2344
        30.7504         26.5004
  21283794.1414   -1330692.71146   -973015.81947                  21283800.5744
        18.0004         29.7504
 00  5  1 19 31  0.0000000  0  7G 4G 5G 6G17G10G24G30
  24355477.8204    2052588.66946   1503373.32445                  24355486.1914
        12.2504         10.2504
  20588247.1094     300158.82646    225726.21347                  20588253.3794
        18.5004         28.7504
  23224801.4454   -1648304.93546  -1219785.99246                  23224810.3444
        18.5004         16.2504
  24952754.4694   -1985942.90445  -1399512.58245                  24952774.6644
         9.2504          9.5004
  21454949.6644   -1302935.02348   -965857.20347                  21454957.3914
        29.0004         27.2504
  21463614.1564    1194263.12548    883776.50947                  21463620.9884
        31.0004         26.5004
  21278445.2114   -1358800.60446   -994918.06447                  21278451.8444
        18.7504         29.7504
 00  5  1 19 31 15.0000000  0  7G 4G 5G 6G17G10G24G30
  24364138.2194    2098096.45346   1538833.87845                  24364146.2384
        12.0004          9.5004
  20590054.6024     309656.58546    233127.03647                  20590061.1174
        18.2504         28.7504
  23217753.4384   -1685341.81546  -1248645.85046                  23217762.4184
        19.0004         16.2504
  24943566.1174   -2034220.87545  -1437131.58745                  24943588.5314
         7.5004          9.2504
  21449858.0394   -1329691.12248   -986706.07547                  21449865.8364
        29.2504         27.2504
  21468889.4844    1221984.86748    905377.84647                  21468896.5554
        31.5004         26.7504
  21273116.4614   -1386803.66146  -1016738.62147                  21273123.1524
        17.7504         29.7504
 00  5  1 19 31 30.0000000  0  7G 4G 5G 6G17G10G24G30
  24372797.5784    2143601.35746   1574292.22545                  24372806.2544
        12.2504          9.2504
  20591884.8364     319274.49646    240621.48547                  20591891.2704
        18.0004         28.7504
  23210706.2114   -1722372.47346  -1277500.86146                  23210715.0044
        18.0004         16.2504
  24934384.2504   -2082473.58644  -1474730.80745                  24934408.1174
         7.2504          8.5004
  21444789.5474   -1356325.67448  -1007460.23047                  21444797.3324
        29.0004         27.2504
  21474171.4384    1249741.88648    927006.66947                  21474178.3914
        31.7504         26.5004
  21267808.4224   -1414697.12446  -1038473.77447                  21267815.1134
        18.5004         29.5004
 00  5  1 19 31 45.0000000  0  7G 4G 5G 6G17G10G24G30
  24381457.5394    2189109.74845   1609753.22945                  24381465.8984
        11.7504         10.0004
  20593739.4384     329020.73546    248215.93147                  20593745.8714
        18.0004         29.0004
  23203662.5234   -1759390.02046  -1306345.64746                  23203671.7274
        19.0004         16.2504
  24925208.0164   -2130695.15645  -1512305.79545                  24925229.0474
         8.0004          7.5004
  21439745.8364   -1382830.85248  -1028113.57947                  21439753.7154
        29.2504         27.2504
  21479461.4384    1277542.29948    948669.30547                  21479468.5904
        30.7504         26.2504
  21262522.5164   -1442474.09546  -1060118.16147                  21262529.0554
        18.5004         29.7504
 00  5  1 19 32  0.0000000  0  7G 4G 5G 6G17G10G24G30
  24390116.7814    2234612.29345   1645209.73945                  24390125.6914
        11.7504          9.5004
  20595617.7114     338890.40146    255906.57347                  20595624.2034
        18.2504         29.0004
  23196619.8284   -1796400.65246  -1335185.04046                  23196629.0434
        18.2504         16.2504
  24916036.0554   -2178891.84745  -1549861.54745                  24916052.9574
         8.2504          6.0004
  21434725.6334   -1409212.03648  -1048670.28947                  21434733.6764
        29.2504         27.2504
  21484759.6564    1305382.66448    970363.09147                  21484766.7274
        31.2504         26.5004
  21257257.4304   -1470142.87146  -1081678.21947                  21257264.0274
        18.5004         29.7504
 00  5  1 19 32 15.0000000  0  7G 4G 5G 6G17G10G24G30
  24398773.0164    2280103.15345   1680657.15545                  24398781.7734
        11.5004          9.7504
  20597518.1884     348878.20846    263689.25647                  20597524.6454
        18.2504         29.0004
  23189577.4924   -1833407.65246  -1364021.61546                  23189586.6024
        19.5004         17.0004
  24906868.3364   -2227068.62045  -1587401.72945                  24906887.5824
         8.5004          7.2504
  21429728.6254   -1435472.12448  -1069132.66247                  21429736.6454
        29.0004         27.5004
  21490064.4534    1333260.08948    992085.74047                  21490071.6174
        31.2504         26.2504
  21252012.2344   -1497706.13647  -1103156.07647                  21252019.0664
        21.7504         29.7504
 00  5  1 19 32 30.0000000  0  7G 4G 5G 6G17G10G24G30
  24407427.9614    2325583.86545   1716096.53945                  24407438.0314
        10.7504          9.5004
  20599441.4064     358984.68546    271564.40547                  20599447.9694
        18.5004         29.0004
  23182535.9774   -1870410.96346  -1392855.31946                  23182545.1914
        18.5004         16.5004
  24897705.6724   -2275221.15445  -1624922.97345                  24897724.7774
        10.7504          9.2504
  21424755.2814   -1461606.14348  -1089496.80447                  21424763.1604
        29.0004         27.2504
  21495377.0784    1361177.35248   1013839.42347                  21495383.8874
        31.5004         26.2504
  21246788.0704   -1525159.69247  -1124548.45447                  21246794.7624
        21.0004         29.5004
 00  5  1 19 32 45.0000000  0  7G 4G 5G 6G17G10G24G30
  24416079.9144    2371050.16245   1751524.81245                  24416088.5204
        11.2504          9.0004
  20601387.1414     369209.27546    279531.58747                  20601393.6214
        18.5004         28.7504
  23175494.1174   -1907415.26046  -1421689.78746                  23175503.8594
        18.2504         16.7504
  24888546.7424   -2323350.22045  -1662425.97345                  24888566.4804
         8.2504          8.5004
  21419806.7584   -1487610.78848  -1109760.13047                  21419814.8134
        29.2504         27.2504
  21500697.5234    1389135.91948   1035625.30047                  21500704.5704
        31.7504         26.2504
  21241584.1484   -1552506.62646  -1145857.74547                  21241590.8634
        19.2504         29.2504
 00  5  1 19 33  0.0000000  0  7G 4G 5G 6G17G10G24G30
  24424729.5004    2416504.64645   1786943.87045                  24424739.1954
         9.7504          8.5004
  20603357.1254     379561.73946    287598.41647                  20603363.4414
        18.0004         29.0004
  23168452.7664   -1944417.42446  -1450522.59146                  23168462.8134
        18.0004         16.5004
  24879392.8754   -2371449.05344  -1699905.30645                  24879412.8484
         7.2504          8.2504
  21414884.3524   -1513477.65048  -1129916.09147                  21414892.5124
        29.0004         27.5004
  21506027.3834    1417145.30048   1057450.77147                  21506034.3244
        31.5004         26.2504
  21236401.9454   -1579738.52747  -1167077.40147                  21236408.5314
        21.7504         29.2504
 00  5  1 19 33 15.0000000  0  7G 4G 5G 6G17G10G24G30
  24433375.6334    2461939.71845   1822347.72945                  24433385.2934
        10.7504          9.0004
  20605351.5864     390042.71346    295765.38147                  20605358.0664
        18.2504         29.0004
  23161410.9924   -1981421.05846  -1479356.53546                  23161420.7114
        18.5004         16.7504
  24870245.5474   -2419518.65945  -1737361.89845                  24870266.5314
         8.0004          9.0004
  21409987.7034   -1539209.97648  -1149967.22747                  21409995.7234
        29.5004         27.5004
  21511366.8834    1445203.78448   1079314.50147                  21511373.8594
        31.5004         26.2504
  21231242.6484   -1606851.00647  -1188203.99847                  21231249.3984
        24.5004         29.2504
 00  5  1 19 33 30.0000000  0  7G 4G 5G 6G17G10G24G30
  24442017.7034    2507349.34745   1857731.79045                  24442026.7194
        11.2504          8.7504
  20607370.0084     400648.95746    304029.96047                  20607376.6174
        19.7504         29.0004
  23154368.6724   -2018430.87546  -1508195.31346                  23154378.4264
        19.2504         16.7504
  24861103.2504   -2467562.39545  -1774798.35145                  24861125.1024
         8.7504          9.5004
  21405115.8834   -1564811.81848  -1169916.68147                  21405124.0784
        29.5004         27.5004
  21516715.0474    1473309.74248   1101215.23047                  21516722.0234
        31.5004         26.5004
  21226105.5314   -1633846.51147  -1209239.44747                  21226112.3284
        23.5004         29.2504
 00  5  1 19 33 45.0000000  0  7G 4G 5G 6G17G10G24G30
  24450650.5634    2552726.32945   1893090.46145                  24450659.9184
         9.2504          8.7504
  20609411.3134     411375.69646    312388.42847                  20609417.9224
        19.5004         29.0004
  23147322.7734   -2055454.64546  -1537044.95646                  23147332.2464
        18.0004         16.7504
  24851965.9064   -2515582.86345  -1812216.66445                  24851986.9264
        11.0004          9.5004
  21400268.2814   -1590285.62348  -1189766.36647                  21400276.6174
        29.0004         27.5004
  21522072.1954    1501460.47948   1123150.84547                  21522079.0554
        32.0004         26.2504
  21220989.8284   -1660729.50248  -1230187.22747                  21220996.5314
        28.2504         29.2504
 00  5  1 19 34  0.0000000  0  7G 4G 5G 6G17G10G24G30
  24459279.8594    2598065.30945   1928419.46445                  24459291.0664
        10.7504          8.7504
  20611474.1334     422216.12146    320835.48247                  20611480.6484
        19.2504         29.0004
  23140273.8524   -2092497.94746  -1565909.81746                  23140283.5474
        18.2504         17.0004
  24842831.5164   -2563583.49645  -1849619.60945                  24842850.3284
        10.7504          9.2504
  21395444.2664   -1615636.19248  -1209520.03147                  21395452.3914
        29.0004         27.5004
  21527436.7114    1529651.56448   1145117.90847                  21527443.5824
        32.0004         26.2504
  21215894.5394   -1687506.28747  -1251052.24547                  21215901.2074
        26.2504         29.2504
 00  5  1 19 34 15.0000000  0  7G 4G 5G 6G17G10G24G30
  24467901.7034    2643375.96445   1963726.41645                  24467910.5314
        10.5004          8.5004
  20613560.6954     433180.91746    329379.45347                  20613567.2934
        18.5004         29.0004
  23133222.7504   -2129549.98946  -1594781.48946                  23133231.8714
        19.0004         17.5004
  24833702.1024   -2611554.23945  -1886999.23245                  24833722.2384
        10.2504          8.7504
  21390645.3364   -1640854.21048  -1229170.40647                  21390653.4734
        29.0004         27.5004
  21532810.4384    1557890.25948   1167122.06447                  21532817.2114
        31.7504         26.2504
  21210820.8444   -1714167.33947  -1271827.08647                  21210827.5124
        23.7504         29.2504
 00  5  1 19 34 30.0000000  0  7G 4G 5G 6G17G10G24G30
  24476519.5704    2688666.89745   1999018.01945                  24476527.3674
        10.0004          7.7504
  20615672.0944     444275.97547    338024.92347                  20615678.6564
        22.7504         29.2504
  23126171.9694   -2166601.85546  -1623653.02846                  23126181.6174
        18.7504         17.5004
  24824580.7734   -2659486.45345  -1924348.87345                  24824600.1844
         9.2504          7.7504
  21385872.6334   -1665934.59748  -1248713.53347                  21385880.8404
        29.5004         27.5004
  21538193.8594    1586180.87148   1189166.67647                  21538200.9884
        31.7504         26.2504
  21205771.1334   -1740704.78047  -1292505.60247                  21205777.7304
        25.2504         29.2504
 00  5  1 19 34 45.0000000  0  7G 4G 5G 6G17G10G24G30
  24485135.0234    2733935.98145   2034292.58445                  24485143.6294
        10.0004          8.7504
  20617807.4844     455497.49147    346768.93247                  20617814.1414
        21.7504         29.2504
  23119120.9144   -2203655.98746  -1652526.32246                  23119130.0944
        19.2504         17.2504
  24815465.8204   -2707382.49145  -1961670.25545                  24815485.9804
         7.7504          8.7504
  21381125.5864   -1690881.10548  -1268152.34547                  21381133.7584
        29.0004         27.5004
  21543586.7894    1614520.92448   1211249.81347                  21543593.7074
        31.5004         26.2504
  21200744.0164   -1767121.89047  -1313090.35447                  21200750.7664
        24.7504         29.2504
 00  5  1 19 35  0.0000000  0  7G 4G 5G 6G17G10G24G30
  24493747.4614    2779192.09045   2069557.06645                  24493755.0354
        10.7504          8.2504
  20619968.5164     466853.55846    355617.78747                  20619975.1844
        19.2504         29.2504
  23112070.8984   -2240705.61046  -1681396.12046                  23112080.3244
        18.5004         17.0004
  24806358.8984   -2755237.86145  -1998959.90945                  24806379.9534
         9.0004          9.7504
  21376404.6884   -1715689.18048  -1287483.28347                  21376412.7424
        29.0004         27.5004
  21548990.2424    1642914.87348   1233374.94447                  21548997.1024
        31.7504         26.0004
  21195741.2974   -1793410.85447  -1333575.25647                  21195747.8134
        21.0004         29.2504
 00  5  1 19 35 15.0000000  0  7G 4G 5G 6G17G10G24G30
  24502355.4534    2824425.22745   2104803.59145                  24502364.6454
        10.2504          8.0004
  20622152.9144     478332.43146    364562.33447                  20622159.6644
        18.5004         29.0004
  23105018.7034   -2277761.98246  -1710271.14546                  23105028.3524
        18.5004         17.2504
  24797258.8914   -2803061.97345  -2036225.19345                  24797278.7584
        10.0004         10.7504
  21371707.1724   -1740373.88548  -1306718.09047                  21371715.1804
        29.0004         27.5004
  21554400.3444    1671346.68048   1255529.58047                  21554407.1524
        31.5004         26.2504
  21190760.6954   -1819583.60347  -1353969.59847                  21190767.2584
        25.0004         29.5004
 00  5  1 19 35 30.0000000  0  7G 4G 5G 6G17G10G24G30
  24510960.2974    2869644.42945   2140039.28645                  24510967.7074
        11.5004          9.0004
  20624361.9064     489940.96246    373607.91347                  20624368.5864
        18.7504         29.0004
  23097967.7344   -2314816.15546  -1739144.48946                  23097976.7384
        18.5004         17.0004
  24788165.6094   -2850848.14045  -2073460.95345                  24788185.8164
        10.7504         10.0004
  21367034.4224   -1764929.28748  -1325852.14247                  21367042.5704
        29.5004         27.5004
  21559819.3754    1699823.91148   1277719.61447                  21559826.1724
        31.5004         26.0004
  21185802.8914   -1845637.75547  -1374271.53047                  21185809.5594
        21.0004         29.5004
 00  5  1 19 35 45.0000000  0  7G 4G 5G 6G17G10G24G30
  24519562.4064    2914852.09145   2175266.02645                  24519572.0554
        10.7504          8.7504
  20626595.3914     501678.57346    382754.07247                  20626602.0124
        19.2504         29.2504
  23090917.4844   -2351866.31146  -1768014.70046                  23090926.7934
        18.2504         17.2504
  24779079.0634   -2898595.90545  -2110666.82645                  24779098.0044
        10.5004         10.0004
  21362386.4694   -1789355.14748  -1344885.24947                  21362394.4064
        29.2504         27.7504
  21565247.1024    1728346.93748   1299945.32747                  21565254.0784
        31.7504         26.0004
  21180867.2504   -1871575.08247  -1394482.43047                  21180874.0124
        23.0004         29.5004
 00  5  1 19 36  0.0000000  0  7G 4G 5G 6G17G10G24G30
  24528165.0394    2960055.38346   2210489.26945                  24528175.3324
        12.0004          9.2504
  20628855.2584     513553.00846    392006.84847                  20628861.9844
        18.5004         29.2504
  23083869.1334   -2388905.13146  -1796876.05346                  23083878.6524
        18.5004         17.2504
  24770001.1954   -2946299.16145  -2147838.01045                  24770020.6764
         9.0004          8.2504
  21357764.0004   -1813645.77248  -1363812.98147                  21357771.9144
        29.0004         27.5004
  21570685.0944    1756923.66348   1322212.89047                  21570692.0234
        31.7504         26.0004
  21175955.2344   -1897388.43747  -1414596.72047                  21175961.8324
        22.5004         29.5004
 00  5  1 19 36 15.0000000  0  7G 4G 5G 6G17G10G24G30
  24536764.3284    3005246.27745   2245702.93345                  24536772.8284
        11.5004          9.2504
  20631139.7734     525558.26046    401361.55647                  20631146.3484
        18.7504         29.2504
  23076821.8594   -2425937.28946  -1825732.23846                  23076830.8634
        18.5004         17.2504
  24760930.8134   -2993966.37645  -2184981.13845                  24760949.5664
         9.5004          8.2504
  21353165.6954   -1837810.39548  -1382642.53047                  21353173.6914
        28.7504         27.5004
  21576131.9694    1785546.73848   1344516.56247                  21576139.0984
        31.0004         26.0004
  21171065.0554   -1923085.56847  -1434620.45347                  21171071.6644
        23.2504         29.5004
 00  5  1 19 36 30.0000000  0  7G 4G 5G 6G17G10G24G30
  24545360.3674    3050422.48245   2280905.16545                  24545368.4694
        11.7504          9.0004
  20633448.0634     537688.60246    410813.74147                  20633454.7424
        18.7504         29.2504
  23069775.2664   -2462966.99846  -1854586.49846                  23069784.3634
        19.2504         17.5004
  24751865.2734   -3041599.65445  -2222097.84345                  24751883.4184
         7.7504          8.5004
  21348590.9614   -1861850.68848  -1401375.19847                  21348598.8284
        29.5004         27.7504
  21581587.1954    1814213.57748   1366854.33947                  21581594.2074
        31.2504         25.7504
  21166196.9694   -1948668.15347  -1454554.93147                  21166203.7304
        21.0004         29.5004
 00  5  1 19 36 45.0000000  0  7G 4G 5G 6G17G10G24G30
  24553954.0554    3095583.03145   2316095.15945                  24553961.5004
        11.0004          8.7504
  20635779.9384     549942.03946    420361.84047                  20635786.6414
        18.2504         29.2504
  23062728.7504   -2499996.50946  -1883440.61646                  23062737.6024
        18.7504         17.2504
  24742807.9844   -3089198.98645  -2259187.95145                  24742828.2854
         9.2504          9.0004
  21344039.8674   -1885765.91748  -1420010.41147                  21344047.8754
        29.2504         27.5004
  21587050.8984    1842924.86848   1389226.75847                  21587057.8984
        31.2504         25.7504
  21161350.4454   -1974136.96347  -1474400.74647                  21161357.1954
        21.7504         29.7504
 00  5  1 19 37  0.0000000  0  7G 4G 5G 6G17G10G24G30
  24562545.0634    3140725.32745   2351270.91545                  24562554.7344
        11.7504          9.2504
  20638134.4774     562316.12446    430003.95347                  20638141.0864
        19.2504         29.2504
  23055681.5234   -2537029.61446  -1912297.52346                  23055690.8554
        18.5004         17.2504
  24733756.0634   -3136768.25345  -2296254.69645                  24733776.6214
        10.7504         10.0004
  21339512.8444   -1909555.42948  -1438547.66247                  21339520.7704
        29.0004         27.7504
  21592522.1724    1871676.76948   1411630.81547                  21592529.1024
        31.2504         25.7504
  21156524.5164   -1999496.75847  -1494161.62447                  21156531.2424
        22.0004         29.7504
 00  5  1 19 37 15.0000000  0  7G 4G 5G 6G17G10G24G30
  24571132.6414    3185855.46745   2386437.23545                  24571141.1644
        11.2504          8.7504
  20640513.5474     574818.28147    439745.86147                  20640520.3554
        21.5004         29.2504
  23048635.0474   -2574059.41446  -1941151.87146                  23048644.4264
        19.2504         17.7504
  24724710.1954   -3184300.62245  -2333292.72145                  24724730.3094
         9.7504         10.5004
  21335011.1954   -1933211.68048  -1456981.08047                  21335019.1804
        29.2504         27.7504
  21598002.2034    1900474.17648   1434070.32946                  21598009.1334
        30.7504         25.5004
  21151720.5784   -2024742.16446  -1513833.36047                  21151727.2114
        18.7504         29.7504
 00  5  1 19 37 30.0000000  0  7G 4G 5G 6G17G10G24G30
  24579718.8674    3230973.22845   2421593.88645                  24579726.7114
        11.5004          7.2504
  20642917.0864     587448.58146    449587.62247                  20642923.8014
        19.2504         29.2504
  23041590.0864   -2611081.15346  -1969999.92646                  23041599.2664
        19.2504         17.7504
  24715673.1414   -3231793.82045  -2370300.18545                  24715692.6454
        11.0004         10.2504
  21330535.8594   -1956730.40348  -1475307.32547                  21330543.6804
        29.0004         27.5004
  21603491.8134    1929322.16848   1456549.26646                  21603498.7194
        30.5004         25.5004
  21146938.8834   -2049869.95146  -1533413.44547                  21146945.6684
        19.2504         29.7504
 00  5  1 19 37 45.0000000  0  7G 4G 5G 6G17G10G24G30
  24588300.6484    3276075.19045   2456738.23545                  24588310.6844
         9.5004          7.5004
  20645343.9774     600200.94746    459524.49247                  20645350.6914
        18.7504         29.2504
  23034546.2194   -2648097.19046  -1998843.54446                  23034555.1884
        19.7504         17.5004
  24706641.0084   -3279253.13545  -2407281.29745                  24706660.7814
         9.2504          9.2504
  21326086.4774   -1980111.53348  -1493526.36047                  21326094.4144
        29.2504         27.2504
  21608990.1564    1958218.02548   1479065.49446                  21608997.2974
        30.5004         25.2504
  21142179.6334   -2074880.15046  -1552901.90847                  21142186.3714
        18.0004         29.7504
 00  5  1 19 38  0.0000000  0  7G 4G 5G 6G17G10G24G30
  24596882.0864    3321165.66245   2491873.54145                  24596893.1054
        10.5004          8.2504
  20647794.4924     613078.76346    469559.12247                  20647801.1954
        19.7504         29.2504
  23027503.3754   -2685105.91746  -2027681.47046                  23027512.0744
        19.7504         17.7504
  24697616.3524   -3326676.48545  -2444234.34945                  24697633.3134
         8.7504          8.7504
  21321664.6724   -2003348.40048  -1511632.97847                  21321672.5634
        29.2504         27.5004
  21614498.3134    1987162.83248   1501619.86646                  21614505.4534
        30.5004         25.2504
  21137443.7734   -2099766.55846  -1572293.90947                  21137450.5004
        19.7504         29.5004
 00  5  1 19 38 15.0000000  0  7G 4G 5G 6G17G10G24G30
  24605457.4064    3366233.68045   2526991.53545                  24605466.1644
        10.0004          7.7504
  20650267.2274     626072.77846    479684.29247                  20650273.7544
        18.2504         29.2504
  23020460.3984   -2722118.08846  -2056522.07946                  23020469.2504
        18.7504         17.7504
  24688596.6414   -3374075.19645  -2481168.17845                  24688615.7934
         9.2504          7.7504
  21317268.6724   -2026449.42448  -1529633.74947                  21317276.4924
        29.5004         27.5004
  21620013.6484    2016146.30248   1524204.37146                  21620020.9534
        30.7504         25.5004
  21132729.6804   -2124539.04546  -1591597.13847                  21132736.3714
        19.7504         29.5004
 00  5  1 19 38 30.0000000  0  7G 4G 5G 6G17G10G24G30
  24614030.2814    3411289.49945   2562099.91145                  24614041.1374
         8.5004          8.0004
  20652762.9384     639188.08846    489903.98147                  20652769.4774
        18.7504         29.5004
  23013418.2344   -2759125.08947  -2085358.64546                  23013427.2384
        20.2504         18.2504
  24679583.4454   -3421441.73145  -2518077.01945                  24679602.5164
        10.2504          9.0004
  21312900.0394   -2049406.60748  -1547522.43047                  21312907.9184
        29.2504         27.7504
  21625537.7344    2045175.20348   1546824.26946                  21625544.7814
        30.0004         25.2504
  21128039.0004   -2149189.64246  -1610805.39147                  21128045.7034
        18.5004         29.5004
 00  5  1 19 38 45.0000000  0  7G 4G 5G 6G17G10G24G30
  24622602.7274    3456336.16145   2597201.10845                  24622610.6414
         9.5004          8.2504
  20655282.4224     652427.29246    500220.21047                  20655289.1134
        18.2504         29.5004
  23006377.7424   -2796124.54746  -2114189.35746                  23006386.5824
        19.5004         17.7504
  24670575.4454   -3468775.69745  -2554960.43445                  24670594.0704
         9.7504          8.7504
  21308559.2584   -2072217.56848  -1565297.17947                  21308567.1024
        29.5004         27.5004
  21631070.7664    2074250.48648   1569480.31346                  21631078.0944
        30.0004         25.0004
  21123371.7034   -2173716.19846  -1629916.98547                  21123378.3954
        19.7504         29.5004
 00  5  1 19 39  0.0000000  0  7G 4G 5G 6G17G10G24G30
  24631173.3834    3501373.40745   2632295.01045                  24631180.5594
        10.2504          7.7504
  20657826.2894     665794.02546    510635.81347                  20657832.9924
        19.2504         29.5004
  22999338.7034   -2833114.65146  -2143012.76846                  22999348.0594
        19.5004         18.0004
  24661574.6024   -3516077.04945  -2591818.44345                  24661593.0744
         9.5004         10.0004
  21304246.3054   -2094882.48448  -1582958.12047                  21304254.0664
        29.5004         27.5004
  21636611.9384    2103369.07948   1592170.10046                  21636619.3954
        30.0004         25.0004
  21118728.0784   -2198118.06146  -1648931.42047                  21118734.7344
        18.2504         29.5004
 00  5  1 19 39 15.0000000  0  7G 4G 5G 6G17G10G24G30
  24639741.0864    3546393.41045   2667375.51645                  24639748.9064
        10.0004          7.2504
  20660392.9384     679283.98246    521147.43147                  20660399.7704
        19.2504         29.5004
  22992299.6414   -2870103.16247  -2171834.94346                  22992308.6214
        20.0004         17.7504
  24652577.7344   -3563353.22445  -2628656.77045                  24652597.4614
         9.5004         10.2504
  21299959.6644   -2117408.86448  -1600511.11247                  21299967.4964
        29.7504         27.5004
  21642159.5554    2132523.37348   1614887.71546                  21642166.8484
        29.7504         25.2504
  21114107.6334   -2222398.71946  -1667851.41647                  21114114.2424
        19.0004         29.5004
 00  5  1 19 39 30.0000000  0  7G 4G 5G 6G17G10G24G30
  24648304.8754    3591393.89545   2702440.80045                  24648313.2584
        10.0004          7.5004
  20662983.9454     692899.29346    531756.73447                  20662990.8284
        19.2504         29.5004
  22985261.4224   -2907090.50646  -2200656.20846                  22985270.5084
        19.7504         18.0004
  24643586.1804   -3610603.55345  -2665475.00745                  24643605.6954
         8.7504          9.7504
  21295698.7584   -2139798.99448  -1617957.93347                  21295706.6134
        29.5004         27.7504
  21647714.6484    2161715.17548   1637634.54946                  21647721.9884
        30.2504         25.0004
  21109510.9694   -2246554.87846  -1686674.38747                  21109517.4384
        18.0004         29.5004
 00  5  1 19 39 45.0000000  0  7G 4G 5G 6G17G10G24G30
  24656866.6414    3636386.67745   2737500.07945                  24656875.7974
        11.0004          9.2504
  20665601.2344     706653.04646    542473.90747                  20665607.9844
        19.5004         29.7504
  22978225.3364   -2944064.33447  -2229466.93246                  22978234.1294
        21.2504         18.2504
  24634601.2584   -3657816.27745  -2702263.88045                  24634621.8554
         8.2504          9.0004
  21291466.6094   -2162040.54248  -1635288.98147                  21291474.4884
        29.5004         27.7504
  21653279.2974    2190957.12948   1660420.47546                  21653286.6024
        30.2504         25.0004
  21104940.0864   -2270574.29846  -1705390.81747                  21104946.5434
        18.7504         29.7504
 00  5  1 19 40  0.0000000  0  7G 4G 5G 6G17G10G24G30
  24665424.9064    3681363.01945   2772546.48645                  24665435.1764
        10.7504          7.2504
  20668243.7734     720538.43946    553293.65847                  20668250.5124
        18.5004         30.0004
  22971190.0704   -2981035.91047  -2258275.91346                  22971198.5944
        20.5004         18.0004
  24625623.0554   -3705000.68445  -2739030.74045                  24625641.8794
        10.0004          8.5004
  21287259.9384   -2184144.83548  -1652513.07647                  21287267.6764
        29.5004         27.5004
  21658851.2194    2220237.00148   1683235.94146                  21658858.4884
        30.2504         25.0004
  21100393.1334   -2294469.25746  -1724010.26547                  21100399.6724
        18.2504         29.7504
 00  5  1 19 40 15.0000000  0  7G 4G 5G 6G17G10G24G30
  24673981.5314    3726325.81245   2807582.45545                  24673989.6214
        11.0004          7.7504
  20670912.2344     734561.36747    564220.58247                  20670918.9844
        20.0004         30.0004
  22964155.5234   -3018001.30947  -2287080.07246                  22964164.0704
        20.2504         18.0004
  24616649.8984   -3752150.47645  -2775770.69945                  24616667.9614
        10.0004          8.7504
  21283079.9224   -2206111.17448  -1669629.67347                  21283087.6954
        29.5004         27.2504
  21664430.8524    2249559.50748   1706084.63146                  21664438.0164
        29.7504         25.0004
  21095870.3204   -2318237.17146  -1742530.71047                  21095876.7774
        18.0004         29.7504
 00  5  1 19 40 30.0000000  0  7G 4G 5G 6G17G10G24G30
  24682536.2664    3771278.24345   2842610.30045                  24682545.0594
        11.2504          8.7504
  20673607.1414     748723.27446    575255.79847                  20673613.8674
        18.5004         29.7504
  22957123.5314   -3054954.83647  -2315874.98446                  22957132.3014
        20.5004         18.0004
  24607686.2974   -3799258.57745  -2812478.12045                  24607704.3364
         9.7504          9.0004
  21278926.2504   -2227938.70048  -1686638.10747                  21278933.9884
        29.5004         27.7504
  21670019.4844    2278927.48848   1728968.75146                  21670026.7074
        29.5004         25.0004
  21091372.3364   -2341874.08446  -1760949.08247                  21091378.7934
        18.0004         29.7504
 00  5  1 19 40 45.0000000  0  7G 4G 5G 6G17G10G24G30
  24691087.1094    3816216.43845   2877627.03445                  24691096.1604
        11.5004          8.5004
  20676328.2734     763022.55846    586398.06547                  20676335.0944
        18.7504         30.2504
  22950093.8134   -3091897.28847  -2344661.27346                  22950102.4884
        20.5004         18.0004
  24598728.4224   -3846324.52445  -2849152.68745                  24598746.0744
         8.5004          8.7504
  21274798.1254   -2249631.72148  -1703541.72447                  21274805.9224
        29.5004         27.5004
  21675615.7344    2308336.22048   1751884.62546                  21675623.1914
        29.2504         25.0004
  21086899.1564   -2365380.76446  -1779265.97047                  21086905.6374
        18.7504         29.7504
 00  5  1 19 41  0.0000000  0  7G 4G 5G 6G17G10G24G30
  24699635.6644    3861139.78945   2912632.20345                  24699645.3244
        10.2504          8.2504
  20679076.4924     777465.00346    597651.88047                  20679083.4924
        18.5004         30.2504
  22943065.8984   -3128827.34947  -2373437.88846                  22943073.9304
        21.0004         18.2504
  24589781.6254   -3893340.92045  -2885788.58345                  24589801.5744
         8.5004          9.0004
  21270696.3914   -2271186.16848  -1720337.36647                  21270704.4104
        29.2504         27.7504
  21681220.1564    2337787.11948   1774833.36246                  21681227.5664
        29.7504         24.7504
  21082451.6094   -2388753.37046  -1797478.39047                  21082458.1254
        17.7504         29.7504
 00  5  1 19 41 15.0000000  0  7G 4G 5G 6G17G10G24G30
  24708181.1644    3906047.86545   2947625.45945                  24708191.7274
        10.0004          7.7504
  20681851.8674     792048.98546    609015.98547                  20681858.8324
        18.0004         30.0004
  22936040.4694   -3165745.45047  -2402205.20146                  22936048.8874
        20.2504         18.2504
  24580844.4924   -3940306.40045  -2922384.85345                  24580863.9734
         9.2504          9.2504
  21266621.4844   -2292600.03648  -1737023.46447                  21266629.4224
        29.0004         27.5004
  21686832.9534    2367283.35648   1797817.41846                  21686840.0944
        30.0004         25.0004
  21078029.6024   -2411989.90046  -1815584.77147                  21078036.1294
        18.0004         29.7504
 00  5  1 19 41 30.0000000  0  7G 4G 5G 6G17G10G24G30
  24716723.4304    3950935.24945   2982602.61845                  24716730.7114
        10.5004          8.0004
  20684652.2034     806764.60346    620482.66247                  20684659.1454
        19.2504         30.2504
  22929016.7114   -3202657.55247  -2430967.82846                  22929025.3404
        20.7504         18.5004
  24571915.8284   -3987227.21345  -2958946.30345                  24571934.3134
        10.0004          9.7504
  21262571.9454   -2313880.88248  -1753605.90847                  21262579.8484
        29.2504         27.5004
  21692454.0704    2396821.13348   1820833.85146                  21692461.4344
        30.0004         25.0004
  21073632.3524   -2435097.46146  -1833590.66347                  21073638.8444
        18.0004         30.0004
 00  5  1 19 41 45.0000000  0  7G 4G 5G 6G17G10G24G30
  24725261.9614    3995807.17045   3017567.76845                  24725271.7504
         8.0004          7.2504
  20687477.4304     821611.43946    632051.58847                  20687484.2894
        18.7504         30.2504
  22921994.6954   -3239556.57647  -2459720.26546                  22922003.6524
        20.2504         18.5004
  24562996.8054   -4034096.43445  -2995467.54245                  24563016.0514
        10.0004         10.0004
  21258549.0474   -2335021.64648  -1770079.19747                  21258556.9264
        29.5004         27.5004
  21698083.4064    2426404.04648   1843885.45146                  21698090.9454
        29.7504         25.2504
  21069260.4064   -2458072.89046  -1851493.59047                  21069266.8404
        18.0004         30.0004
 00  5  1 19 42  0.0000000  0  7G 4G 5G 6G17G10G24G30
  24733798.3444    4040660.77045   3052518.51145                  24733810.4654
         9.7504          7.7504
  20690325.8054     836580.16046    643715.48847                  20690332.7704
        18.2504         30.5004
  22914973.9064   -3276450.26947  -2488468.55146                  22914982.7344
        20.2504         18.2504
  24554086.6174   -4080918.89545  -3031952.39245                  24554104.6094
        10.2504          8.7504
  21254551.9064   -2356026.98348  -1786446.96247                  21254559.9264
        29.2504         27.7504
  21703719.5864    2456022.42548   1866964.68746                  21703726.8204
        29.7504         25.0004
  21064911.9774   -2480924.30546  -1869299.88547                  21064918.3524
        18.0004         29.7504
 00  5  1 19 42 15.0000000  0  7G 4G 5G 6G17G10G24G30
  24742330.3754    4085504.28745   3087461.52145                  24742338.4184
         9.7504          8.2504
  20693198.8134     851677.01947    655479.23747                  20693205.8244
        20.5004         30.2504
  22907955.7894   -3313330.01347  -2517205.97746                  22907964.5124
        20.0004         18.5004
  24545187.1644   -4127683.23245  -3068391.97045                  24545205.8134
         9.5004          9.0004
  21250581.9064   -2376887.72748  -1802702.05647                  21250589.6094
        29.7504         27.5004
  21709364.1564    2485683.86548   1890077.47546                  21709371.5784
        30.0004         25.0004
  21060589.2034   -2503641.13946  -1887001.30947                  21060595.5784
        18.0004         30.0004
 00  5  1 19 42 30.0000000  0  7G 4G 5G 6G17G10G24G30
  24750860.4064    4130332.08745   3122392.21045                  24750866.8984
         7.7504          7.5004
  20696094.7504     866896.02346    667338.16247                  20696101.7384
        18.5004         30.5004
  22900940.0704   -3350199.37547  -2545935.29446                  22900949.0274
        20.0004         18.5004
  24536299.0084   -4174391.81345  -3104788.04645                  24536317.9024
         8.7504          9.2504
  21246638.8524   -2397609.34348  -1818848.74047                  21246646.5664
        29.5004         27.7504
  21715015.7664    2515383.42148   1913219.96746                  21715022.7894
        29.5004         24.7504
  21056291.5394   -2526225.15546  -1904599.24647                  21056297.9384
        18.2504         30.0004
 00  5  1 19 42 45.0000000  0  7G 4G 5G 6G17G10G24G30
  24759388.3204    4175141.15845   3157308.30145                  24759397.3014
         8.7504          7.2504
  20699013.9064     882235.73446    679291.12547                  20699020.9534
        19.0004         30.5004
  22893925.6724   -3387060.17747  -2574657.96846                  22893934.6524
        20.7504         18.7504
  24527419.7814   -4221050.13645  -3141144.98045                  24527439.0394
         8.5004          9.0004
  21242721.9534   -2418193.05148  -1834887.97547                  21242729.6684
        29.5004         27.7504
  21720674.0864    2545118.34048   1936390.00246                  21720681.3674
        29.7504         24.7504
  21052018.8054   -2548678.23746  -1922095.16947                  21052025.1684
        18.2504         30.2504
 00  5  1 19 43  0.0000000  0  7G 4G 5G 6G17G10G24G30
  24767912.7114    4219933.88045   3192211.72945                  24767923.0744
        10.2504          8.7504
  20701956.9144     897701.22646    691342.13647                  20701963.9494
        19.2504         30.2504
  22886913.2114   -3423910.80147  -2603372.68346                  22886921.8404
        20.0004         18.7504
  24518550.2734   -4267658.21745  -3177462.75545                  24518569.2274
        10.2504          9.7504
  21238832.4064   -2438632.52648  -1850814.79247                  21238840.1214
        29.7504         27.7504
  21726340.4694    2574894.90348   1959592.51246                  21726347.5984
        30.0004         25.0004
  21047771.5944   -2570998.28346  -1939487.39047                  21047777.8284
        18.0004         30.0004
 00  5  1 19 43 15.0000000  0  7G 4G 5G 6G17G10G24G30
  24776434.6024    4264724.49545   3227113.47445                  24776445.6564
         9.2504          7.7504
  20704925.9774     913302.81346    703499.18547                  20704933.0474
        18.0004         30.5004
  22879904.6724   -3460740.46247  -2632071.07246                  22879913.7464
        20.0004         18.7504
  24509691.7664   -4314208.08845  -3213735.15745                  24509711.1524
        10.2504         10.0004
  21234973.3984   -2458911.42948  -1866616.49747                  21234981.1484
        29.7504         28.0004
  21732017.0474    2604725.56248   1982837.16346                  21732024.4804
        30.0004         25.0004
  21043551.1564   -2593175.74646  -1956768.52447                  21043557.6484
        18.2504         30.2504
 00  5  1 19 43 30.0000000  0  7G 4G 5G 6G17G10G24G30
  24784956.1564    4309501.03245   3262004.27145                  24784965.9804
         8.2504          7.5004
  20707917.9614     929026.73946    715751.55647                  20707925.0084
        18.2504         30.5004
  22872897.7424   -3497561.30747  -2660762.59946                  22872906.7344
        20.5004         19.0004
  24500842.1334   -4360717.44745  -3249976.00045                  24500860.1724
        10.7504          9.5004
  21231142.2504   -2479043.80948  -1882304.04147                  21231150.0124
        29.7504         28.0004
  21737701.1804    2634596.17748   2006112.94446                  21737708.1804
        30.2504         25.0004
  21039355.1884   -2615225.78346  -1973950.36647                  21039361.7384
        17.7504         30.0004
 00  5  1 19 43 45.0000000  0  7G 4G 5G 6G17G10G24G30
  24793473.9224    4354256.09145   3296878.28945                  24793481.9184
        11.0004          8.2504
  20710932.7034     944868.42646    728095.68647                  20710939.6454
        18.0004         30.5004
  22865891.2424   -3534381.24947  -2689453.41246                  22865900.1414
        20.7504         19.0004
  24491997.7424   -4407192.06745  -3286189.83045                  24492016.4844
        10.0004          9.5004
  21227337.3134   -2499038.58648  -1897884.35247                  21227345.1214
        30.0004         28.0004
  21743390.9694    2664496.03548   2029411.51946                  21743398.3444
        30.2504         25.0004
  21035181.8984   -2637156.93346  -1991039.57147                  21035188.5904
        18.2504         30.0004
 00  5  1 19 44  0.0000000  0  7G 4G 5G 6G17G10G24G30
  24801985.7894    4398992.75045   3331738.01645                  24801993.8324
         9.7504          9.2504
  20713970.8914     960833.12046    740535.66947                  20713977.8674
        18.2504         30.5004
  22858885.5234   -3571196.13647  -2718140.31046                  22858894.2584
        21.2504         19.0004
  24483159.4774   -4453631.77445  -3322376.43145                  24483177.8554
         8.2504          9.2504
  21223559.3204   -2518891.84348  -1913354.38847                  21223567.0234
        30.2504         27.7504
  21749086.9224    2694427.63948   2052734.82446                  21749094.1214
        30.0004         25.0004
  21031032.0084   -2658964.10546  -2008032.16947                  21031038.7234
        18.2504         30.0004
 00  5  1 19 44 15.0000000  0  7G 4G 5G 6G17G10G24G30
  24810493.9064    4443706.61945   3366579.95545                  24810505.3954
         8.5004          8.2504
  20717032.1094     976920.92846    753071.58447                  20717039.1684
        18.5004         30.5004
  22851879.9454   -3608009.98747  -2746826.37846                  22851888.7034
        21.2504         18.7504
  24474328.5004   -4500043.71745  -3358541.36045                  24474345.9654
         9.7504          9.7504
  21219807.1174   -2538610.76548  -1928719.75347                  21219814.9614
        30.0004         28.0004
  21754788.0004    2724387.24348   2076079.96346                  21754795.1994
        30.0004         24.7504
  21026905.0704   -2680650.37346  -2024930.55347                  21026911.7384
        19.2504         29.7504
 00  5  1 19 44 30.0000000  0  7G 4G 5G 6G17G10G24G30
  24818999.6094    4488400.42345   3401406.19845                  24819008.7774
         9.7504          8.2504
  20720118.2114     993138.02146    765708.24347                  20720125.3404
        18.2504         30.5004
  22844876.1254   -3644814.53347  -2775505.20546                  22844885.0474
        20.7504         19.5004
  24465502.2734   -4546425.43645  -3394682.73445                  24465520.7814
         9.5004          9.2504
  21216081.1174   -2558190.60248  -1943976.74047                  21216089.0434
        29.7504         27.7504
  21760495.9384    2754382.87148   2099453.16046                  21760503.4064
        30.0004         24.7504
  21022802.7664   -2702208.72246  -2041729.26447                  21022809.5634
        18.7504         30.0004
 00  5  1 19 44 45.0000000  0  7G 4G 5G 6G17G10G24G30
  24827502.2344    4533079.89045   3436221.38045                  24827512.3404
        10.5004          8.0004
  20723229.5554    1009487.85246    778448.32947                  20723236.6374
        18.2504         30.7504
  22837875.2344   -3681605.65347  -2804173.56646                  22837884.3444
        21.2504         19.2504
  24456681.5944   -4592776.16145  -3430800.04545                  24456700.1134
        10.7504          9.7504
  21212383.0864   -2577624.26648  -1959119.82147                  21212390.8954
        29.7504         28.0004
  21766212.0634    2784421.21348   2122859.63946                  21766219.4144
        30.2504         25.0004
  21018725.4614   -2723635.70146  -2058425.61047                  21018732.1294
        18.5004         30.0004
 00  5  1 19 45  0.0000000  0  7G 4G 5G 6G17G10G24G30
  24836001.7424    4577745.42245   3471025.66945                  24836010.8634
         9.5004          8.0004
  20726365.1804    1025966.15246    791288.52347                  20726372.3094
        18.0004         30.7504
  22830876.0864   -3718386.34047  -2832833.80546                  22830884.8554
        21.2504         19.0004
  24447866.3834   -4639101.05445  -3466897.15845                  24447884.6334
        11.2504          9.5004
  21208712.9454   -2596910.66748  -1974148.16147                  21208720.7774
        29.7504         28.2504
  21771936.0864    2814500.95948   2146298.38646                  21771943.3324
        30.5004         24.7504
  21014672.3364   -2744935.17846  -2075022.60247                  21014679.0164
        18.5004         29.7504
 00  5  1 19 45 15.0000000  0  7G 4G 5G 6G17G10G24G30
  24844498.3204    4622400.10245   3505821.52045                  24844507.6294
         9.2504          6.7504
  20729525.1174    1042571.52546    804227.73547                  20729532.1994
        18.0004         30.5004
  22823879.3444   -3755155.15647  -2861484.78546                  22823887.9264
        21.5004         19.2504
  24439057.6644   -4685393.22145  -3502968.82545                  24439076.0664
        10.0004          9.7504
  21205071.4844   -2616045.95148  -1989058.73847                  21205079.3874
        30.0004         28.0004
  21777668.4454    2844623.84248   2169770.75046                  21777675.7274
        30.0004         24.5004
  21010644.2584   -2766102.67746  -2091516.75747                  21010650.7974
        18.0004         30.0004
 00  5  1 19 45 30.0000000  0  7G 4G 5G 6G17G10G24G30
  24852993.8524    4667040.85645   3540606.45545                  24853002.5984
         9.7504          7.7504
  20732708.1484    1059297.80846    817261.16047                  20732715.1604
        18.0004         30.7504
  22816884.0474   -3791915.31447  -2890129.02146                  22816892.6294
        21.7504         19.2504
  24430252.0704   -4731653.41245  -3539015.53745                  24430270.6724
         8.2504          9.5004
  21201457.5944   -2635037.70448  -2003857.47647                  21201465.4384
        30.0004         28.2504
  21783407.6414    2874784.63048   2193272.63846                  21783415.1804
        29.7504         25.0004
  21006641.2344   -2787138.93246  -2107908.63947                  21006647.7734
        18.0004         30.0004
 00  5  1 19 45 45.0000000  0  6G 5G 6G17G10G24G30
  20735913.9694    1076144.63046    830388.51347                  20735921.0044
        18.0004         30.7504
  22809890.4144   -3828667.64547  -2918767.15346                  22809899.3014
        21.5004         19.5004
  24421457.1254   -4777878.21545  -3575034.62145                  24421476.1604
         9.0004          9.5004
  21197870.0554   -2653890.01748  -2018547.56147                  21197877.7584
        30.2504         28.2504
  21789154.3834    2904982.85548   2216803.70246                  21789161.8754
        29.7504         24.5004
  21002664.1024   -2808038.99846  -2124194.40447                  21002670.6524
        18.0004         30.0004
 00  5  1 19 46  0.0000000  0  6G 5G 6G17G10G24G30
  20739144.0634    1093119.25146    843615.45147                  20739150.9064
        18.0004         30.7504
  22802899.4144   -3865403.80947  -2947392.69246                  22802908.4414
        21.7504         19.5004
  24412669.4304   -4824058.08845  -3611018.74345                  24412687.6804
        10.0004          9.7504
  21194310.7664   -2672592.96948  -2033121.26447                  21194318.4344
        30.5004         28.5004
  21794909.9384    2935228.88748   2240372.02046                  21794917.4184
        29.2504         24.5004
  20998715.0474   -2828790.72846  -2140364.58047                  20998721.5514
        18.0004         30.0004
 00  5  1 19 46 15.0000000  0  6G 5G 6G17G10G24G30
  20742397.4924    1110215.60146    856937.24147                  20742404.5164
        17.7504         30.7504
  22795910.6024   -3902128.36047  -2976009.17446                  22795919.4654
        22.0004         19.5004
  24403889.4144   -4870196.63045  -3646970.72745                  24403906.7854
        11.5004         10.2504
  21190780.0314   -2691148.39148  -2047580.00347                  21190787.7234
        30.7504         28.5004
  21800673.6254    2965517.79448   2263973.74646                  21800681.0124
        29.5004         24.5004
  20994793.4844   -2849399.78746  -2156423.58647                  20994799.9774
        18.0004         30.2504
 00  5  1 19 46 30.0000000  0  6G 5G 6G17G10G24G30
  20745673.2194    1127429.42446    870350.57047                  20745680.3714
        18.0004         30.7504
  22788923.5784   -3938845.89947  -3004620.20146                  22788932.7114
        21.2504         19.7504
  24395117.3594   -4916293.89245  -3682890.51345                  24395134.8484
        10.7504         10.5004
  21187276.8444   -2709557.20948  -2061924.51047                  21187284.5474
        30.7504         28.5004
  21806445.2194    2995846.83748   2287606.73846                  21806452.6524
        29.5004         24.5004
  20990898.1174   -2869869.53246  -2172374.03447                  20990904.5984
        18.0004         30.2504
 00  5  1 19 46 45.0000000  0  6G 5G 6G17G10G24G30
  20748971.7034    1144762.49846    883856.81947                  20748978.8914
        18.0004         31.0004
  22781937.9924   -3975555.87847  -3033225.33846                  22781946.4924
        21.7504         19.5004
  24386353.2194   -4962344.94845  -3718774.27345                  24386371.6334
        10.2504         10.2504
  21183802.3284   -2727815.99748  -2076152.11147                  21183810.1724
        30.2504         28.5004
  21812224.8754    3026219.07448   2311273.39746                  21812232.0514
        29.5004         24.2504
  20987029.2894   -2890200.45346  -2188216.31147                  20987035.8164
        18.0004         30.2504
 00  5  1 19 47  0.0000000  0  6G 5G 6G17G10G24G30
  20752292.6024    1162214.07446    897455.41047                  20752299.7544
        17.7504         31.0004
  22774952.9384   -4012263.48047  -3061828.62146                  22774961.7774
        21.2504         19.7504
  24377598.5704   -5008351.01945  -3754622.94945                  24377617.1254
         9.5004         10.2504
  21180355.4064   -2745929.08448  -2090266.18247                  21180363.0274
        30.2504         28.2504
  21818011.3524    3056626.63648   2334967.58146                  21818018.8674
        29.0004         24.2504
  20983185.8754   -2910397.06446  -2203953.92647                  20983192.6024
        18.2504         30.2504
 00  5  1 19 47 15.0000000  0  6G 5G 6G17G10G24G30
  20755638.0234    1179793.80246    911153.85947                  20755645.2344
        18.0004         30.7504
  22767968.8984   -4048963.65947  -3090426.10746                  22767978.0434
        21.5004         19.7504
  24368855.0084   -5054300.01845  -3790427.14545                  24368873.8444
        10.2504         10.5004
  21176937.1564   -2763891.97148  -2104263.21047                  21176944.7774
        30.5004         28.2504
  21823804.8284    3087073.56048   2358692.44146                  21823812.2274
        29.0004         24.0004
  20979369.6024   -2930451.67946  -2219580.89647                  20979376.3164
        17.7504         30.5004
 00  5  1 19 47 30.0000000  0  6G 5G 6G17G10G24G30
  20759008.4924    1197505.79146    924955.36547                  20759015.7854
        18.2504         31.0004
  22760986.9224   -4085654.88547  -3119016.63246                  22760996.1724
        21.5004         19.7504
  24360122.6564   -5100189.03145  -3826184.66145                  24360141.4224
        10.5004         10.5004
  21173547.5234   -2781705.41448  -2118143.78947                  21173555.0274
        30.5004         28.2504
  21829606.4534    3117560.72048   2382448.65246                  21829613.7584
        29.0004         23.7504
  20975580.8834   -2950361.92646  -2235095.37247                  20975587.6334
        18.0004         30.2504
 00  5  1 19 47 45.0000000  0  6G 5G 6G17G10G24G30
  20762404.2664    1215350.17646    938860.04047                  20762411.4654
        18.0004         30.7504
  22754005.4844   -4122342.67247  -3147604.46946                  22754013.9844
        22.0004         19.7504
  24351399.8594   -5146027.23046  -3861902.57045                  24351417.7704
        12.0004          9.5004
  21170184.2974   -2799378.00148  -2131914.60747                  21170191.9654
        30.5004         28.2504
  21835414.5554    3148081.59748   2406231.13046                  21835421.9414
        29.0004         24.0004
  20971818.0314   -2970136.08646  -2250503.80747                  20971824.6884
        17.7504         30.2504
 00  5  1 19 48  0.0000000  0  6G 5G 6G17G10G24G30
  20765826.1804    1233333.05746    952872.63247                  20765833.3914
        17.7504         30.7504
  22747025.0554   -4159024.11647  -3176187.37346                  22747033.7894
        21.7504         19.5004
  24342686.5944   -5191812.61945  -3897579.36745                  24342703.8714
         9.7504          9.2504
  21166849.3524   -2816902.99648  -2145570.42147                  21166856.7734
        30.7504         28.2504
  21841229.4144    3178639.40648   2430042.39046                  21841236.6374
        28.7504         23.7504
  20968080.2504   -2989777.66046  -2265808.92847                  20968086.8484
        18.0004         30.0004
 00  5  1 19 48 15.0000000  0  6G 5G 6G17G10G24G30
  20769274.6724    1251454.97746    966993.56747                  20769282.0124
        17.7504         31.0004
  22740046.4694   -4195695.92147  -3204762.75446                  22740055.0984
        21.7504         19.5004
  24333983.2274   -5237546.57145  -3933215.99545                  24334001.9224
         9.2504         10.5004
  21163543.2194   -2834277.50048  -2159108.97247                  21163550.5594
        30.7504         28.0004
  21847051.5704    3209234.51848   2453882.71046                  21847058.8284
        28.7504         23.7504
  20964366.7194   -3009291.64546  -2281014.62647                  20964373.3284
        18.5004         30.0004
 00  5  1 19 48 30.0000000  0  6G 5G 6G17G10G24G30
  20772749.2034    1269713.35346    981220.83247                  20772756.4844
        18.0004         30.7504
  22733069.6254   -4232361.28347  -3233333.12646                  22733078.2424
        21.7504         19.5004
  24325289.6884   -5283234.63745  -3968816.92445                  24325308.8164
         9.7504         10.5004
  21160264.8364   -2851504.30448  -2172532.42747                  21160272.3054
        31.2504         28.2504
  21852879.7344    3239862.64948   2477748.76646                  21852887.0984
        28.5004         23.5004
  20960677.0004   -3028682.11746  -2296124.08447                  20960683.6094
        18.2504         30.2504
 00  5  1 19 48 45.0000000  0  6G 5G 6G17G10G24G30
  20776249.3284    1288106.95846    995553.46847                  20776256.6684
        18.7504         30.7504
  22726093.4064   -4269020.67447  -3261898.83746                  22726102.0824
        22.0004         19.5004
  24316603.4844   -5328879.95245  -4004384.47145                  24316622.2154
        11.2504         11.0004
  21157014.4384   -2868586.90148  -2185843.51947                  21157021.8714
        30.7504         28.2504
  21858714.6254    3270523.36348   2501640.21446                  21858721.9774
        28.5004         23.5004
  20957010.3594   -3047950.88846  -2311138.70947                  20957017.0514
        17.7504         30.0004
 00  5  1 19 49  0.0000000  0  6G 5G 6G17G10G24G30
  20779777.0314    1306644.13546   1009997.98147                  20779784.3484
        19.2504         30.7504
  22719120.1954   -4305665.32747  -3290453.07446                  22719128.6254
        22.2504         19.5004
  24307926.9694   -5374475.38145  -4039913.23945                  24307944.9144
        11.2504         11.5004
  21153792.2344   -2885518.44748  -2199036.90947                  21153799.4804
        31.2504         28.2504
  21864556.4844    3301223.12948   2525562.08546                  21864563.6604
        28.7504         23.7504
  20953368.8444   -3067087.36546  -2326050.24947                  20953375.2424
        18.2504         30.0004
 00  5  1 19 49 15.0000000  0  6G 5G 6G17G10G24G30
  20783330.0784    1325315.88546   1024547.35547                  20783337.3484
        18.5004         30.7504
  22712148.2734   -4342301.71147  -3319000.86346                  22712156.6094
        22.0004         19.2504
  24299258.9774   -5420028.58145  -4075409.07545                  24299277.2504
        11.7504         10.5004
  21150597.9144   -2902304.65248  -2212117.04247                  21150605.1134
        30.7504         28.0004
  21870405.0784    3331957.73748   2549511.10746                  21870412.4064
        28.7504         23.5004
  20949751.7504   -3086095.58146  -2340861.84547                  20949758.0784
        19.0004         29.7504
 00  5  1 19 49 30.0000000  0  6G 5G 6G17G10G24G30
  20786907.8834    1344117.30746   1039197.76747                  20786915.2464
        19.7504         30.7504
  22705178.6174   -4378928.11647  -3347540.88046                  22705186.9304
        22.0004         19.5004
  24290596.1024   -5465544.29845  -4110875.71345                  24290613.3554
         9.7504          9.5004
  21147431.0634   -2918946.76448  -2225084.89947                  21147438.4494
        31.0004         28.0004
  21876260.3524    3362727.46548   2573487.49346                  21876267.8324
        28.7504         23.2504
  20946158.4384   -3104976.77546  -2355574.46147                  20946164.8134
        18.0004         29.7504
 00  5  1 19 49 45.0000000  0  6G 5G 6G17G10G24G30
  20790511.4694    1363053.62847   1053953.30247                  20790518.8324
        20.0004         30.7504
  22698212.2664   -4415536.12547  -3376066.56046                  22698220.6484
        22.2504         19.2504
  24281942.1414   -5511023.31645  -4146313.72745                  24281959.3244
        11.0004          9.7504
  21144292.7194   -2935439.97548  -2237936.72647                  21144300.0704
        30.5004         28.0004
  21882123.5554    3393538.39348   2597495.99046                  21882131.2114
        28.7504         23.2504
  20942590.3444   -3123728.60746  -2370186.27747                  20942596.7424
        17.7504         30.0004
 00  5  1 19 50  0.0000000  0  6G 5G 6G17G10G24G30
  20794140.6024    1382124.86747   1068813.96247                  20794147.9414
        20.2504         30.7504
  22691250.2814   -4452120.89347  -3404574.13246                  22691258.5704
        22.2504         19.2504
  24273295.6884   -5556462.17645  -4181720.47545                  24273313.3754
        11.7504         10.7504
  21141183.4924   -2951776.75248  -2250666.66147                  21141190.8094
        30.2504         28.0004
  21887995.1484    3424394.91348   2621540.00946                  21888002.6764
        28.7504         23.5004
  20939047.0704   -3142347.50846  -2384694.50847                  20939053.6564
        18.0004         30.0004
 00  5  1 19 50 15.0000000  0  6G 5G 6G17G10G24G30
  20797793.6174    1401321.59047   1083772.40747                  20797801.0164
        21.5004         30.7504
  22684292.1094   -4488685.67347  -3433066.12346                  22684300.5744
        21.7504         19.5004
  24264656.1564   -5601864.30046  -4217098.55346                  24264674.4064
        13.5004         12.5004
  21138104.6174   -2967958.36248  -2263275.68147                  21138111.9224
        30.7504         28.2504
  21893875.1174    3455293.99348   2645617.19246                  21893882.6454
        28.5004         23.2504
  20935529.5084   -3160833.09346  -2399098.86047                  20935536.0354
        19.0004         29.7504
 00  5  1 19 50 30.0000000  0  6G 5G 6G17G10G24G30
  20801468.4064    1420633.55747   1098820.64847                  20801475.8984
        27.0004         30.5004
  22677336.2114   -4525240.17047  -3461550.09946                  22677344.9574
        21.7504         19.5004
  24256022.0234   -5647237.46146  -4252454.11046                  24256039.7934
        12.7504         12.2504
  21135052.6414   -2983994.96948  -2275771.71447                  21135060.0394
        30.5004         28.2504
  21899761.1484    3486224.63548   2669718.97646                  21899768.3134
        28.5004         23.2504
  20932037.0164   -3179186.81246  -2413400.45747                  20932043.6374
        19.7504         29.7504
 00  5  1 19 50 45.0000000  0  6G 5G 6G17G10G24G30
  20805164.0554    1440053.76947   1113953.23747                  20805171.4884
        26.5004         30.2504
  22670380.1724   -4561793.76147  -3490033.38246                  22670388.7074
        22.0004         19.5004
  24247391.5634   -5692586.09545  -4287790.50745                  24247409.3204
        10.7504         11.2504
  21132026.5864   -2999897.26248  -2288163.08747                  21132033.9024
        30.7504         28.2504
  21905651.6644    3517179.79148   2693839.84746                  21905659.1684
        28.2504         23.2504
  20928568.2664   -3197414.24947  -2427603.64947                  20928574.9104
        21.5004         29.5004
 00  5  1 19 51  0.0000000  0  6G 5G 6G17G10G24G30
  20808883.9454    1459602.16748   1129185.71447                  20808891.4614
        28.5004         30.2504
  22663428.3524   -4598327.54547  -3518501.22346                  22663437.0744
        22.2504         19.5004
  24238769.8594   -5737886.53845  -4323089.39545                  24238787.3714
        10.2504         10.5004
  21129029.3134   -3015647.98348  -2300436.34747                  21129036.7114
        30.7504         28.0004
  21911550.7504    3548179.50948   2717995.45946                  21911558.0664
        29.0004         23.0004
  20925127.6484   -3215494.74446  -2441692.34947                  20925134.3164
        19.2504         29.7504
 00  5  1 19 51 15.0000000  0  6G 5G 6G17G10G24G30
  20812630.3364    1479289.32548   1144526.31247                  20812637.7934
        31.2504         30.2504
  22656481.5864   -4634831.45747  -3546945.77446                  22656490.0634
        22.7504         19.7504
  24230162.7344   -5783127.14346  -4358341.63745                  24230179.0984
        12.2504         10.7504
  21126062.9454   -3031236.25248  -2312583.03147                  21126070.2384
        31.0004         28.0004
  21917460.7504    3579235.44548   2742194.86846                  21917467.8324
        28.7504         23.2504
  20921717.1884   -3233417.32647  -2455657.99547                  20921723.8914
        20.5004         29.7504
 00  5  1 19 51 30.0000000  0  6G 5G 6G17G10G24G30
  20816400.2274    1499099.13748   1159962.48847                  20816407.8364
        31.5004         30.0004
  22649538.0784   -4671319.07247  -3575377.64946                  22649546.5204
        22.5004         20.0004
  24221561.7734   -5828323.63146  -4393559.52445                  24221577.8914
        12.7504         11.0004
  21123124.9924   -3046675.82448  -2324613.83747                  21123132.4264
        30.7504         28.2504
  21923378.0634    3610331.83948   2766425.81046                  21923385.4384
        28.5004         23.2504
  20918333.5394   -3251198.80547  -2469513.68947                  20918340.3594
        22.0004         29.5004
 00  5  1 19 51 45.0000000  0  6G 5G 6G17G10G24G30
  20820191.4614    1519022.38848   1175487.05547                  20820198.9414
        32.5004         30.0004
  22642595.9384   -4707800.94047  -3603805.03446                  22642604.2624
        22.5004         19.7504
  24212968.2344   -5873482.85846  -4428748.38045                  24212984.9964
        13.2504         11.7504
  21120213.1644   -3061975.95848  -2336536.00247                  21120220.6914
        30.7504         28.2504
  21929300.7974    3641456.55048   2790678.81046                  21929307.9734
        29.0004         23.0004
  20914975.2194   -3268846.88247  -2483265.43547                  20914981.8164
        20.5004         29.7504
 00  5  1 19 52  0.0000000  0  6G 5G 6G17G10G24G30
  20824005.9384    1539067.05648   1191106.23547                  20824013.3484
        31.2504         30.0004
  22635655.3674   -4744272.83447  -3632224.64746                  22635663.7384
        22.5004         20.0004
  24204382.7894   -5918593.17446  -4463899.08345                  24204400.2304
        12.2504         11.5004
  21117330.1884   -3077127.11648  -2348342.07447                  21117337.6684
        30.7504         28.2504
  21935230.3914    3672617.21148   2814959.82646                  21935237.8244
        28.7504         23.5004
  20911643.9844   -3286351.69447  -2496905.54747                  20911650.5594
        20.2504         29.5004
 00  5  1 19 52 15.0000000  0  6G 5G 6G17G10G24G30
  20827842.7114    1559230.54948   1206818.00547                  20827850.3204
        31.2504         30.0004
  22628715.9844   -4780740.00047  -3660640.57746                  22628724.2274
        22.5004         20.5004
  24195808.4144   -5963653.23345  -4499010.64245                  24195825.6564
        11.7504         11.0004
  21114474.6254   -3092132.12748  -2360034.27047                  21114482.0824
        30.7504         28.2504
  21941166.3754    3703809.66748   2839265.62146                  21941173.7624
        28.7504         23.0004
  20908340.0784   -3303713.15747  -2510433.96047                  20908346.6644
        21.0004         29.7504
 00  5  1 19 52 30.0000000  0  6G 5G 6G17G10G24G30
  20831704.1484    1579521.80348   1222629.33147                  20831711.7464
        32.5004         30.0004
  22621777.9534   -4817197.83147  -3689049.23046                  22621786.4654
        22.2504         19.7504
  24187244.3984   -6008658.01145  -4534079.11545                  24187261.8404
        11.5004         10.5004
  21111647.5164   -3106989.57548  -2371611.47447                  21111655.0664
        30.7504         28.2504
  21947108.8204    3735036.65448   2863598.31446                  21947116.2774
        29.0004         23.2504
  20905064.6024   -3320926.72147  -2523847.12947                  20905071.1764
        22.0004         29.5004
 00  5  1 19 52 45.0000000  0  6G 5G 6G17G10G24G30
  20835590.1804    1599942.98448   1238541.89547                  20835597.8834
        32.5004         29.7504
  22614842.2664   -4853646.22747  -3717450.53846                  22614851.3634
        22.0004         20.0004
  24178690.6024   -6053608.89946  -4569105.63945                  24178706.8014
        13.2504         11.2504
  21108847.9844   -3121701.61148  -2383075.37847                  21108855.2664
        31.0004         28.5004
  21953057.4774    3766297.68348   2887957.53946                  21953064.9104
        28.5004         23.0004
  20901816.4064   -3337996.52547  -2537148.27647                  20901823.0634
        20.0004         29.7504
 00  5  1 19 53  0.0000000  0  6G 5G 6G17G10G24G30
  20839502.5944    1620503.41448   1254562.96847                  20839510.3204
        32.2504         29.5004
  22607909.9534   -4890074.80547  -3745836.40046                  22607918.8984
        22.2504         20.0004
  24170147.9774   -6098498.89046  -4604084.69245                  24170164.7384
        13.0004         11.7504
  21106078.3444   -3136255.83848  -2394416.31147                  21106085.7544
        31.2504         28.5004
  21959014.9064    3797603.75648   2912351.86346                  21959022.4104
        28.7504         23.0004
  20898596.7664   -3354915.55047  -2550331.93247                  20898603.2584
        22.0004         29.7504
 00  5  1 19 53 15.0000000  0  6G 5G 6G17G10G24G30
  20843439.7114    1641192.36248   1270684.18647                  20843447.5784
        32.0004         29.7504
  22600980.2974   -4926490.90847  -3774212.54346                  22600988.8094
        22.5004         20.0004
  24161614.9774   -6143339.72146  -4639025.43045                  24161632.3484
        12.5004         11.5004
  21103337.8364   -3150656.96348  -2405637.94547                  21103345.2584
        30.7504         28.5004
  21964979.1804    3828945.66148   2936774.11246                  21964986.7194
        28.7504         23.0004
  20895404.3134   -3371692.21947  -2563404.66047                  20895411.1334
        20.5004         29.5004
 00  5  1 19 53 30.0000000  0  6G 5G 6G17G10G24G30
  20847400.9694    1662008.99548   1286904.89847                  20847408.8954
        32.0004         29.5004
  22594053.4534   -4962893.11547  -3802577.86046                  22594062.1294
        22.2504         20.0004
  24153091.0704   -6188131.48546  -4673927.89045                  24153109.2274
        12.2504         11.5004
  21100627.2504   -3164900.48848  -2416736.77347                  21100634.6604
        31.0004         28.5004
  21970949.8594    3860322.49448   2961223.56646                  21970957.2704
        28.7504         22.7504
  20892238.8674   -3388326.24347  -2576366.24347                  20892245.5354
        23.7504         29.7504
 00  5  1 19 53 45.0000000  0  6G 5G 6G17G10G24G30
  20851387.0234    1682955.51248   1303226.81347                  20851394.8204
        31.7504         29.2504
  22587128.7424   -4999280.31047  -3830931.47346                  22587137.5824
        22.5004         20.0004
  24144577.5004   -6232869.95245  -4708788.85645                  24144594.9884
        11.7504         11.5004
  21097947.3594   -3178983.76348  -2427710.73447                  21097954.7584
        30.7504         28.5004
  21976927.3524    3891735.15248   2985700.94146                  21976934.6564
        28.5004         23.0004
  20889101.0864   -3404815.67747  -2589215.15347                  20889107.8244
        23.7504         29.7504
 00  5  1 19 54  0.0000000  0  6G 5G 6G17G10G24G30
  20855397.6564    1704031.88148   1319649.91747                  20855405.3484
        31.5004         29.2504
  22580206.9614   -5035653.94347  -3859274.52546                  22580215.7074
        22.5004         20.2504
  24136073.5784   -6277557.38345  -4743610.08345                  24136088.9104
        11.2504         11.0004
  21095297.3204   -3192910.31948  -2438562.57447                  21095304.6254
        30.5004         28.2504
  21982911.8444    3923182.59648   3010205.42146                  21982919.1724
        28.7504         22.7504
  20885990.0084   -3421164.39347  -2601954.41747                  20885996.7814
        21.2504         29.5004
 00  5  1 19 54 15.0000000  0  6G 5G 6G17G10G24G30
  20859434.1414    1725242.32048   1336177.48847                  20859441.8674
        31.5004         29.2504
  22573289.1564   -5072008.00247  -3887602.32246                  22573297.7734
        23.0004         20.0004
  24127578.6414   -6322193.42345  -4778391.23345                  24127595.4614
        11.2504         11.0004
  21092677.7504   -3206675.78048  -2449288.88347                  21092685.1844
        31.0004         28.5004
  21988903.0164    3954667.69048   3034739.24146                  21988910.4734
        29.0004         23.0004
  20882905.7814   -3437373.19847  -2614584.65647                  20882912.5664
        20.5004         29.5004
 00  5  1 19 54 30.0000000  0  6G 5G 6G17G10G24G30
  20863494.2664    1746578.74848   1352803.23247                  20863501.9344
        31.7504         29.0004
  22566373.5004   -5108349.18947  -3915920.08646                  22566382.0594
        22.2504         20.2504
  24119093.5394   -6366786.66345  -4813139.04545                  24119111.1214
        11.5004         10.7504
  21090087.6804   -3220286.64148  -2459894.73047                  21090095.0554
        31.2504         28.5004
  21994900.3364    3986182.91748   3059296.53846                  21994907.8634
        28.5004         23.0004
  20879845.9224   -3453452.22147  -2627113.76547                  20879852.6374
        20.2504         29.7504
 00  5  1 19 54 45.0000000  0  6G 5G 6G17G10G24G30
  20867577.8204    1768039.52648   1369525.87447                  20867585.5124
        31.5004         29.0004
  22559461.0784   -5144674.80347  -3944225.72246                  22559469.7304
        22.5004         20.2504
  24110615.8754   -6411334.56746  -4847851.50945                  24110633.3984
        12.2504         11.2504
  21087527.7734   -3233738.84448  -2470376.94447                  21087535.1134
        30.7504         28.5004
  22000903.7584    4017730.55448   3083879.09246                  22000911.0744
        28.7504         23.0004
  20876811.2814   -3469399.14547  -2639539.94147                  20876817.9384
        22.5004         29.7504
 00  5  1 19 55  0.0000000  0  6G 5G 6G17G10G24G30
  20871685.2034    1789622.07448   1386343.40247                  20871692.9064
        30.7504         28.7504
  22552551.5084   -5180985.06647  -3972519.39346                  22552559.9384
        22.2504         20.2504
  24102147.9144   -6455835.66646  -4882527.51546                  24102165.5904
        12.0004         12.0004
  21084998.8524   -3247029.28248  -2480733.10447                  21085006.1804
        30.7504         28.5004
  22006913.3914    4049311.04748   3108487.25546                  22006920.7304
        28.7504         23.0004
  20873802.3364   -3485211.75446  -2651861.45847                  20873808.9574
        18.7504         29.7504
 00  5  1 19 55 15.0000000  0  6G 5G 6G17G10G24G30
  20875815.5234    1811328.12848   1403257.16247                  20875823.3914
        31.0004         28.7504
  22545645.8444   -5217273.27347  -4000795.87446                  22545654.4144
        23.0004         20.2504
  24093689.8054   -6500282.64145  -4917161.33345                  24093707.0704
        11.7504         11.5004
  21082501.3594   -3260153.03248  -2490959.38547                  21082508.7464
        31.2504         28.5004
  22012929.4614    4080925.79648   3133122.10146                  22012936.8014
        29.0004         23.0004
  20870820.0704   -3500883.70546  -2664073.37147                  20870826.5984
        18.2504         29.7504
 00  5  1 19 55 30.0000000  0  6G 5G 6G17G10G24G30
  20879968.6254    1833152.12748   1420262.83447                  20879976.4344
        30.7504         28.7504
  22538743.6024   -5253544.93747  -4029059.46546                  22538751.9024
        22.2504         20.2504
  24085241.6724   -6544678.21845  -4951755.10445                  24085257.9654
        11.2504         11.0004
  21080034.1564   -3273118.78648  -2501062.54547                  21080041.5314
        31.5004         28.5004
  22018950.8444    4112569.20348   3157779.28246                  22018958.2894
        29.0004         22.7504
  20867863.4224   -3516421.10546  -2676180.43747                  20867869.9384
        18.7504         29.7504
 00  5  1 19 55 45.0000000  0  6G 5G 6G17G10G24G30
  20884145.3674    1855100.11248   1437365.11147                  20884153.2234
        30.7504         28.5004
  22531845.6024   -5289793.38747  -4057304.96846                  22531854.1844
        22.2504         20.2504
  24076804.1254   -6589015.56745  -4986303.50845                  24076821.4024
        11.2504         11.0004
  21077597.3444   -3285923.39948  -2511040.14247                  21077604.4734
        31.5004         28.5004
  22024978.8134    4144245.42948   3182462.04146                  22024986.5634
        28.5004         23.0004
  20864933.4844   -3531817.08746  -2688177.30747                  20864940.0474
        17.7504         29.7504
 00  5  1 19 56  0.0000000  0  6G 5G 6G17G10G24G30
  20888344.2034    1877165.65748   1454559.00347                  20888352.0124
        30.7504         28.5004
  22524951.5234   -5326022.35447  -4085535.29346                  22524959.8484
        23.2504         20.7504
  24068376.0084   -6633303.65346  -5020813.53645                  24068392.7114
        12.0004         11.2504
  21075189.7034   -3298575.87048  -2520899.18747                  21075196.9024
        31.7504         28.7504
  22031011.2894    4175946.90048   3207164.46446                  22031019.0394
        28.5004         23.0004
  20862030.0084   -3547075.03446  -2700066.61447                  20862036.4414
        18.2504         29.7504
 00  5  1 19 56 15.0000000  0  6G 5G 6G17G10G24G30
  20892566.8594    1899355.14148   1471849.46247                  20892574.5044
        31.2504         28.5004
  22518062.2344   -5362225.94347  -4113745.83946                  22518070.7344
        22.7504         20.5004
  24059958.6414   -6677540.78446  -5055283.84245                  24059975.8244
        12.5004         11.5004
  21072811.9844   -3311070.63248  -2530635.34747                  21072819.0434
        32.0004         28.7504
  22037049.8204    4207679.21048   3231890.91946                  22037057.5824
        28.2504         22.7504
  20859154.6024   -3562186.09946  -2711841.47447                  20859161.0594
        18.2504         29.7504
 00  5  1 19 56 30.0000000  0  6G 5G 6G17G10G24G30
  20896811.7504    1921661.36148   1489230.89147                  20896819.3244
        30.7504         28.7504
  22511176.0164   -5398413.63147  -4141943.99346                  22511184.5864
        23.0004         20.5004
  24051548.5004   -6721732.16345  -5089718.49245                  24051565.7894
        11.5004         11.5004
  21070462.7504   -3323415.46948  -2540254.67647                  21070469.8914
        31.7504         28.7504
  22043092.9614    4239435.40348   3256635.98646                  22043100.5824
        28.5004         22.7504
  20856306.2344   -3577154.91146  -2723505.48547                  20856312.6914
        18.0004         30.0004
 00  5  1 19 56 45.0000000  0  6G 5G 6G17G10G24G30
  20901079.5394    1944089.70448   1506707.47947                  20901087.1134
        30.7504         28.2504
  22504293.6724   -5434579.45547  -4170125.11346                  22504302.0084
        23.0004         20.7504
  24043148.9924   -6765871.41845  -5124112.53445                  24043166.0474
        11.5004         11.7504
  21068142.5004   -3335608.72948  -2549755.90247                  21068149.5704
        31.7504         28.7504
  22049141.6024    4271222.22848   3281404.92846                  22049149.1884
        28.2504         22.5004
  20853486.9694   -3591969.48246  -2735049.31147                  20853493.4494
        18.2504         30.0004
 00  5  1 19 57  0.0000000  0  6G 5G 6G17G10G24G30
  20905371.2274    1966641.95448   1524280.61747                  20905378.9774
        30.7504         28.2504
  22497416.0944   -5470720.67547  -4198287.06446                  22497424.1374
        23.2504         20.5004
  24034758.9924   -6809959.58846  -5158466.73745                  24034775.8484
        12.2504         11.2504
  21065850.7504   -3347652.91548  -2559140.96047                  21065857.7734
        32.0004         28.7504
  22055196.5704    4303040.15248   3306198.09746                  22055204.0164
        28.0004         22.5004
  20850697.7664   -3606627.72146  -2746471.31847                  20850704.1414
        17.7504         29.7504
 00  5  1 19 57 15.0000000  0  6G 5G 6G17G10G24G30
  20909685.7814    1989314.71348   1541947.65747                  20909693.4384
        30.7504         28.2504
  22490542.8984   -5506840.23147  -4226432.14346                  22490551.1644
        23.2504         20.5004
  24026377.6644   -6854002.89046  -5192786.04545                  24026394.3554
        12.7504         11.2504
  21063586.1724   -3359553.39648  -2568414.04347                  21063593.1844
        32.0004         28.7504
  22061256.1644    4334884.43148   3331011.80346                  22061263.4344
        28.2504         22.5004
  20847936.4924   -3621137.68746  -2757777.79147                  20847942.8554
        18.0004         29.7504
 00  5  1 19 57 30.0000000  0  6G 5G 6G17G10G24G30
  20914024.0084    2012112.72148   1559712.29647                  20914031.6884
        31.0004         28.2504
  22483673.8284   -5542938.24147  -4254560.41346                  22483682.0594
        23.2504         20.5004
  24018004.6484   -6898002.02646  -5227070.89745                  24018021.7504
        12.2504         11.7504
  21061348.6174   -3371311.46448  -2577576.15447                  21061355.7114
        32.0004         28.7504
  22067321.8754    4366760.68447   3355850.43046                  22067329.2974
        27.7504         22.5004
  20845203.8984   -3635498.12546  -2768967.74747                  20845210.3324
        18.2504         29.7504
 00  5  1 19 57 45.0000000  0  6G 5G 6G17G10G24G30
  20918387.9614    2035044.59348   1577581.24147                  20918395.6174
        30.7504         28.0004
  22476808.9614   -5579011.85947  -4282669.69246                  22476816.9804
        23.0004         20.5004
  24009641.2664   -6941953.28146  -5261318.42946                  24009658.1094
        12.7504         12.0004
  21059139.3984   -3382920.26548  -2586621.95247                  21059146.5164
        32.2504         28.7504
  22073395.5394    4398676.32147   3380719.73746                  22073402.8914
        27.7504         22.2504
  20842500.9774   -3649701.35846  -2780035.20747                  20842507.3984
        18.0004         29.7504
 00  5  1 19 58  0.0000000  0  6G 5G 6G17G10G24G30
  20922776.7584    2058107.47948   1595552.27947                  20922784.4384
        30.5004         28.0004
  22469948.4144   -5615065.05347  -4310763.04646                  22469956.6684
        23.2504         20.5004
  24001285.7034   -6985861.38446  -5295532.34946                  24001301.9614
        12.7504         12.5004
  21056958.2974   -3394381.34548  -2595552.64047                  21056965.5434
        31.5004         28.7504
  22079475.7194    4430628.69747   3405617.67246                  22079483.1884
        27.2504         22.0004
  20839827.9614   -3663749.18546  -2790981.57347                  20839834.4304
        18.0004         30.0004
 00  5  1 19 58 15.0000000  0  6G 5G 6G17G10G24G30
  20927188.7894    2081293.32748   1613619.12647                  20927196.5984
        30.7504         28.0004
  22463089.1724   -5651108.86947  -4338849.10546                  22463097.6254
        23.0004         20.5004
  23992936.7664   -7029734.99146  -5329719.40046                  23992953.1994
        13.0004         12.2504
  21054803.8134   -3405703.64148  -2604375.18647                  21054811.2464
        31.5004         28.7504
  22085561.9844    4462612.21347   3430539.87446                  22085569.5944
        27.2504         22.2504
  20837181.7894   -3677653.25446  -2801815.91747                  20837188.2234
        18.0004         30.2504
 00  5  1 19 58 30.0000000  0  6G 5G 6G17G10G24G30
  20931625.4924    2104606.75548   1631785.38847                  20931633.2074
        30.7504         27.7504
  22456232.8054   -5687140.23947  -4366925.44746                  22456241.3284
        23.2504         21.0004
  23984595.8054   -7073565.05546  -5363872.48945                  23984611.8164
        13.0004         11.7504
  21052676.8204   -3416881.24948  -2613084.99047                  21052684.0904
        31.5004         28.5004
  22091655.0474    4494632.25447   3455490.53946                  22091662.6914
        27.0004         22.2504
  20834563.6954   -3691412.87146  -2812537.70447                  20834570.0234
        18.0004         30.2504
 00  5  1 19 58 45.0000000  0  6G 5G 6G17G10G24G30
  20936085.5234    2128045.44848   1650049.25747                  20936093.1564
        30.5004         28.0004
  22449378.9064   -5723157.93647  -4394991.14846                  22449387.2894
        23.5004         21.0004
  23976264.1644   -7117347.23146  -5397988.29245                  23976280.4104
        12.5004         11.5004
  21050577.5314   -3427912.58848  -2621680.81847                  21050584.6954
        31.2504         29.0004
  22097755.3204    4526688.51447   3480469.42846                  22097763.0354
        27.0004         22.0004
  20831972.5634   -3705028.10146  -2823146.97947                  20831978.9024
        18.0004         30.2504
 00  5  1 19 59  0.0000000  0  6G 5G 6G17G10G24G30
  20940568.9304    2151605.27348   1668407.51847                  20940576.5984
        30.2504         28.0004
  22442527.0234   -5759162.77347  -4423046.82846                  22442535.4414
        23.5004         21.0004
  23967941.9774   -7161084.04746  -5432068.76046                  23967957.6844
        13.5004         12.5004
  21048506.2034   -3438797.17448  -2630162.29347                  21048513.5554
        31.2504         28.5004
  22103861.1884    4558775.96947   3505472.62146                  22103868.9614
        27.0004         22.0004
  20829408.4454   -3718504.54446  -2833648.11047                  20829414.8914
        18.0004         30.2504
 00  5  1 19 59 15.0000000  0  6G 5G 6G17G10G24G30
  20945076.7584    2175293.15848   1686865.56547                  20945084.5784
        30.5004         27.7504
  22435679.4454   -5795148.16447  -4451087.35446                  22435687.8524
        23.5004         21.0004
  23959629.0634   -7204765.76946  -5466106.28146                  23959645.1564
        13.5004         12.7504
  21046465.3674   -3449521.74648  -2638519.08147                  21046472.5904
        31.2504         28.5004
  22109974.7584    4590902.37947   3530506.16746                  22109982.6374
        26.7504         22.0004
  20826871.1644   -3731837.78346  -2844037.65547                  20826877.6804
        18.0004         30.0004
 00  5  1 19 59 30.0000000  0  6G 5G 6G17G10G24G30
  20949608.0234    2199106.37448   1705421.27047                  20949615.8554
        30.0004         27.5004
  22428834.9144   -5831118.18447  -4479115.90246                  22428843.0984
        24.0004         21.0004
  23951326.4384   -7248393.21146  -5500101.51046                  23951342.5084
        12.7504         12.7504
  21044454.6174   -3460088.20648  -2646752.66647                  21044461.8634
        31.5004         28.2504
  22116095.1414    4623065.65947   3555568.44646                  22116102.7034
        26.5004         21.7504
  20824360.7274   -3745029.84046  -2854317.18647                  20824367.3714
        18.0004         30.2504
 00  5  1 19 59 45.0000000  0  6G 5G 6G17G10G24G30
  20954165.5554    2223056.07948   1724083.33147                  20954173.3754
        30.2504         27.5004
  22421995.0314   -5867060.73247  -4507123.05346                  22422003.2854
        24.2504         21.2504
  23943037.4304   -7291952.19546  -5534043.38646                  23943052.6914
        12.7504         12.5004
  21042476.4144   -3470484.78748  -2654853.87747                  21042483.5664
        31.7504         28.5004
  22122224.8914    4655278.19947   3580669.11446                  22122232.3134
        26.2504         21.7504
  20821880.4454   -3758063.24846  -2864473.09447                  20821886.9964
        18.2504         30.0004
 00  5  1 20  0  0.0000000  0  6G 5G 6G17G10G24G30
  20958747.1884    2247131.85448   1742843.62547                  20958754.8204
        30.2504         27.5004
  22415159.6724   -5902980.16547  -4535112.18246                  22415167.7384
        24.2504         21.5004
  23934760.4844   -7335445.55946  -5567934.15346                  23934777.2114
        13.0004         12.5004
  21040529.2584   -3480716.30048  -2662826.46547                  21040536.2344
        31.7504         28.7504
  22128362.3754    4687529.76747   3605800.18646                  22128369.9734
        26.2504         21.5004
  20819428.9774   -3770946.40946  -2874511.92747                  20819435.5044
        18.2504         30.2504
 00  5  1 20  0 15.0000000  0  6G 5G 6G17G10G24G30
  20963351.0554    2271325.40048   1761695.69447                  20963358.5124
        30.2504         27.2504
  22408327.9224   -5938881.04547  -4563086.86046                  22408336.1294
        24.2504         21.2504
  23926496.4064   -7378877.43146  -5601777.01146                  23926512.7344
        14.5004         12.7504
  21038612.4384   -3490789.25448  -2670675.50047                  21038619.6134
        32.0004         28.5004
  22134505.7664    4719812.93147   3630955.88846                  22134513.3634
        26.2504         21.5004
  20817004.1024   -3783689.24546  -2884441.41447                  20817010.7704
        18.0004         30.0004
 00  5  1 20  0 30.0000000  0  6G 5G 6G17G10G24G30
  20967976.0784    2295629.88948   1780634.20747                  20967983.6764
        30.0004         27.2504
  22401498.6724   -5974769.46147  -4591051.82846                  22401506.5274
        25.0004         21.5004
  23918241.6414   -7422254.61046  -5635577.24246                  23918257.3834
        13.7504         13.2504
  21036724.4924   -3500710.92148  -2678406.65347                  21036731.5044
        32.2504         28.5004
  22140652.9844    4752116.28647   3656127.32046                  22140660.5824
        26.2504         21.5004
  20814604.2664   -3796299.12346  -2894267.29747                  20814610.8634
        18.0004         30.0004
 00  5  1 20  0 45.0000000  0  6G 5G 6G17G10G24G30
  20972622.7344    2320047.90248   1799661.18147                  20972630.3204
        30.0004         27.2504
  22394671.8674   -6010642.71947  -4619004.97746                  22394679.7814
        25.0004         21.5004
  23909997.7664   -7465574.41346  -5669332.74946                  23910013.8954
        13.0004         12.7504
  21034866.0634   -3510476.93348  -2686016.51147                  21034873.2154
        32.0004         28.5004
  22146803.7584    4784439.51347   3681314.23746                  22146811.5554
        26.2504         21.2504
  20812231.1334   -3808770.88546  -2903985.56247                  20812237.7664
        17.7504         30.0004
 00  5  1 20  1  0.0000000  0  6G 5G 6G17G10G24G30
  20977293.2974    2344591.84448   1818786.28847                  20977300.8954
        30.0004         27.2504
  22387850.8674   -6046488.12847  -4646936.43046                  22387858.8524
        25.0004         21.7504
  23901766.7114   -7508828.10146  -5703036.73846                  23901783.1804
        13.2504         12.7504
  21033039.6954   -3520074.45848  -2693495.08047                  21033046.8364
        32.0004         28.7504
  22152961.0864    4816796.00547   3706527.07146                  22152968.6254
        26.2504         21.5004
  20809886.4064   -3821092.59046  -2913586.89547                  20809892.9104
        17.7504         30.0004
 00  5  1 20  1 15.0000000  0  6G 5G 6G17G10G24G30
  20981985.1334    2369246.70448   1837997.81147                  20981992.7194
        30.0004         27.2504
  22381032.5554   -6082319.69047  -4674857.09246                  22381040.5744
        25.2504         21.7504
  23893545.2584   -7552034.47346  -5736703.89746                  23893560.8594
        13.7504         13.0004
  21031242.1954   -3529520.32348  -2700855.47647                  21031249.2664
        32.0004         28.7504
  22159121.8524    4849170.36947   3731753.83546                  22159129.5904
        26.2504         21.2504
  20807567.7194   -3833277.62346  -2923081.73047                  20807574.3054
        18.0004         30.0004
 00  5  1 20  1 30.0000000  0  6G 5G 6G17G10G24G30
  20986700.6484    2394027.29748   1857307.31947                  20986708.3984
        29.7504         27.0004
  22374219.2344   -6118122.71547  -4702755.51146                  22374227.2774
        25.0004         21.7504
  23885334.0234   -7595181.19946  -5770324.56946                  23885349.8244
        13.5004         12.7504
  21029475.7504   -3538802.20148  -2708088.08847                  21029482.7974
        32.2504         28.7504
  22165288.7974    4881578.80347   3757007.14046                  22165296.6054
        26.5004         21.0004
  20805278.2584   -3845308.81746  -2932456.69247                  20805284.7384
        18.0004         30.2504
 00  5  1 20  1 45.0000000  0  6G 5G 6G17G10G24G30
  20991441.4064    2418940.86548   1876720.44247                  20991448.9104
        29.7504         27.0004
  22367413.0394   -6153889.52947  -4730625.71346                  22367421.0594
        25.2504         22.0004
  23877135.5004   -7638264.34946  -5803895.69946                  23877151.4064
        12.7504         12.2504
  21027741.3914   -3547916.71648  -2715190.29447                  21027748.4614
        32.2504         28.7504
  22171463.4224    4914027.12147   3782291.53246                  22171471.1484
        26.5004         21.2504
  20803019.5554   -3857178.13046  -2941705.51547                  20803026.1174
        18.0004         30.0004
 00  5  1 20  2  0.0000000  0  6G 5G 6G17G10G24G30
  20996205.7274    2443976.03748   1896228.32047                  20996213.3484
        29.5004         26.7504
  22360611.4064   -6189631.89547  -4758476.87046                  22360619.4614
        25.0004         22.2504
  23868946.3834   -7681294.94546  -5837425.86146                  23868962.5824
        12.5004         12.7504
  21026037.1564   -3556872.33948  -2722168.68147                  21026044.1914
        32.0004         28.7504
  22177643.1954    4946502.02747   3807596.64146                  22177650.9574
        25.7504         21.2504
  20800789.3444   -3868898.35546  -2950838.16447                  20800796.0004
        18.0004         30.0004
 00  5  1 20  2 15.0000000  0  6G 5G 6G17G10G24G30
  21000993.6884    2469136.98148   1915834.20247                  21001001.3324
        29.5004         26.7504
  22353815.2034   -6225347.12047  -4786306.86946                  22353823.2934
        25.0004         22.2504
  23860768.8524   -7724272.12946  -5870914.41746                  23860784.5354
        13.2504         13.0004
  21024364.0004   -3565665.07248  -2729020.14747                  21024371.0354
        32.0004         28.7504
  22183828.4534    4979005.41047   3832923.94146                  22183835.8404
        26.2504         21.0004
  20798587.2664   -3880469.94246  -2959854.99547                  20798593.8284
        18.0004         30.0004
 00  5  1 20  2 30.0000000  0  6G 5G 6G17G10G24G30
  21005804.6024    2494419.91648   1935535.14447                  21005812.2464
        29.2504         27.0004
  22347023.1644   -6261039.61347  -4814119.15646                  22347031.2774
        25.5004         22.0004
  23852598.7664   -7767203.11146  -5904366.95946                  23852614.2854
        14.2504         13.2504
  21022720.6644   -3574300.44548  -2735748.98947                  21022727.8164
        32.2504         28.7504
  22190018.2194    5011532.50847   3858269.71946                  22190025.8634
        26.0004         21.0004
  20796413.5864   -3891894.78746  -2968757.48047                  20796420.1254
        18.0004         30.2504
 00  5  1 20  2 45.0000000  0  6G 5G 6G17G10G24G30
  21010640.9844    2519833.62148   1955337.98447                  21010648.7234
        29.5004         26.7504
  22340237.1414   -6296700.11947  -4841906.53246                  22340245.0204
        25.2504         22.0004
  23844440.0314   -7810079.50246  -5937777.00946                  23844455.4574
        14.5004         13.2504
  21021109.0944   -3582768.45048  -2742347.42247                  21021116.2344
        32.0004         29.0004
  22196214.5394    5044095.31247   3883643.31946                  22196222.0314
        26.0004         21.0004
  20794269.3914   -3903161.07546  -2977536.41547                  20794275.8484
        18.0004         30.0004
 00  5  1 20  3  0.0000000  0  6G 5G 6G17G10G24G30
  21015499.6484    2545365.52548   1975232.92547                  21015507.5164
        29.0004         26.7504
  22333455.0084   -6332338.98647  -4869677.03546                  22333462.9104
        25.2504         22.2504
  23836288.6254   -7852911.68646  -5971152.58146                  23836303.9924
        13.2504         12.5004
  21019528.1724   -3591076.45648  -2748821.17947                  21019535.3364
        32.0004         28.7504
  22202416.8364    5076687.57547   3909039.87446                  22202424.3754
        26.0004         21.0004
  20792153.9064   -3914278.90446  -2986199.66547                  20792160.4344
        18.0004         30.2504
 00  5  1 20  3 15.0000000  0  6G 5G 6G17G10G24G30
  21020380.2974    2571013.41448   1995218.24447                  21020388.0354
        29.5004         26.5004
  22326677.1254   -6367956.86247  -4897431.18146                  22326685.0864
        25.2504         22.0004
  23828146.0634   -7895701.71046  -6004495.29246                  23828162.0394
        12.7504         13.2504
  21017976.9304   -3599228.65848  -2755173.53347                  21017984.0704
        32.0004         29.0004
  22208624.3594    5109308.12447   3934458.46446                  22208631.9694
        26.0004         21.0004
  20790066.2814   -3925248.75646  -2994747.60947                  20790072.8204
        18.0004         30.2504
 00  5  1 20  3 30.0000000  0  6G 5G 6G17G10G24G30
  21025282.9844    2596777.87848   2015294.40447                  21025290.6294
        29.5004         26.7504
  22319902.7194   -6403557.67047  -4925172.02946                  22319910.3524
        25.7504         22.0004
  23820011.7734   -7938448.91346  -6037804.62746                  23820027.3284
        14.2504         13.0004
  21016454.8364   -3607227.43448  -2761406.33347                  21016461.9654
        31.7504         28.7504
  22214837.1954    5141955.55147   3959898.00446                  22214844.6524
        26.5004         21.0004
  20788006.6724   -3936072.02846  -3003181.33647                  20788013.2464
        18.0004         30.2504
 00  5  1 20  3 45.0000000  0  6G 5G 6G17G10G24G30
  21030209.5554    2622665.95348   2035466.88247                  21030217.3984
        29.5004         26.7504
  22313132.1804   -6439136.41147  -4952895.68346                  22313139.7894
        25.5004         22.0004
  23811886.7664   -7981145.04846  -6071074.20046                  23811902.4964
        14.0004         13.5004
  21014963.3284   -3615065.26948  -2767513.72047                  21014970.4924
        31.2504         28.7504
  22221055.7034    5174635.04747   3985362.53046                  22221063.4414
        26.2504         21.0004
  20785975.4774   -3946745.77646  -3011498.54947                  20785982.0744
        17.7504         30.0004
 00  5  1 20  4  0.0000000  0  6G 5G 6G17G10G24G30
  21035159.5084    2648678.30848   2055736.20047                  21035167.1884
        29.2504         26.7504
  22306365.7424   -6474694.77447  -4980603.45846                  22306373.7154
        25.5004         22.2504
  23803772.0234   -8023786.71946  -6104301.34146                  23803786.7114
        13.7504         13.2504
  21013502.8674   -3622740.30048  -2773494.24947                  21013510.0204
        31.7504         28.7504
  22227280.0164    5207344.00747   4010850.01746                  22227287.6134
        26.5004         21.0004
  20783972.8444   -3957270.00246  -3019699.25347                  20783979.2894
        17.7504         29.7504
 00  5  1 20  4 15.0000000  0  6G 5G 6G17G10G24G30
  21040131.7194    2674807.21148   2076096.33547                  21040139.3984
        28.7504         26.7504
  22299602.1804   -6510238.22447  -5008299.61246                  22299609.9884
        26.0004         22.2504
  23795666.0004   -8066379.78945  -6137490.59646                  23795681.5314
        11.7504         12.5004
  21012072.3524   -3630257.93348  -2779352.13147                  21012079.4924
        31.7504         28.7504
  22233508.5634    5240075.69447   4036355.21746                  22233516.4184
        26.2504         21.2504
  20781997.6484   -3967649.96046  -3027787.53847                  20782003.9414
        18.0004         30.0004
 00  5  1 20  4 30.0000000  0  6G 5G 6G17G10G24G30
  21045126.8054    2701056.34848   2096550.15847                  21045134.5084
        29.0004         26.7504
  22292842.0314   -6545760.70947  -5035979.42546                  22292849.7584
        26.2504         22.2504
  23787571.0004   -8108921.09446  -6170639.49946                  23787586.6604
        13.0004         12.7504
  21010672.2034   -3637614.79048  -2785084.73147                  21010679.3554
        31.7504         28.7504
  22239742.3914    5272834.39047   4061881.46146                  22239749.8484
        26.5004         20.7504
  20780050.6724   -3977880.98346  -3035759.77547                  20780057.0234
        17.7504         30.0004
 00  5  1 20  4 45.0000000  0  6G 5G 6G17G10G24G30
  21050144.0084    2727420.97448   2117093.97247                  21050151.9104
        28.7504         26.7504
  22286085.4144   -6581268.30047  -5063647.63646                  22286093.1884
        26.2504         22.2504
  23779484.4384   -8151415.59246  -6203751.95646                  23779499.7234
        13.7504         13.0004
  21009301.7734   -3644816.53448  -2790696.47047                  21009308.9384
        31.7504         28.7504
  22245980.5474    5305616.48547   4087425.94346                  22245987.9104
        26.5004         20.7504
  20778131.3204   -3987967.60046  -3043619.48147                  20778137.7894
        18.0004         29.7504
 00  5  1 20  5  0.0000000  0  6G 5G 6G17G10G24G30
  21055184.3134    2753908.84848   2137733.82547                  21055192.4734
        28.5004         27.0004
  22279332.2894   -6616755.71747  -5091300.12746                  22279340.1564
        26.2504         22.5004
  23771408.4614   -8193855.75946  -6236822.07146                  23771423.6524
        14.0004         13.7504
  21007962.0784   -3651856.17448  -2796181.88947                  21007969.2544
        32.0004         28.7504
  22252224.6564    5338429.24647   4112994.32546                  22252232.1254
        26.2504         21.0004
  20776240.3754   -3997904.32646  -3051362.39347                  20776246.7624
        17.7504         30.0004
 00  5  1 20  5 15.0000000  0  6G 5G 6G17G10G24G30
  21060248.2734    2780519.41448   2158469.27747                  21060256.4104
        28.5004         26.7504
  22272582.6254   -6652224.84847  -5118938.36546                  22272590.4224
        26.0004         22.5004
  23763341.9454   -8236244.35446  -6269851.99846                  23763357.4654
        13.2504         13.5004
  21006652.1484   -3658740.47348  -2801546.26847                  21006659.3484
        32.0004         29.0004
  22258473.6954    5371267.26347   4138582.37946                  22258481.1054
        26.2504         20.7504
  20774377.3444   -4007694.20046  -3058990.87647                  20774383.9064
        17.7504         29.7504
 00  5  1 20  5 30.0000000  0  6G 5G 6G17G10G24G30
  21065336.7034    2807258.92948   2179305.21547                  21065344.8874
        28.5004         26.7504
  22265837.7114   -6687670.14447  -5146558.03846                  22265845.5434
        25.7504         22.2504
  23755286.5554   -8278574.94546  -6302836.72446                  23755302.3094
        13.2504         13.0004
  21005372.3834   -3665465.97448  -2806786.90247                  21005379.5124
        32.0004         28.7504
  22264727.9224    5404132.43947   4164191.59946                  22264735.4614
        26.5004         20.7504
  20772543.1724   -4017332.85446  -3066501.52447                  20772549.5704
        18.0004         30.0004
 00  5  1 20  5 45.0000000  0  6G 5G 6G17G10G24G30
  21070447.9534    2834118.28848   2200234.53147                  21070456.1724
        28.5004         27.0004
  22259095.7034   -6723098.07147  -5174164.17246                  22259103.5594
        26.2504         22.7504
  23747241.1804   -8320853.50046  -6335780.91346                  23747256.5944
        12.7504         13.0004
  21004122.0554   -3672036.27248  -2811906.60047                  21004129.1254
        31.7504         28.7504
  22270985.6644    5437017.64647   4189816.42446                  22270993.1564
        26.5004         20.7504
  20770736.2814   -4026828.50346  -3073900.73747                  20770742.8094
        17.7504         30.0004
 00  5  1 20  6  0.0000000  0  6G 5G 6G17G10G24G30
  21075581.3914    2861095.46348   2221255.65447                  21075589.3404
        28.5004         26.7504
  22252357.9774   -6758506.55847  -5201755.15546                  22252366.1134
        26.0004         22.7504
  23739205.6254   -8363079.17946  -6368683.89046                  23739221.7774
        12.7504         13.2504
  21002901.3054   -3678451.37048  -2816905.36047                  21002908.3284
        32.0004         28.7504
  22277247.2974    5469922.65047   4215456.67746                  22277254.8714
        26.5004         20.7504
  20768957.3284   -4036176.97546  -3081185.26847                  20768963.7974
        17.7504         30.0004
 00  5  1 20  6 15.0000000  0  6G 5G 6G17G10G24G30
  21080737.9384    2888193.58048   2242371.01747                  21080746.0044
        28.5004         26.7504
  22245624.2504   -6793891.05947  -5229327.44546                  22245632.3634
        26.0004         22.7504
  23731181.0864   -8405248.09746  -6401542.63346                  23731196.8634
        13.5004         13.7504
  21001710.5864   -3684708.21948  -2821780.81447                  21001717.5984
        32.0004         28.7504
  22283513.5394    5502853.60747   4241117.15546                  22283521.0784
        26.7504         20.5004
  20767207.6724   -4045372.45246  -3088350.58547                  20767214.2114
        18.0004         30.0004
 00  5  1 20  6 30.0000000  0  6G 5G 6G17G10G24G30
  21085917.5234    2915411.11948   2263579.43547                  21085925.4964
        29.0004         26.7504
  22238895.3754   -6829251.58547  -5256881.06246                  22238903.3484
        26.2504         22.7504
  23723166.9534   -8447362.72146  -6434359.07146                  23723181.8524
        14.0004         13.5004
  21000549.7974   -3690808.84348  -2826534.53247                  21000556.8554
        32.2504         28.7504
  22289785.6724    5535811.68347   4266798.75946                  22289793.2814
        26.2504         20.5004
  20765486.2274   -4054417.95446  -3095399.03947                  20765492.7664
        18.0004         30.0004
 00  5  1 20  6 45.0000000  0  6G 5G 6G17G10G24G30
  21091119.9454    2942749.24248   2284881.81147                  21091128.0594
        28.5004         26.7504
  22232170.3834   -6864591.35447  -5284418.50946                  22232178.1094
        26.0004         22.7504
  23715162.9614   -8489421.93146  -6467132.34146                  23715177.6134
        13.2504         12.7504
  20999418.1254   -3696755.16548  -2831168.01847                  20999425.1724
        32.2504         28.7504
  22296062.0634    5568795.54347   4292500.45846                  22296069.4264
        26.0004         20.5004
  20763793.5164   -4063313.43346  -3102330.59047                  20763799.9024
        18.0004         30.0004
 00  5  1 20  7  0.0000000  0  6G 5G 6G17G10G24G30
  21096344.6724    2970205.98348   2306276.61847                  21096352.7974
        28.5004         26.7504
  22225448.8754   -6899913.04947  -5311941.87546                  22225456.9414
        25.5004         22.7504
  23707170.2114   -8531425.73246  -6499862.44246                  23707184.8874
        13.5004         13.5004
  20998315.0944   -3702552.36748  -2835685.30347                  20998322.0594
        32.2504         28.7504
  22302343.4534    5601804.25947   4318221.52246                  22302350.8754
        25.7504         20.5004
  20762129.2344   -4072059.66546  -3109145.84247                  20762135.6334
        18.0004         30.0004
 00  5  1 20  7 15.0000000  0  6G 5G 6G17G10G24G30
  21101591.5704    2997778.54248   2327761.67847                  21101599.5314
        28.5004         26.7504
  22218730.8754   -6935214.69347  -5339449.61146                  22218738.9184
        26.0004         22.7504
  23699187.2974   -8573375.67546  -6532550.56146                  23699203.1804
        14.0004         14.0004
  20997240.0164   -3708201.75548  -2840087.41347                  20997246.9694
        32.0004         28.7504
  22308628.8914    5634834.84047   4343959.63346                  22308636.3134
        25.5004         20.5004
  20760493.2584   -4080656.80146  -3115844.92047                  20760499.5044
        18.0004         30.2504
 00  5  1 20  7 30.0000000  0  6G 5G 6G17G10G24G30
  21106860.7194    3025468.07548   2349337.88347                  21106868.7274
        28.7504         26.7504
  22212018.1804   -6970491.77247  -5366938.20846                  22212026.3404
        25.5004         23.0004
  23691214.9384   -8615268.60446  -6565194.24346                  23691229.9534
        13.7504         14.0004
  20996193.7664   -3713699.18148  -2844371.10847                  20996200.8244
        32.2504         29.0004
  22314919.1884    5667889.22147   4369716.27146                  22314926.6454
        26.0004         20.5004
  20758886.5004   -4089100.68046  -3122424.57147                  20758893.0744
        18.2504         30.2504
 00  5  1 20  7 45.0000000  0  6G 5G 6G17G10G24G30
  21112151.8364    3053272.97648   2371003.98847                  21112159.7854
        28.2504         27.0004
  22205309.3914   -7005745.23147  -5394408.40646                  22205317.4694
        26.0004         22.7504
  23683253.8594   -8657104.28346  -6597793.31946                  23683269.5314
        14.2504         14.0004
  20995177.0944   -3719040.60548  -2848533.24247                  20995184.1884
        31.7504         28.7504
  22321214.1254    5700969.58247   4395493.16446                  22321221.6524
        26.0004         20.5004
  20757309.1724   -4097389.59346  -3128883.47747                  20757315.6764
        18.2504         30.2504
 00  5  1 20  8  0.0000000  0  6G 5G 6G17G10G24G30
  21117464.7974    3081192.07348   2392759.07147                  21117472.7934
        28.5004         27.0004
  22198605.1094   -7040976.84647  -5421861.57546                  22198612.8714
        26.0004         23.0004
  23675302.7974   -8698885.99246  -6630350.34646                  23675318.1054
        14.5004         14.0004
  20994190.2894   -3724227.89148  -2852575.27647                  20994197.3014
        31.7504         28.7504
  22327514.0084    5734074.84847   4421289.46046                  22327521.4414
        26.2504         20.5004
  20755761.2194   -4105524.23046  -3135222.16347                  20755767.7114
        18.2504         30.2504
 00  5  1 20  8 15.0000000  0  6G 5G 6G17G10G24G30
  21122799.8204    3109227.92848   2414605.13347                  21122808.0044
        28.7504         26.7504
  22191904.9454   -7076186.40847  -5449297.56746                  22191912.9064
        25.7504         23.0004
  23667362.3984   -8740614.26846  -6662865.73146                  23667376.5704
        15.0004         14.0004
  20993232.1094   -3729262.37948  -2856498.24047                  20993239.0744
        32.0004         28.7504
  22333818.2114    5767205.06947   4447105.19846                  22333825.9614
        26.2504         20.5004
  20754242.3834   -4113505.30646  -3141441.19347                  20754248.9924
        18.0004         30.2504
 00  5  1 20  8 30.0000000  0  6G 5G 6G17G10G24G30
  21128157.9454    3137384.84548   2436545.53047                  21128165.9534
        28.7504         27.0004
  22185210.1564   -7111368.29847  -5476711.98846                  22185218.0124
        25.5004         23.0004
  23659432.4924   -8782285.58146  -6695336.74446                  23659445.8444
        15.7504         14.2504
  20992304.2734   -3734138.52548  -2860297.82747                  20992311.2624
        32.0004         28.5004
  22340128.0164    5800362.85747   4472942.41746                  22340135.3554
        25.5004         20.2504
  20752753.1884   -4121330.65546  -3147538.87347                  20752759.7504
        18.0004         30.2504
 00  5  1 20  8 45.0000000  0  6G 5G 6G17G10G24G30
  21133538.3204    3165658.21148   2458576.66947                  21133546.2344
        28.7504         27.2504
  22178519.4774   -7146527.68547  -5504108.87546                  22178527.5434
        26.2504         23.0004
  23651512.7814   -8823904.14746  -6727766.66646                  23651527.1524
        14.7504         14.2504
  20991405.8594   -3738860.95548  -2863977.63347                  20991412.8594
        31.5004         28.7504
  22346441.2814    5833541.06447   4498795.55646                  22346449.0554
        25.5004         20.2504
  20751292.8134   -4129005.03546  -3153518.91647                  20751299.4574
        17.7504         30.0004
 00  5  1 20  9  0.0000000  0  6G 5G 6G17G10G24G30
  21138941.0784    3194050.45848   2480700.43647                  21138948.9454
        29.0004         27.2504
  22171833.4924   -7181661.04847  -5531485.47946                  22171841.3244
        25.5004         23.0004
  23643603.0004   -8865467.17346  -6760153.28846                  23643617.5594
        14.5004         13.7504
  20990536.8364   -3743426.24148  -2867534.98647                  20990544.0004
        31.7504         29.0004
  22352759.6564    5866743.49747   4524667.56546                  22352766.9384
        25.7504         20.2504
  20749862.1484   -4136523.60746  -3159377.55447                  20749868.7344
        18.0004         30.2504
 00  5  1 20  9 15.0000000  0  6G 5G 6G17G10G24G30
  21144365.8914    3222556.26248   2502912.69547                  21144374.0164
        29.0004         27.5004
  22165152.6884   -7216770.63147  -5558843.55346                  22165160.6134
        26.5004         23.0004
  23635703.6884   -8906980.30346  -6792501.01546                  23635718.7624
        14.0004         14.0004
  20989697.8524   -3747835.02048  -2870970.38747                  20989705.0634
        31.5004         28.7504
  22359082.2584    5899967.17647   4550556.13846                  22359089.9614
        26.0004         20.2504
  20748460.3594   -4143890.73546  -3165118.18147                  20748467.0394
        18.0004         30.0004
 00  5  1 20  9 30.0000000  0  6G 5G 6G17G10G24G30
  21149811.4774    3251173.19548   2525211.54747                  21149819.6604
        29.0004         27.5004
  22158475.7424   -7251857.30747  -5586183.78546                  22158483.9614
        26.2504         23.0004
  23627813.5944   -8948443.55346  -6824809.88846                  23627827.8364
        14.7504         14.5004
  20988889.5554   -3752082.79748  -2874280.32747                  20988896.6724
        31.7504         28.5004
  22365408.5864    5933212.46047   4576461.53546                  22365416.2664
        25.7504         20.2504
  20747087.2974   -4151105.71946  -3170740.25447                  20747094.0824
        17.7504         30.0004
 00  5  1 20  9 45.0000000  0  6G 5G 6G17G10G24G30
  21155279.8134    3279908.43848   2547602.58347                  21155287.8674
        29.5004         27.5004
  22151804.3444   -7286915.94847  -5613502.16346                  22151812.2704
        26.0004         23.2504
  23619934.0944   -8989848.58446  -6857073.40746                  23619948.8284
        15.0004         14.2504
  20988113.4454   -3756160.39148  -2877457.66347                  20988120.5744
        31.7504         28.7504
  22371740.6094    5966487.66547   4602390.25446                  22371748.2544
        25.5004         20.0004
  20745744.2734   -4158163.24246  -3176239.63247                  20745751.0474
        17.7504         30.2504
 00  5  1 20 10  0.0000000  0  6G 5G 6G17G10G24G30
  21160768.6644    3308753.09848   2570078.87947                  21160776.8484
        29.0004         27.5004
  22145136.6644   -7321953.94947  -5640804.45846                  22145144.5664
        26.2504         23.2504
  23612064.1804   -9031204.51246  -6889298.65646                  23612078.4574
        14.7504         14.0004
  20987368.0864   -3760077.39748  -2880509.86247                  20987375.2034
        32.0004         28.7504
  22378076.7974    5999784.16247   4628335.56046                  22378084.5824
        25.5004         20.0004
  20744429.2814   -4165074.61946  -3181625.12347                  20744435.8674
        17.7504         30.0004
 00  5  1 20 10 15.0000000  0  6G 5G 6G17G10G24G30
  21166277.8524    3337703.85248   2592637.84647                  21166286.0234
        29.5004         27.5004
  22138473.0004   -7356971.77147  -5668091.03246                  22138480.9144
        26.0004         23.0004
  23604203.2344   -9072513.18246  -6921487.06946                  23604217.8874
        14.5004         13.7504
  20986652.5944   -3763837.30748  -2883439.65247                  20986659.7114
        32.0004         29.0004
  22384415.8054    6033097.08447   4654293.66746                  22384423.3554
        25.0004         20.0004
  20743140.8134   -4171844.77446  -3186900.58047                  20743147.4104
        18.0004         30.0004
 00  5  1 20 10 30.0000000  0  6G 5G 6G17G10G24G30
  21171807.8054    3366763.76148   2615281.86747                  21171816.0944
        29.5004         27.7504
  22131814.5784   -7391961.30747  -5695355.56746                  22131822.5044
        25.5004         23.0004
  23596351.8524   -9113768.57746  -6953633.97946                  23596366.1524
        14.2504         14.0004
  20985967.6564   -3767436.25748  -2886244.01547                  20985974.7854
        32.0004         28.7504
  22390759.3674    6066432.59147   4680269.36646                  22390766.9654
        25.0004         20.0004
  20741880.5784   -4178468.14046  -3192061.65547                  20741887.1054
        17.7504         30.0004
 00  5  1 20 10 45.0000000  0  6G 5G 6G17G10G24G30
  21177357.8054    3395928.67448   2638007.71547                  21177366.1174
        29.5004         27.7504
  22125161.1334   -7426925.99947  -5722600.73846                  22125169.3284
        26.0004         23.0004
  23588511.1884   -9154975.12246  -6985742.83346                  23588525.6884
        14.5004         14.5004
  20985313.0704   -3770876.90648  -2888925.02647                  20985320.2704
        32.0004         29.0004
  22397106.6564    6099787.82747   4706260.44446                  22397114.0554
        24.7504         19.7504
  20740647.5864   -4184947.45846  -3197110.48247                  20740654.0664
        17.7504         30.0004
 00  5  1 20 11  0.0000000  0  6G 5G 6G17G10G24G30
  21182927.1644    3425195.49948   2660812.96947                  21182935.4774
        29.0004         27.7504
  22118512.0394   -7461868.08847  -5749828.30846                  22118520.0704
        26.5004         23.2504
  23580677.6724   -9196136.07446  -7017816.13346                  23580692.4884
        14.5004         14.7504
  20984687.6484   -3774163.52348  -2891486.01347                  20984694.8714
        32.0004         29.0004
  22403457.5784    6133161.77247   4732266.08946                  22403465.1884
        24.7504         19.7504
  20739441.2664   -4191285.59746  -3202049.30547                  20739447.8524
        18.0004         30.0004
 00  5  1 20 11 15.0000000  0  6G 5G 6G17G10G24G30
  21188517.0784    3454570.41948   2683702.45747                  21188525.3554
        29.2504         27.5004
  22111868.2274   -7496780.24347  -5777032.55146                  22111876.3874
        26.0004         23.2504
  23572854.9144   -9237246.75946  -7049850.27746                  23572868.8164
        15.7504         14.7504
  20984092.5314   -3777289.78148  -2893922.04747                  20984099.6604
        32.0004         29.0004
  22409813.3444    6166560.00847   4758290.66946                  22409820.7894
        24.5004         19.7504
  20738262.5784   -4197479.70146  -3206875.88947                  20738269.1054
        18.0004         30.0004
 00  5  1 20 11 30.0000000  0  6G 5G 6G17G10G24G30
  21194127.3834    3484054.11248   2706676.69847                  21194135.8364
        29.0004         27.5004
  22105230.4924   -7531660.74947  -5804212.12846                  22105238.2774
        26.7504         23.2504
  23565041.7894   -9278303.99846  -7081842.78446                  23565055.8204
        15.2504         14.2504
  20983528.6094   -3780253.69048  -2896231.57247                  20983535.9024
        32.0004         28.7504
  22416173.2274    6199982.80247   4784334.38446                  22416180.9414
        24.7504         19.5004
  20737111.2734   -4203530.09046  -3211590.48947                  20737117.9304
        18.0004         30.2504
 00  5  1 20 11 45.0000000  0  6G 5G 6G17G10G24G30
  21199757.6334    3513639.62348   2729730.27847                  21199765.8984
        29.0004         27.2504
  22098597.5944   -7566517.92547  -5831373.53046                  22098605.4494
        27.2504         23.5004
  23557237.4534   -9319316.72446  -7113800.61646                  23557251.4494
        14.5004         14.2504
  20982993.1804   -3783067.44948  -2898424.10147                  20983000.4144
        31.5004         28.7504
  22422535.6094    6233418.27847   4810387.98646                  22422543.3134
        23.7504         19.2504
  20735985.2974   -4209447.65846  -3216201.59747                  20735991.7894
        17.7504         30.0004
 00  5  1 20 12  0.0000000  0  6G 5G 6G17G10G24G30
  21205408.8674    3543336.90248   2752870.95347                  21205417.2154
        29.0004         27.2504
  22091969.9614   -7601345.70247  -5858512.02346                  22091977.7814
        27.0004         23.5004
  23549442.6254   -9360279.37546  -7145719.40446                  23549456.2704
        14.7504         14.2504
  20982487.1024   -3785726.87148  -2900496.36447                  20982494.1484
        31.7504         28.7504
  22428901.5004    6266870.84847   4836454.90446                  22428909.2384
        24.0004         19.2504
  20734885.5784   -4215227.59646  -3220705.45547                  20734892.1764
        17.7504         30.0004
 00  5  1 20 12 15.0000000  0  6G 5G 6G17G10G24G30
  21211081.8054    3573148.00848   2776100.32447                  21211089.9884
        29.0004         27.0004
  22085348.1724   -7636144.25247  -5885627.73846                  22085355.9104
        27.7504         23.7504
  23541656.9454   -9401190.45846  -7177598.01846                  23541670.4024
        15.0004         14.5004
  20982010.1644   -3788232.74948  -2902448.98647                  20982017.3404
        31.7504         29.0004
  22435270.2814    6300340.62547   4862535.22946                  22435277.9264
        23.7504         19.2504
  20733812.1564   -4220866.68146  -3225099.55647                  20733818.7074
        18.0004         30.0004
 00  5  1 20 12 30.0000000  0  6G 5G 6G17G10G24G30
  21216777.0474    3603076.73448   2799421.34747                  21216785.2544
        28.5004         27.2504
  22078731.7734   -7670912.84347  -5912720.11346                  22078739.3714
        27.2504         24.0004
  23533882.4844   -9442045.64046  -7209433.07846                  23533896.7034
        15.5004         14.5004
  20981563.4064   -3790582.01548  -2904279.57047                  20981570.6054
        32.0004         28.5004
  22441644.1804    6333832.57847   4888632.83746                  22441651.7774
        24.2504         19.2504
  20732767.3754   -4226358.16946  -3229378.65147                  20732773.7624
        17.7504         30.0004
 00  5  1 20 12 45.0000000  0  6G 5G 6G17G10G24G30
  21222495.3444    3633125.38548   2822835.82047                  21222503.7384
        28.2504         27.0004
  22072120.5634   -7705654.88347  -5939791.78946                  22072128.3244
        27.5004         23.7504
  23526118.3834   -9482845.17646  -7241224.77246                  23526132.6254
        14.7504         14.2504
  20981146.0314   -3792774.73648  -2905988.16947                  20981153.0554
        32.0004         28.7504
  22448021.9144    6367348.24047   4914748.92246                  22448029.5594
        24.2504         19.5004
  20731750.8364   -4231699.94446  -3233541.08447                  20731757.1994
        18.0004         30.0004
 00  5  1 20 13  0.0000000  0  6G 5G 6G17G10G24G30
  21228234.9384    3663288.71148   2846339.64747                  21228243.4144
        28.2504         27.0004
  22065512.9774   -7740377.48348  -5966848.32146                  22065520.6914
        28.0004         24.2504
  23518364.1024   -9523591.41946  -7272974.93446                  23518378.5784
        14.7504         14.5004
  20980757.8674   -3794814.47448  -2907577.56647                  20980764.8324
        31.7504         28.7504
  22454403.0634    6400880.80047   4940878.17746                  22454410.8954
        24.5004         19.0004
  20730761.9614   -4236897.60746  -3237591.22247                  20730768.3134
        17.7504         30.0004
 00  5  1 20 13 15.0000000  0  6G 5G 6G17G10G24G30
  21233996.4844    3693565.99648   2869932.27447                  21234004.9964
        28.0004         26.7504
  22058909.0864   -7775081.96648  -5993890.74246                  22058916.6254
        28.0004         23.7504
  23510620.8524   -9564283.40946  -7304682.82246                  23510635.8674
        14.5004         14.5004
  20980398.6094   -3796702.26848  -2909048.56247                  20980405.7034
        32.0004         28.7504
  22460787.1414    6434430.37347   4967020.67946                  22460794.6094
        24.2504         19.2504
  20729799.9534   -4241951.77046  -3241529.54247                  20729806.2934
        18.0004         30.0004
 00  5  1 20 13 30.0000000  0  6G 5G 6G17G10G24G30
  21239780.5704    3723961.25848   2893616.83347                  21239788.9654
        28.0004         26.7504
  22052308.8284   -7809765.58947  -6020916.90446                  22052316.4734
        27.2504         24.0004
  23502888.7274   -9604915.87546  -7336344.35346                  23502902.7934
        14.7504         14.5004
  20980069.2974   -3798433.17048  -2910397.30247                  20980076.3094
        32.2504         28.7504
  22467175.9384    6468002.09247   4993180.44546                  22467183.6764
        24.2504         19.2504
  20728866.8754   -4246856.02246  -3245351.04847                  20728873.3094
        18.2504         29.7504
 00  5  1 20 13 45.0000000  0  6G 5G 6G17G10G24G30
  21245585.6804    3754467.56948   2917387.91347                  21245594.0514
        28.0004         26.5004
  22045712.3524   -7844432.03247  -6047929.67546                  22045720.0434
        27.7504         24.2504
  23495167.2974   -9645491.94446  -7367961.89646                  23495181.4344
        15.0004         14.2504
  20979768.7734   -3800011.92948  -2911627.48747                  20979775.8324
        32.0004         28.7504
  22473567.3834    6501590.90147   5019353.52246                  22473575.2734
        24.5004         19.2504
  20727962.1174   -4251610.48646  -3249055.83947                  20727968.4924
        18.2504         29.7504
 00  5  1 20 14  0.0000000  0  6G 5G 6G17G10G24G30
  21251412.8134    3785087.82047   2941247.78647                  21251421.2774
        27.7504         26.5004
  22039119.3204   -7879078.00547  -6074926.49546                  22039127.0004
        27.2504         24.0004
  23487457.0864   -9686009.40246  -7399533.79746                  23487470.9304
        15.2504         14.2504
  20979497.7664   -3801435.55248  -2912736.79347                  20979504.7894
        32.2504         29.0004
  22479963.2424    6535200.25947   5045542.61846                  22479970.8284
        24.2504         19.2504
  20727086.6724   -4256210.67346  -3252640.41347                  20727092.9414
        18.5004         29.7504
 00  5  1 20 14 15.0000000  0  6G 5G 6G17G10G24G30
  21257260.5944    3815818.39847   2965193.62547                  21257269.1414
        27.7504         26.5004
  22032530.1334   -7913703.51248  -6101907.37046                  22032537.6844
        28.0004         24.0004
  23479757.6954   -9726467.13646  -7431059.16346                  23479771.6804
        15.0004         14.7504
  20979256.6094   -3802702.69548  -2913724.16247                  20979263.5514
        32.5004         28.7504
  22486363.2274    6568832.71647   5071749.70846                  22486370.5314
        23.7504         19.0004
  20726241.1024   -4260653.83446  -3256102.62747                  20726247.4184
        19.7504         29.7504
 00  5  1 20 14 30.0000000  0  6G 5G 6G17G10G24G30
  21263128.2974    3846652.79547   2989220.36247                  21263136.8444
        27.5004         26.5004
  22025944.5474   -7948311.57748  -6128874.65746                  22025952.1564
        28.0004         24.0004
  23472069.4064   -9766869.81846  -7462541.62646                  23472083.5784
        14.5004         14.7504
  20979044.1644   -3803819.15348  -2914594.11647                  20979051.2464
        31.7504         28.7504
  22492767.2194    6602484.73247   5097972.03846                  22492774.6884
        24.5004         19.0004
  20725424.9694   -4264942.67346  -3259444.58947                  20725431.4384
        18.2504         29.7504
 00  5  1 20 14 45.0000000  0  6G 5G 6G17G10G24G30
  21269016.8134    3877597.23147   3013332.84647                  21269025.3244
        27.5004         26.2504
  22019364.3284   -7982891.50548  -6155820.01646                  22019371.8444
        28.0004         23.7504
  23464392.8444   -9807208.46046  -7493974.18446                  23464406.8634
        14.7504         14.5004
  20978862.0234   -3804776.64148  -2915340.20047                  20978868.9534
        32.0004         28.7504
  22499176.1334    6636164.59547   5124216.07046                  22499183.9184
        24.2504         19.0004
  20724639.5234   -4269071.11946  -3262661.57347                  20724645.9804
        18.5004         29.7504
 00  5  1 20 15  0.0000000  0  6G 5G 6G17G10G24G30
  21274924.6884    3908641.72347   3037523.29447                  21274933.2344
        27.5004         26.2504
  22012787.8754   -8017448.82248  -6182747.75446                  22012795.5784
        28.0004         23.7504
  23456727.4844   -9847491.39546  -7525363.32246                  23456741.8674
        14.7504         14.7504
  20978708.5944   -3805582.63148  -2915968.23047                  20978715.5234
        32.2504         29.0004
  22505588.3524    6669862.06747   5150473.82446                  22505596.1024
        24.0004         19.0004
  20723882.2894   -4273049.52346  -3265761.64147                  20723888.6994
        18.2504         29.7504
 00  5  1 20 15 15.0000000  0  6G 5G 6G17G10G24G30
  21280852.6254    3939794.20447   3061797.89247                  21280861.0554
        27.5004         26.5004
  22006217.9384   -8051972.34948  -6209649.16946                  22006225.3484
        28.0004         24.0004
  23449073.9534   -9887711.44246  -7556703.47646                  23449088.1724
        15.2504         14.5004
  20978585.8754   -3806227.68448  -2916470.85847                  20978593.0164
        32.0004         29.0004
  22512006.2114    6703586.86647   5176752.87246                  22512013.4924
        23.5004         18.5004
  20723155.4924   -4276869.13446  -3268737.97347                  20723161.9844
        18.2504         29.5004
 00  5  1 20 15 30.0000000  0  6G 5G 6G17G10G24G30
  21286801.2734    3971053.73447   3086155.90347                  21286810.0204
        27.2504         26.2504
  21999654.4534   -8086466.01948  -6236527.31346                  21999662.2154
        28.0004         24.2504
  23441430.7894   -9927874.73546  -7587999.40746                  23441443.9184
        15.2504         14.7504
  20978493.3134   -3806714.13848  -2916849.90247                  20978500.4304
        32.2504         28.7504
  22518428.3134    6737336.43247   5203051.21546                  22518435.8164
        23.7504         19.0004
  20722458.4144   -4280532.46146  -3271592.52747                  20722464.9064
        18.2504         29.7504
 00  5  1 20 15 45.0000000  0  6G 5G 6G17G10G24G30
  21292769.7974    4002418.92847   3110596.24747                  21292778.3914
        27.2504         26.2504
  21993095.9924   -8120929.35548  -6263381.82746                  21993103.5314
        28.2504         24.0004
  23433798.4924   -9967981.37846  -7619251.20446                  23433811.5744
        15.2504         14.7504
  20978430.8594   -3807042.57848  -2917105.81547                  20978437.8714
        32.2504         29.0004
  22524854.2664    6771106.75547   5229365.73646                  22524862.1804
        23.2504         19.0004
  20721791.3134   -4284037.84346  -3274324.00347                  20721797.8054
        18.7504         29.5004
 00  5  1 20 16  0.0000000  0  6G 5G 6G17G10G24G30
  21298758.5004    4033890.33147   3135119.35047                  21298767.3524
        27.2504         26.0004
  21986543.5084   -8155363.75548  -6290213.78946                  21986551.1294
        28.5004         24.0004
  23426176.6884  -10008034.16046  -7650461.00446                  23426190.3094
        15.2504         14.7504
  20978398.2034   -3807214.09048  -2917239.44447                  20978405.3914
        32.0004         28.7504
  22531284.2664    6804894.60047   5255693.90946                  22531292.0634
        23.7504         18.7504
  20721153.7734   -4287388.98247  -3276935.29147                  20721160.2304
        21.2504         29.5004
 00  5  1 20 16 15.0000000  0  6G 5G 6G17G10G24G30
  21304768.8524    4065474.19547   3159730.08747                  21304777.6684
        27.0004         26.0004
  21979996.5164   -8189768.16648  -6317022.38846                  21980003.9844
        28.2504         24.0004
  23418565.2114  -10048030.53846  -7681626.87246                  23418579.0904
        15.0004         15.0004
  20978395.7504   -3807226.78748  -2917249.32647                  20978402.9844
        32.2504         29.0004
  22537718.2114    6838704.08047   5282038.94546                  22537725.7154
        23.5004         18.7504
  20720545.5704   -4290584.59747  -3279425.39547                  20720552.0274
        25.0004         29.2504
 00  5  1 20 16 30.0000000  0  6G 5G 6G17G10G24G30
  21310799.8594    4097165.87447   3184424.83247                  21310808.7114
        26.7504         26.0004
  21973454.1954   -8224148.03148  -6343811.85846                  21973461.5594
        28.2504         24.2504
  23410963.8364  -10087976.27246  -7712753.26846                  23410978.0434
        15.7504         15.0004
  20978422.0394   -3807088.69048  -2917141.70447                  20978429.0984
        32.2504         29.0004
  22544154.7114    6872529.31947   5308396.24646                  22544162.5904
        23.5004         18.7504
  20719965.4844   -4293631.93047  -3281799.94947                  20719972.1414
        26.0004         29.2504
 00  5  1 20 16 45.0000000  0  6G 5G 6G17G10G24G30
  21316850.5314    4128963.32347   3209201.99547                  21316859.3594
        26.7504         25.7504
  21966916.3834   -8258504.56848  -6370583.15446                  21966923.6764
        28.2504         24.2504
  23403371.9534  -10127874.34346  -7743842.51946                  23403385.4804
        16.5004         15.0004
  20978476.5784   -3806801.60648  -2916917.98747                  20978483.4224
        32.2504         29.0004
  22550593.5634    6906366.48647   5334762.84146                  22550601.5824
        24.0004         18.7504
  20719413.1094   -4296535.13247  -3284062.19747                  20719419.7544
        26.0004         29.2504
 00  5  1 20 17  0.0000000  0  6G 5G 6G17G10G24G30
  21322923.0394    4160873.61347   3234067.08647                  21322932.0314
        26.7504         25.7504
  21960384.0394   -8292832.30148  -6397332.00446                  21960391.3094
        28.2504         24.2504
  23395788.8984  -10167719.08446  -7774890.25246                  23395801.8284
        15.2504         15.0004
  20978561.3054   -3806357.17848  -2916571.66547                  20978568.2934
        32.0004         29.0004
  22557035.8984    6940219.62847   5361141.89446                  22557043.6024
        23.7504         18.7504
  20718889.1094   -4299289.18447  -3286208.22447                  20718895.7074
        24.2504         29.2504
 00  5  1 20 17 15.0000000  0  6G 5G 6G17G10G24G30
  21329017.5004    4192899.35147   3259022.13747                  21329026.2584
        27.2504         26.0004
  21953856.6884   -8327132.81948  -6424059.64546                  21953863.9574
        28.2504         24.0004
  23388216.9774  -10207510.29646  -7805896.23446                  23388230.5744
        15.5004         14.7504
  20978675.9454   -3805754.00248  -2916101.64747                  20978682.9804
        32.0004         29.0004
  22563480.8984    6974088.53247   5387533.22846                  22563488.7774
        23.5004         19.0004
  20718394.0234   -4301890.80947  -3288235.47847                  20718400.5744
        24.5004         29.5004
 00  5  1 20 17 30.0000000  0  6G 5G 6G17G10G24G30
  21335133.6094    4225040.32047   3284066.97947                  21335142.3204
        27.2504         26.0004
  21947334.0004   -8361409.55748  -6450768.75346                  21947341.6454
        28.2504         24.2504
  23380655.2504  -10247248.35846  -7836860.81946                  23380668.9064
        16.0004         15.2504
  20978820.5634   -3804994.62148  -2915509.90547                  20978827.6804
        32.0004         29.2504
  22569928.6484    7007970.55647   5413934.78046                  22569936.4924
        24.2504         19.0004
  20717927.8914   -4304340.39047  -3290144.25447                  20717934.5704
        23.5004         29.5004
 00  5  1 20 17 45.0000000  0  6G 5G 6G17G10G24G30
  21341271.2114    4257293.01947   3309198.87747                  21341279.7814
        27.2504         26.0004
  21940816.1174   -8395662.25248  -6477459.13146                  21940823.4694
        28.0004         24.2504
  23373103.8284  -10286931.76446  -7867782.82146                  23373117.0984
        16.2504         16.0004
  20978994.5864   -3804080.18748  -2914797.34247                  20979001.6334
        32.2504         29.0004
  22576377.8674    7041861.22847   5440343.07546                  22576385.7234
        24.5004         18.7504
  20717490.5314   -4306638.81747  -3291935.24647                  20717497.1054
        23.5004         29.5004
 00  5  1 20 18  0.0000000  0  6G 5G 6G17G10G24G30
  21347429.3204    4289652.74847   3334414.18447                  21347438.0784
        27.2504         26.0004
  21934302.5314   -8429891.31748  -6504131.09446                  21934310.0474
        28.2504         24.5004
  23365561.5634  -10326562.78646  -7898663.99746                  23365574.7624
        15.7504         15.5004
  20979196.8834   -3803015.24848  -2913967.50847                  20979204.0124
        31.7504         29.0004
  22582828.3284    7075758.70547   5466756.67446                  22582836.0904
        24.2504         18.5004
  20717081.1484   -4308790.34247  -3293611.77447                  20717087.7464
        20.7504         29.7504
 00  5  1 20 18 15.0000000  0  6G 5G 6G17G10G24G30
  21353608.0314    4322122.68247   3359715.36147                  21353616.9414
        27.2504         26.0004
  21927794.2344   -8464091.52747  -6530780.56946                  21927801.8204
        27.7504         24.2504
  23358030.6884  -10366138.25246  -7929501.88246                  23358043.8164
        16.0004         15.5004
  20979429.6254   -3801794.90248  -2913016.57547                  20979436.6604
        32.2504         29.0004
  22589281.1724    7109668.71547   5493180.04746                  22589288.6414
        23.7504         18.5004
  20716700.0554   -4310793.04647  -3295172.33247                  20716706.6764
        21.2504         29.5004
 00  5  1 20 18 30.0000000  0  6G 5G 6G17G10G24G30
  21359807.1954    4354699.96947   3385100.18947                  21359816.0354
        27.2504         25.7504
  21921292.0314   -8498261.64948  -6557406.59746                  21921299.5474
        28.0004         24.2504
  23350510.8054  -10405656.83846  -7960295.44846                  23350523.6414
        16.2504         15.5004
  20979691.1414   -3800418.81648  -2911944.28847                  20979698.1294
        31.7504         29.0004
  22595736.6954    7143591.78347   5519613.57946                  22595744.5394
        24.2504         18.5004
  20716347.3524   -4312646.92447  -3296616.92647                  20716354.0314
        23.5004         29.5004
 00  5  1 20 18 45.0000000  0  6G 5G 6G17G10G24G30
  21366027.4304    4387386.99847   3410570.52747                  21366036.2584
        27.2504         26.0004
  21914796.5864   -8532394.77048  -6584003.79846                  21914804.0664
        28.5004         24.2504
  23343002.7664  -10445111.87646  -7991039.51746                  23343015.2854
        16.2504         16.0004
  20979984.0084   -3798879.46748  -2910744.78047                  20979990.9844
        31.7504         28.7504
  22602195.1414    7177532.71947   5546061.04646                  22602203.0204
        23.2504         18.5004
  20716024.1804   -4314344.56546  -3297939.77847                  20716030.7074
        19.7504         29.7504
 00  5  1 20 19  0.0000000  0  6G 5G 6G17G10G24G30
  21372267.7504    4420179.12747   3436122.76747                  21372276.5784
        27.0004         25.7504
  21908307.4384   -8566495.76448  -6610575.96546                  21908315.1174
        28.0004         24.5004
  23335505.9304  -10484506.84146  -8021736.75946                  23335519.3164
        15.7504         16.0004
  20980307.5394   -3797179.63248  -2909420.21847                  20980314.5164
        31.7504         29.0004
  22608656.5944    7211488.02447   5572519.70446                  22608664.6604
        23.0004         18.2504
  20715730.2894   -4315888.88447  -3299143.15747                  20715736.8754
        21.2504         29.7504
 00  5  1 20 19 15.0000000  0  6G 5G 6G17G10G24G30
  21378526.8674    4453071.32747   3461752.98247                  21378535.6484
        27.2504         26.0004
  21901823.2274   -8600569.58147  -6637126.95646                  21901830.6024
        27.7504         24.5004
  23328019.8674  -10523844.59846  -8052389.41246                  23328033.3484
        15.5004         15.5004
  20980660.5784   -3795323.28148  -2907973.69547                  20980667.5784
        31.7504         29.0004
  22615120.4144    7245455.04547   5598987.48446                  22615128.2934
        23.0004         18.2504
  20715465.3134   -4317282.47746  -3300229.08447                  20715471.9104
        19.0004         29.7504
 00  5  1 20 19 30.0000000  0  6G 5G 6G17G10G24G30
  21384805.5234    4486064.57347   3487461.93647                  21384814.3874
        27.2504         26.0004
  21895345.2974   -8634612.13648  -6663653.58046                  21895352.8134
        28.2504         24.5004
  23320545.0784  -10563123.76646  -8082996.42446                  23320557.8914
        15.7504         15.2504
  20981044.2114   -3793306.92648  -2906402.49447                  20981051.2934
        31.7504         29.0004
  22621587.7734    7279440.24947   5625469.44346                  22621595.4064
        23.7504         18.0004
  20715229.2274   -4318522.20547  -3301195.12047                  20715235.8244
        21.7504         29.5004
 00  5  1 20 19 45.0000000  0  6G 5G 6G17G10G24G30
  21391102.1094    4519152.27747   3513244.49047                  21391110.9264
        27.2504         26.0004
  21888872.7424   -8668624.13648  -6690156.40446                  21888880.0594
        28.2504         24.5004
  23313080.6024  -10602350.40246  -8113562.51246                  23313093.0044
        16.7504         15.5004
  20981457.7734   -3791134.96648  -2904710.04447                  20981464.8094
        31.7504         28.7504
  22628057.8134    7313440.00047   5651962.73546                  22628065.4344
        24.0004         18.2504
  20715021.6724   -4319613.27247  -3302045.31447                  20715028.2704
        20.0004         29.2504
 00  5  1 20 20  0.0000000  0  6G 5G 6G17G10G24G30
  21397416.6954    4552336.11947   3539101.96047                  21397425.7344
        27.7504         26.0004
  21882407.4144   -8702600.60548  -6716631.53646                  21882414.8244
        28.2504         24.5004
  23305626.8594  -10641521.57446  -8144085.38446                  23305639.3554
        16.7504         16.0004
  20981901.3444   -3788803.86248  -2902893.58747                  20981908.3324
        31.7504         28.7504
  22634531.4224    7347459.16547   5678471.15546                  22634539.1254
        23.7504         18.5004
  20714842.5864   -4320554.34247  -3302778.62647                  20714849.1484
        22.2504         29.5004
 00  5  1 20 20 15.0000000  0  6G 5G 6G17G10G24G30
  21403749.9064    4585616.75147   3565034.84747                  21403758.8284
        27.2504         26.0004
  21875948.3984   -8736543.05248  -6743080.16146                  21875956.0084
        28.2504         24.7504
  23298182.1954  -10680638.26446  -8174565.78946                  23298195.0784
        16.2504         16.0004
  20982375.1334   -3786314.35948  -2900953.69247                  20982382.1914
        32.0004         28.7504
  22641009.1024    7381499.04747   5704995.71946                  22641016.8054
        23.7504         18.2504
  20714691.9694   -4321346.15747  -3303395.63647                  20714698.6954
        21.2504         29.5004
 00  5  1 20 20 30.0000000  0  6G 5G 6G17G10G24G30
  21410101.2734    4618992.80447   3591042.09147                  21410110.0904
        27.5004         26.0004
  21869495.1884   -8770454.06748  -6769504.29746                  21869502.5514
        28.0004         24.7504
  23290749.2894  -10719702.01046  -8205004.94246                  23290762.5704
        17.0004         16.0004
  20982878.6644   -3783667.28048  -2898891.02247                  20982885.5474
        31.7504         28.7504
  22647489.7194    7415556.07247   5731533.64146                  22647497.5274
        22.7504         18.0004
  20714569.8284   -4321988.07847  -3303895.85247                  20714576.4734
        21.7504         29.5004
 00  5  1 20 20 45.0000000  0  6G 5G 6G17G10G24G30
  21416471.7274    4652470.59547   3617128.61247                  21416480.7424
        27.5004         25.7504
  21863049.1174   -8804329.21148  -6795900.47346                  21863056.4574
        28.2504         24.7504
  23283326.8364  -10758706.49846  -8235397.91846                  23283339.9654
        17.2504         16.5004
  20983413.2814   -3780858.33548  -2896702.21547                  20983420.3164
        31.5004         28.5004
  22653975.1644    7449635.79347   5758089.24446                  22653983.0314
        22.7504         18.2504
  20714477.4774   -4322473.59047  -3304274.18447                  20714484.3594
        20.0004         29.5004
 00  5  1 20 21  0.0000000  0  6G 5G 6G17G10G24G30
  21422862.0554    4686051.26747   3643295.29447                  21422870.8714
        27.2504         25.7504
  21856609.1174   -8838170.55848  -6822270.32346                  21856616.9264
        28.5004         25.0004
  23275915.1024  -10797653.32246  -8265745.97546                  23275928.1254
        16.7504         16.2504
  20983977.8914   -3777890.64148  -2894389.71747                  20983984.9964
        31.5004         28.7504
  22660463.3284    7483734.29547   5784659.47946                  22660471.2304
        22.5004         18.0004
  20714414.6954   -4322802.31146  -3304530.34447                  20714421.3984
        19.5004         29.7504
 00  5  1 20 21 15.0000000  0  6G 5G 6G17G10G24G30
  21429271.7894    4719735.44247   3669542.63346                  21429280.6414
        27.2504         25.5004
  21850176.0394   -8871976.97348  -6848612.95046                  21850183.7194
        28.0004         25.0004
  23268514.3364  -10836544.98646  -8296051.04646                  23268527.3244
        16.5004         15.7504
  20984572.8204   -3774764.81148  -2891953.99647                  20984579.8794
        31.5004         28.5004
  22666955.7504    7517850.67047   5811243.64446                  22666963.9104
        22.2504         17.7504
  20714381.8834   -4322976.25346  -3304665.90047                  20714388.5984
        19.2504         29.5004
 00  5  1 20 21 30.0000000  0  6G 5G 6G17G10G24G30
  21435700.6564    4753518.24647   3695866.82246                  21435709.4264
        27.2504         25.5004
  21843748.7344   -8905750.93448  -6874930.29046                  21843756.2154
        28.0004         25.0004
  23261122.8594  -10875387.20846  -8326317.59846                  23261135.6374
        16.7504         16.0004
  20985196.5634   -3771486.26748  -2889399.26947                  20985203.7854
        31.2504         28.5004
  22673449.8594    7551978.43547   5837836.69146                  22673458.3134
        21.0004         17.5004
  20714376.6954   -4323002.43747  -3304686.31947                  20714383.3164
        22.0004         29.5004
 00  5  1 20 21 45.0000000  0  6G 5G 6G17G10G24G30
  21442148.3054    4787401.51047   3722269.29246                  21442156.9574
        27.0004         25.2504
  21837328.8134   -8939490.12748  -6901220.53346                  21837336.3874
        28.5004         25.2504
  23253740.9454  -10914180.20046  -8356545.77446                  23253753.5594
        17.7504         16.5004
  20985849.1024   -3768056.64148  -2886726.82047                  20985856.2424
        31.5004         28.5004
  22679945.7274    7586113.93147   5864435.74846                  22679953.8984
        21.5004         17.5004
  20714399.6564   -4322882.70347  -3304593.03447                  20714406.3134
        22.7504         29.5004
 00  5  1 20 22  0.0000000  0  6G 5G 6G17G10G24G30
  21448616.4144    4821390.29347   3748753.98946                  21448625.2544
        26.7504         25.2504
  21830915.4304   -8973192.08548  -6927481.75946                  21830923.0394
        28.5004         25.2504
  23246369.0234  -10952918.86046  -8386731.61846                  23246381.6484
        17.0004         16.2504
  20986530.5634   -3764475.26648  -2883936.12147                  20986537.7734
        31.5004         28.7504
  22686443.1414    7620257.55547   5891041.14646                  22686450.8444
        21.7504         17.5004
  20714450.7504   -4322613.50947  -3304383.28847                  20714457.4884
        20.7504         30.0004
 00  5  1 20 22 15.0000000  0  6G 5G 6G17G10G24G30
  21455105.3134    4855489.84047   3775324.99247                  21455114.2234
        27.0004         26.2504
  21824508.9844   -9006856.61548  -6953713.82946                  21824516.3954
        28.5004         25.5004
  23239007.7504  -10991599.73746  -8416872.44046                  23239020.0474
        16.5004         16.0004
  20987241.4694   -3760740.17748  -2881025.65247                  20987248.5634
        31.2504         28.5004
  22692942.3204    7654412.50147   5917655.39546                  22692949.1644
        21.5004         19.5004
  20714531.1174   -4322191.83047  -3304054.72247                  20714537.8324
        20.2504         29.5004
 00  5  1 20 22 30.0000000  0  6G 5G 6G17G10G24G30
  21461615.1954    4889700.06547   3801982.23746                  21461624.2464
        27.5004         25.2504
  21818109.4844   -9040486.33548  -6979918.76746                  21818117.0474
        28.7504         25.2504
  23231657.8134  -11030225.78246  -8446970.54746                  23231670.0984
        17.0004         16.0004
  20987981.5234   -3756851.41648  -2877995.43047                  20987988.6994
        31.5004         28.5004
  22699444.2584    7688578.18647   5944277.95146                  22699452.5944
        21.5004         17.0004
  20714640.5704   -4321616.57746  -3303606.48847                  20714647.2734
        19.5004         29.5004
 00  5  1 20 22 45.0000000  0  6G 5G 6G17G10G24G30
  21468146.4774    4924020.66747   3828725.48346                  21468155.5744
        26.7504         25.0004
  21811716.3984   -9074082.97148  -7006097.92946                  21811723.9384
        29.0004         25.2504
  23224317.6094  -11068797.62646  -8477026.39946                  23224330.0234
        17.2504         16.2504
  20988750.8914   -3752807.71648  -2874844.48747                  20988757.9264
        31.5004         28.5004
  22705947.7664    7722755.98847   5970909.98246                  22705955.7734
        20.5004         17.2504
  20714779.0394   -4320889.24147  -3303039.74647                  20714785.7894
        20.2504         29.7504
 00  5  1 20 23  0.0000000  0  6G 5G 6G17G10G24G30
  21474698.4774    4958451.97547   3855555.00646                  21474707.6914
        26.5004         25.0004
  21805329.3054   -9107646.58048  -7032251.35046                  21805336.6564
        28.5004         25.2504
  23216988.2424  -11107314.43046  -8507039.38546                  23217000.9734
        17.7504         16.7504
  20989550.0004   -3748608.12848  -2871572.06847                  20989557.0944
        30.7504         28.5004
  22712453.9694    7756947.47947   5997552.67846                  22712462.1174
        20.5004         17.0004
  20714946.1804   -4320010.54547  -3302355.06547                  20714952.8834
        21.0004         29.5004
 00  5  1 20 23 15.0000000  0  6G 5G 6G17G10G24G30
  21481270.4144    4992987.81347   3882465.97146                  21481279.4884
        26.7504         25.0004
  21798948.1174   -9141179.90048  -7058381.17146                  21798955.6334
        29.2504         25.5004
  23209667.7194  -11145781.59746  -8537013.66846                  23209680.8364
        16.2504         16.7504
  20990378.4924   -3744253.99748  -2868179.22347                  20990385.5274
        31.2504         28.5004
  22718962.7814    7791148.22347   6024202.58146                  22718971.1294
        21.2504         17.0004
  20715141.3834   -4318985.39846  -3301556.26847                  20715147.9924
        19.5004         29.5004
 00  5  1 20 23 30.0000000  0  6G 5G 6G17G10G24G30
  21487862.9844    5027630.64147   3909460.30846                  21487872.3634
        26.5004         25.2504
  21792573.3754   -9174679.37948  -7084484.62846                  21792580.9384
        29.0004         25.5004
  23202358.0394  -11184194.14146  -8566945.39246                  23202371.1454
        16.5004         16.0004
  20991237.8204   -3739738.68748  -2864660.78847                  20991244.9844
        31.2504         28.2504
  22725473.8444    7825364.57047   6050864.64346                  22725482.1804
        21.0004         17.0004
  20715365.1094   -4317810.04446  -3300640.42047                  20715371.7304
        19.2504         29.7504
 00  5  1 20 23 45.0000000  0  6G 5G 6G17G10G24G30
  21494475.0634    5062377.72847   3936535.88346                  21494484.2544
        27.0004         25.0004
  21786204.3204   -9208149.21048  -7110564.97846                  21786211.5204
        29.2504         25.5004
  23195058.5864  -11222552.36846  -8596834.80946                  23195070.7194
        17.7504         16.5004
  20992127.3834   -3735064.06648  -2861018.21147                  20992134.3244
        31.2504         28.5004
  22731987.7584    7859595.33147   6077537.93646                  22731996.1054
        20.5004         16.7504
  20715617.4454   -4316484.12546  -3299607.25247                  20715624.0204
        19.2504         29.7504
 00  5  1 20 24  0.0000000  0  6G 5G 6G17G10G24G30
  21501106.4384    5097225.80647   3963690.15346                  21501115.5704
        26.7504         24.7504
  21779839.5234   -9241595.96748  -7136627.35646                  21779846.8164
        29.2504         25.5004
  23187768.8834  -11260859.85246  -8626684.68946                  23187781.1454
        17.0004         16.5004
  20993046.9064   -3730231.23348  -2857252.35747                  20993053.8834
        31.0004         28.5004
  22738504.5474    7893840.69647   6104222.61546                  22738512.4144
        20.7504         16.7504
  20715898.5784   -4315006.54547  -3298455.90947                  20715905.2464
        20.5004         29.7504
 00  5  1 20 24 15.0000000  0  6G 5G 6G17G10G24G30
  21507756.7194    5132172.47947   3990921.25246                  21507765.8164
        26.2504         24.7504
  21773478.7194   -9275022.02348  -7162673.59047                  21773485.9654
        29.5004         25.7504
  23180489.1644  -11299113.99346  -8656492.99446                  23180502.1294
        16.2504         16.2504
  20993996.7344   -3725240.03448  -2853363.09447                  20994003.8524
        31.5004         28.7504
  22745024.3364    7928103.26447   6130920.69846                  22745032.2274
        21.0004         16.7504
  20716208.7274   -4313376.88747  -3297186.06447                  20716215.3364
        20.0004         29.7504
 00  5  1 20 24 30.0000000  0  6G 5G 6G17G10G24G30
  21514426.2194    5167221.05347   4018231.75146                  21514435.2464
        26.2504         24.5004
  21767122.9694   -9308421.92848  -7188699.46246                  21767130.1454
        29.2504         25.5004
  23173220.9304  -11337308.16546  -8686254.55246                  23173233.7544
        16.7504         16.2504
  20994978.1484   -3720083.66948  -2849345.13447                  20994985.2664
        31.7504         28.5004
  22751548.4304    7962388.10947   6157636.13646                  22751556.0984
        21.0004         16.7504
  20716548.8364   -4311588.74147  -3295792.72147                  20716555.4574
        21.0004         29.7504
 00  5  1 20 24 45.0000000  0  6G 5G 6G17G10G24G30
  21521114.0554    5202364.80247   4045616.40946                  21521123.2234
        26.2504         24.7504
  21760771.0944   -9341800.49048  -7214708.69947                  21760778.1884
        29.0004         25.7504
  23165963.7194  -11375445.67446  -8715971.97146                  23165976.1334
        17.7504         16.5004
  20995989.5234   -3714768.71248  -2845203.59447                  20995996.5704
        31.7504         28.7504
  22758075.4614    7996687.29547   6184362.75946                  22758083.1884
        21.5004         16.5004
  20716918.4384   -4309647.52647  -3294280.10247                  20716925.3094
        21.2504         29.7504
 00  5  1 20 25  0.0000000  0  6G 5G 6G17G10G24G30
  21527821.2814    5237611.95947   4073081.65346                  21527830.5664
        26.2504         24.5004
  21754425.6804   -9375145.98448  -7240692.16346                  21754432.9264
        29.0004         25.5004
  23158719.2034  -11413514.93846  -8745636.22146                  23158731.1724
        17.7504         16.5004
  20997032.2504   -3709289.46948  -2840934.04247                  20997039.1454
        32.0004         28.7504
  22764606.1804    8031006.45347   6211104.93146                  22764614.2114
        21.2504         17.0004
  20717318.2974   -4307545.20647  -3292641.95347                  20717325.0234
        23.5004         29.7504
 00  5  1 20 25 15.0000000  0  6G 5G 6G17G10G24G30
  21534547.8444    5272959.94247   4100625.45746                  21534557.2344
        26.2504         24.5004
  21748086.8524   -9408455.87948  -7266647.89646                  21748093.8874
        28.7504         25.5004
  23151487.6024  -11451516.72546  -8775247.89646                  23151499.5944
        17.2504         16.0004
  20998105.0234   -3703651.22748  -2836540.59447                  20998111.8094
        31.7504         28.7504
  22771140.1484    8065342.67947   6237860.41446                  22771147.4774
        21.2504         16.7504
  20717748.9224   -4305282.59847  -3290878.89547                  20717755.6724
        20.5004         29.7504
 00  5  1 20 25 30.0000000  0  6G 5G 6G17G10G24G30
  21541292.3594    5308402.16147   4128242.69546                  21541301.6454
        26.2504         24.5004
  21741753.6954   -9441736.64748  -7292580.93246                  21741760.8244
        28.7504         25.5004
  23144267.4064  -11489458.65846  -8804812.92146                  23144279.7504
        17.7504         16.5004
  20999206.7114   -3697862.70648  -2832030.04247                  20999213.6414
        32.0004         28.5004
  22777676.0394    8099689.21047   6264623.91746                  22777683.8484
        21.7504         16.7504
  20718209.2344   -4302864.38447  -3288994.59347                  20718216.1054
        23.0004         29.7504
 00  5  1 20 25 45.0000000  0  6G 5G 6G17G10G24G30
  21548054.7894    5343939.37047   4155933.94346                  21548064.0274
        26.0004         24.7504
  21735426.1724   -9474988.00948  -7318491.04647                  21735433.8754
        29.0004         25.7504
  23137059.5944  -11527336.74146  -8834328.19446                  23137072.0434
        18.0004         16.5004
  21000336.5084   -3691926.77048  -2827404.62247                  21000343.5084
        31.7504         28.5004
  22784214.5704    8134048.77647   6291397.58846                  22784222.6604
        21.2504         16.7504
  20718699.1414   -4300289.51947  -3286988.22547                  20718706.0594
        23.0004         29.7504
 00  5  1 20 26  0.0000000  0  6G 5G 6G17G10G24G30
  21554837.0474    5379578.94747   4183704.96746                  21554846.2154
        26.2504         24.5004
  21729105.9924   -9508202.08348  -7344372.10846                  21729113.3554
        29.0004         25.5004
  23129864.9774  -11565143.68846  -8863788.04446                  23129877.1914
        17.5004         16.5004
  21001494.9144   -3685836.90548  -2822659.26447                  21001501.8794
        31.7504         28.7504
  22790756.9224    8168429.72247   6318187.91346                  22790765.0004
        20.7504         16.7504
  20719220.1484   -4297551.97247  -3284855.09247                  20719227.1024
        25.0004         29.7504
 00  5  1 20 26 15.0000000  0  6G 5G 6G17G10G24G30
  21561637.7974    5415316.57447   4211552.39246                  21561647.0944
        26.0004         24.5004
  21722791.7734   -9541382.14748  -7370226.66946                  21722799.0434
        29.0004         25.5004
  23122683.0394  -11602882.30046  -8893194.63646                  23122695.2304
        17.0004         16.2504
  21002681.8204   -3679599.94048  -2817799.27347                  21002688.9144
        31.7504         28.5004
  22797302.5164    8202826.19547   6344990.33646                  22797310.0554
        21.0004         16.7504
  20719770.9774   -4294656.82847  -3282599.15347                  20719777.8594
        22.2504         29.7504
 00  5  1 20 26 30.0000000  0  6G 5G 6G17G10G24G30
  21568456.0634    5451147.53847   4239472.54646                  21568465.2074
        26.0004         24.5004
  21716483.7424   -9574531.42548  -7396057.24747                  21716491.0704
        29.5004         26.0004
  23115514.1254  -11640556.94046  -8922551.39346                  23115526.5634
        17.7504         17.0004
  21003895.2814   -3673223.31548  -2812830.46547                  21003902.2584
        31.5004         28.5004
  22803849.7664    8237231.43747   6371799.59546                  22803857.7154
        21.0004         16.5004
  20720350.0164   -4291613.97747  -3280228.12447                  20720356.8984
        22.0004         29.7504
 00  5  1 20 26 45.0000000  0  6G 5G 6G17G10G24G30
  21575296.2894    5487092.90647   4267481.84446                  21575305.6094
        26.2504         24.5004
  21710185.2584   -9607630.45748  -7421848.66547                  21710192.6914
        29.5004         26.0004
  23108359.4064  -11678154.70446  -8951848.23846                  23108371.9264
        18.0004         17.2504
  21005138.7814   -3666688.54248  -2807738.42247                  21005145.6414
        32.0004         28.5004
  22810401.9304    8271663.30547   6398629.58446                  22810409.2584
        21.5004         16.5004
  20720960.4924   -4288405.71747  -3277728.20447                  20720967.2664
        20.5004         29.7504
 00  5  1 20 27  0.0000000  0  6G 5G 6G17G10G24G30
  21582157.4694    5523147.09147   4295575.93146                  21582166.6724
        26.0004         24.2504
  21703895.6484   -9640680.70148  -7447602.06947                  21703903.0004
        29.5004         26.0004
  23101218.2664  -11715681.25446  -8981089.58446                  23101230.5164
        17.5004         16.7504
  21006412.0554   -3659997.97948  -2802524.97947                  21006418.9734
        32.0004         28.5004
  22816958.4774    8306118.04347   6425477.41646                  22816966.4024
        21.5004         16.5004
  20721601.5474   -4285037.77446  -3275103.85147                  20721608.3204
        19.7504         29.7504
 00  5  1 20 27 15.0000000  0  6G 5G 6G17G10G24G30
  21589039.1254    5559310.78347   4323755.35246                  21589048.2584
        26.5004         24.2504
  21697616.4064   -9673678.36748  -7473314.50347                  21697623.6994
        28.7504         26.0004
  23094090.3204  -11753137.79646  -9010276.38946                  23094103.0984
        17.7504         16.7504
  21007715.7664   -3653145.73648  -2797185.55847                  21007722.7424
        31.5004         28.5004
  22823520.5234    8340601.54747   6452347.65246                  22823528.7544
        20.5004         16.5004
  20722273.2344   -4281508.62747  -3272353.88847                  20722279.9384
        23.5004         29.7504
 00  5  1 20 27 30.0000000  0  6G 5G 6G17G10G24G30
  21595939.0704    5595569.82647   4352009.07646                  21595948.2504
        26.2504         24.2504
  21691344.0474   -9706640.77348  -7498999.45747                  21691351.4574
        29.0004         26.0004
  23086973.0084  -11790539.67946  -9039420.61646                  23086985.4804
        18.2504         17.2504
  21009048.5864   -3646142.25248  -2791728.28247                  21009055.5394
        32.0004         28.5004
  22830085.4064    8375099.96247   6479229.50046                  22830093.3204
        21.2504         16.5004
  20722973.0634   -4277830.42347  -3269487.77547                  20722979.8484
        21.7504         29.5004
 00  5  1 20 27 45.0000000  0  6G 5G 6G17G10G24G30
  21602856.0394    5631918.27147   4380332.45846                  21602865.3954
        26.2504         24.2504
  21685076.8284   -9739575.56048  -7524662.89747                  21685084.2274
        28.7504         25.7504
  23079865.2114  -11827890.69246  -9068525.18646                  23079877.4734
        18.5004         17.0004
  21010409.1644   -3638991.50148  -2786156.25347                  21010416.1294
        32.0004         28.2504
  22836651.8364    8409606.22747   6506117.48046                  22836659.8554
        21.5004         16.7504
  20723700.0234   -4274009.97247  -3266510.82447                  20723706.8674
        26.0004         29.7504
 00  5  1 20 28  0.0000000  0  6G 5G 6G17G10G24G30
  21609789.7274    5668354.90647   4408724.56146                  21609799.1764
        26.0004         24.2504
  21678814.4694   -9772483.91448  -7550305.73647                  21678821.9734
        28.7504         25.7504
  23072766.4384  -11865192.95546  -9097591.77446                  23072778.4064
        18.0004         17.0004
  21011798.0864   -3631693.46648  -2780469.46047                  21011804.9454
        31.7504         28.5004
  22843218.5004    8444115.84847   6533008.06146                  22843226.7894
        21.2504         17.0004
  20724453.3914   -4270051.96147  -3263426.68147                  20724460.1764
        25.0004         29.7504
 00  5  1 20 28 15.0000000  0  6G 5G 6G17G10G24G30
  21616741.6024    5704886.89047   4437190.96146                  21616750.9924
        25.7504         24.2504
  21672558.8364   -9805357.56848  -7575921.53747                  21672566.3984
        29.2504         25.7504
  23065677.8524  -11902443.45246  -9126618.02146                  23065689.8794
        18.0004         17.0004
  21013216.1724   -3624241.21348  -2774662.49847                  21013223.0314
        31.7504         28.2504
  22849786.4224    8478629.65047   6559901.90246                  22849793.7384
        21.2504         16.2504
  20725234.2114   -4265948.13147  -3260228.91247                  20725241.1644
        23.2504         29.5004
 00  5  1 20 28 30.0000000  0  6G 5G 6G17G10G24G30
  21623710.2034    5741507.18647   4465726.17346                  21623719.6764
        26.2504         24.2504
  21666308.6564   -9838200.24448  -7601513.20147                  21666315.9844
        28.7504         25.7504
  23058597.7814  -11939649.27846  -9155609.46846                  23058609.5044
        18.5004         17.0004
  21014662.5944   -3616641.18548  -2768740.38547                  21014669.4534
        32.0004         28.5004
  22856353.8594    8513140.31047   6586793.29846                  22856361.7384
        21.5004         16.7504
  20726041.4924   -4261706.44847  -3256923.73347                  20726048.5164
        26.5004         29.7504
 00  5  1 20 28 45.0000000  0  6G 5G 6G17G10G24G30
  21630695.7894    5778215.50347   4494329.97746                  21630705.3674
        25.7504         24.2504
  21660065.5394   -9871009.36848  -7627078.71847                  21660072.7734
        29.0004         26.0004
  23051525.9454  -11976812.53446  -9184567.75346                  23051537.7034
        18.5004         17.2504
  21016137.6414   -3608889.54348  -2762700.13547                  21016144.4384
        31.7504         28.2504
  22862920.2734    8547647.06147   6613681.65946                  22862927.4614
        21.5004         16.2504
  20726875.6334   -4257323.79347  -3253508.69647                  20726882.4414
        22.7504         29.7504
 00  5  1 20 29  0.0000000  0  6G 5G 6G17G10G24G30
  21637696.9694    5815007.28347   4522998.81246                  21637706.5824
        26.0004         24.2504
  21653828.5944   -9903784.69748  -7652617.90547                  21653835.8984
        28.7504         25.7504
  23044462.3594  -12013932.00646  -9213491.90446                  23044474.4924
        18.5004         17.2504
  21017641.7584   -3600985.57548  -2756541.18647                  21017648.5314
        32.2504         28.5004
  22869485.6564    8582148.98147   6640566.23046                  22869493.3484
        21.7504         16.5004
  20727737.0554   -4252796.26547  -3249980.77547                  20727743.7704
        21.0004         29.7504
 00  5  1 20 29 15.0000000  0  6G 5G 6G17G10G24G30
  21644715.8914    5851891.13547   4551739.39146                  21644725.6804
        25.7504         24.5004
  21647600.1174   -9936514.91548  -7678121.93347                  21647607.3634
        29.0004         25.7504
  23037409.6174  -12050993.58146  -9242370.93446                  23037421.6564
        18.5004         17.5004
  21019176.4614   -3592919.28048  -2750255.75047                  21019183.1524
        31.7504         28.5004
  22876052.8754    8616658.99147   6667457.12946                  22876060.4024
        21.7504         16.5004
  20728628.0944   -4248113.89947  -3246332.20147                  20728634.7734
        24.7504         29.5004
 00  5  1 20 29 30.0000000  0  6G 5G 6G17G10G24G30
  21651752.0394    5888866.72747   4580551.45546                  21651761.8754
        25.7504         24.2504
  21641379.8284   -9969204.56448  -7703594.35547                  21641386.9224
        29.0004         25.7504
  23030368.0164  -12087997.32046  -9271204.91646                  23030380.4064
        19.2504         17.2504
  21020741.4384   -3584695.28848  -2743847.43147                  21020748.3444
        32.0004         28.2504
  22882620.2274    8651172.35447   6694350.62346                  22882627.9884
        21.5004         16.7504
  20729548.2894   -4243278.24647  -3242564.18447                  20729555.1844
        22.7504         29.5004
 00  5  1 20 29 45.0000000  0  6G 5G 6G17G10G24G30
  21658807.7034    5925943.35047   4609442.24846                  21658817.3054
        26.0004         24.5004
  21635168.3054  -10001845.13748  -7729028.53447                  21635175.4804
        29.0004         25.7504
  23023339.1884  -12124932.33846  -9299985.34146                  23023351.0744
        18.5004         17.2504
  21022337.7424   -3576307.43248  -2737311.43247                  21022344.5864
        32.0004         28.2504
  22889190.3754    8685697.87747   6721253.60946                  22889197.9024
        21.5004         16.5004
  20730499.2894   -4238281.14347  -3238670.35947                  20730506.1484
        23.0004         29.5004
 00  5  1 20 30  0.0000000  0  6G 5G 6G17G10G24G30
  21665881.5474    5963117.45647   4638408.99546                  21665891.0904
        25.5004         24.2504
  21628965.6884  -10034439.68248  -7754426.84847                  21628972.8754
        29.2504         25.7504
  23016322.6804  -12161806.45946  -9328718.32446                  23016334.5904
        18.5004         17.2504
  21023963.5004   -3567763.49048  -2730653.80847                  21023970.2974
        32.2504         28.2504
  22895762.4064    8720233.56047   6748164.50746                  22895769.8874
        20.7504         16.2504
  20731479.3444   -4233131.14147  -3234657.39347                  20731486.2624
        24.2504         29.5004
 00  5  1 20 30 15.0000000  0  6G 5G 6G17G10G24G30
  21672975.1484    6000393.30347   4667455.02746                  21672984.6684
        26.0004         24.2504
  21622772.8594  -10066983.55748  -7779785.68147                  21622780.0704
        29.0004         25.7504
  23009317.4384  -12198618.29146  -9357402.75346                  23009329.5824
        19.2504         18.0004
  21025619.8054   -3559059.32848  -2723871.33547                  21025626.5204
        31.7504         28.2504
  22902337.4694    8754785.75747   6775088.26646                  22902344.9144
        21.0004         16.2504
  20732489.3054   -4227823.82047  -3230521.84247                  20732496.1134
        23.5004         29.5004
 00  5  1 20 30 30.0000000  0  6G 5G 6G17G10G24G30
  21680086.2974    6037762.47547   4696573.77946                  21680095.9224
        25.7504         24.0004
  21616588.5234  -10099482.15748  -7805109.23347                  21616595.8054
        29.5004         25.7504
  23002323.3204  -12235371.68346  -9386041.64546                  23002335.7344
        19.2504         18.0004
  21027305.5474   -3550201.03448  -2716968.76247                  21027312.2384
        31.7504         28.2504
  22908915.4844    8789353.45147   6802024.10546                  22908923.5634
        20.7504         16.2504
  20733527.8134   -4222365.61947  -3226268.72047                  20733534.6564
        24.0004         29.5004
 00  5  1 20 30 45.0000000  0  6G 5G 6G17G10G24G30
  21687214.9774    6075223.77547   4725764.32246                  21687224.4964
        25.5004         24.2504
  21610412.0634  -10131939.06648  -7830400.29847                  21610419.3094
        29.7504         26.0004
  22995340.2114  -12272066.58746  -9414634.97846                  22995351.9924
        18.7504         17.5004
  21029020.6024   -3541188.48148  -2709945.99047                  21029027.5084
        31.5004         28.0004
  22915496.9304    8823940.19547   6828974.79146                  22915504.7274
        20.5004         16.0004
  20734594.9304   -4216758.28447  -3221899.39047                  20734601.9064
        24.7504         29.7504
 00  5  1 20 31  0.0000000  0  6G 5G 6G17G10G24G30
  21694361.4774    6112779.03847   4755028.07446                  21694371.1374
        25.5004         24.0004
  21604243.5164  -10164354.76348  -7855659.25347                  21604250.7734
        29.7504         26.0004
  22988369.1254  -12308700.63746  -9443180.88946                  22988380.7194
        19.5004         17.5004
  21030765.1334   -3532020.89148  -2702802.40947                  21030772.0394
        32.0004         28.2504
  22922082.2734    8858547.06147   6855941.15246                  22922090.1054
        20.5004         16.0004
  20735691.2034   -4210998.54247  -3217411.30247                  20735698.0744
        23.2504         29.5004
 00  5  1 20 31 15.0000000  0  6G 5G 6G17G10G24G30
  21701526.7734    6150431.41847   4784367.50746                  21701536.3404
        25.2504         23.7504
  21598083.1644  -10196727.92248  -7880885.05647                  21598090.2464
        30.0004         26.2504
  22981409.6094  -12345271.46446  -9471677.53346                  22981420.8054
        19.2504         18.2504
  21032539.1724   -3522697.10448  -2695537.11047                  21032545.8754
        31.7504         28.2504
  22928672.6564    8893177.57447   6882925.93246                  22928680.6174
        20.2504         16.0004
  20736815.6334   -4205088.93047  -3212806.43547                  20736822.5394
        24.2504         29.5004
 00  5  1 20 31 30.0000000  0  6G 5G 6G17G10G24G30
  21708710.3444    6188181.31847   4813782.92846                  21708720.1914
        25.2504         24.0004
  21591929.9304  -10229063.39948  -7906081.50147                  21591936.9774
        30.0004         26.2504
  22974461.8524  -12381782.58146  -9500127.64846                  22974473.4804
        19.0004         18.0004
  21034342.4844   -3513221.33148  -2688153.38747                  21034349.4264
        31.7504         28.2504
  22935266.0474    8927826.24246   6909924.86946                  22935274.2544
        19.7504         15.7504
  20737968.0234   -4199032.64047  -3208087.27047                  20737974.8954
        24.7504         29.5004
 00  5  1 20 31 45.0000000  0  6G 5G 6G17G10G24G30
  21715912.2194    6226027.41247   4843273.30146                  21715922.2424
        25.2504         24.0004
  21585783.6414  -10261362.83848  -7931249.85647                  21585790.5594
        30.5004         26.5004
  22967524.7894  -12418235.69046  -9528532.56946                  22967536.7344
        19.2504         18.0004
  21036174.3984   -3503594.96948  -2680652.32047                  21036181.1724
        32.0004         28.2504
  22941862.4454    8962491.22246   6936936.50746                  22941870.6764
        19.7504         15.5004
  20739148.7034   -4192828.06647  -3203252.56247                  20739155.5124
        26.0004         29.5004
 00  5  1 20 32  0.0000000  0  6G 5G 6G17G10G24G30
  21723132.3444    6263968.48747   4872837.69146                  21723142.1454
        25.2504         24.0004
  21579643.9924  -10293626.63648  -7956390.44847                  21579650.9694
        30.5004         26.5004
  22960598.4144  -12454634.80946  -9556895.40646                  22960610.2544
        18.7504         18.0004
  21038034.2664   -3493820.48648  -2673035.82947                  21038041.1254
        31.5004         28.0004
  22948462.1414    8997172.62347   6963960.94546                  22948469.9614
        20.0004         16.0004
  20740357.4534   -4186477.16248  -3198303.82947                  20740364.3364
        28.0004         29.2504
 00  5  1 20 32 15.0000000  0  6G 5G 6G17G10G24G30
  21730369.5784    6302000.34747   4902472.81746                  21730379.5664
        25.0004         24.0004
  21573511.1094  -10325855.82348  -7981504.06347                  21573518.0984
        30.5004         26.5004
  22953681.7344  -12490981.42346  -9585217.34346                  22953693.3284
        19.5004         18.5004
  21039921.8364   -3483900.17048  -2665305.70847                  21039928.7544
        31.5004         28.0004
  22955063.9304    9031865.26347   6990994.13946                  22955071.9734
        20.0004         15.5004
  20741594.0634   -4179979.12748  -3193240.44847                  20741600.9694
        29.5004         29.5004
 00  5  1 20 32 30.0000000  0  6G 5G 6G17G10G24G30
  21737622.2114    6340114.04347   4932171.71246                  21737632.1994
        25.0004         23.5004
  21567383.2194  -10358056.32948  -8006595.33647                  21567390.2424
        30.5004         26.5004
  22946774.7034  -12527276.79746  -9613499.35746                  22946786.2734
        18.7504         18.2504
  21041836.9454   -3473836.99948  -2657464.27247                  21041843.8164
        31.7504         28.0004
  22961666.4534    9066560.92746   7018029.69346                  22961674.3914
        19.2504         15.5004
  20742857.7894   -4173337.40248  -3188065.10247                  20742864.9184
        28.2504         29.2504
 00  5  1 20 32 45.0000000  0  6G 5G 6G17G10G24G30
  21744891.4534    6378313.06247   4961937.09346                  21744901.4414
        25.0004         23.5004
  21561261.9304  -10390224.56948  -8031661.46247                  21561269.0354
        30.5004         26.7504
  22939878.0864  -12563519.11746  -9641740.01846                  22939889.7154
        19.2504         18.0004
  21043780.0164   -3463626.25748  -2649507.84147                  21043787.0274
        31.2504         28.2504
  22968269.4774    9101260.82746   7045068.54446                  22968277.6024
        19.0004         15.7504
  20744149.9844   -4166546.83348  -3182773.77247                  20744156.9614
        30.0004         29.5004
 00  5  1 20 33  0.0000000  0  6G 5G 6G17G10G24G30
  21752177.5234    6416599.91447   4991770.91246                  21752187.4414
        24.7504         23.5004
  21555146.7734  -10422359.81048  -8056701.87947                  21555153.8094
        30.5004         26.7504
  22932991.5474  -12599708.28746  -9669939.27146                  22933002.8134
        18.7504         18.2504
  21045751.2114   -3453268.15948  -2641436.59447                  21045758.1294
        31.2504         28.0004
  22974873.0474    9135960.90246   7072107.53446                  22974881.5704
        19.2504         15.5004
  20745471.0004   -4159604.50748  -3177364.19147                  20745478.0594
        29.5004         29.2504
 00  5  1 20 33 15.0000000  0  6G 5G 6G17G10G24G30
  21759478.0704    6454965.19947   5021665.85046                  21759488.1174
        25.0004         23.2504
  21549036.1254  -10454470.56348  -8081723.21447                  21549043.1374
        30.2504         26.5004
  22926113.3524  -12635852.55946  -9698103.53646                  22926125.2974
        19.0004         18.0004
  21047748.5084   -3442772.21348  -2633257.93447                  21047755.3164
        31.5004         28.0004
  22981473.3914    9170648.61546   7099136.89546                  22981481.7734
        19.2504         15.2504
  20746818.7664   -4152521.86248  -3171845.27247                  20746825.7074
        30.5004         29.2504
 00  5  1 20 33 30.0000000  0  6G 5G 6G17G10G24G30
  21766796.0004    6493420.17647   5051630.67246                  21766805.8364
        25.0004         23.5004
  21542932.8594  -10486544.46548  -8106715.83447                  21542939.7034
        30.5004         27.0004
  22919246.0634  -12671940.86246  -9726224.19446                  22919258.1604
        19.2504         18.0004
  21049773.6804   -3432128.71448  -2624964.29447                  21049780.6094
        31.2504         28.0004
  22988074.5164    9205336.16146   7126166.11746                  22988083.3324
        19.2504         15.7504
  20748195.4694   -4145287.99448  -3166208.51647                  20748202.3754
        28.7504         29.2504
 00  5  1 20 33 45.0000000  0  6G 5G 6G17G10G24G30
  21774130.1414    6531961.66447   5081662.90946                  21774140.1174
        24.7504         23.2504
  21536835.7734  -10518583.55348  -8131681.32547                  21536842.6914
        30.7504         27.0004
  22912388.5314  -12707976.77746  -9754304.02446                  22912400.5594
        19.7504         18.5004
  21051826.7034   -3421339.54148  -2616557.14447                  21051833.4184
        30.7504         28.0004
  22994674.7664    9240021.12546   7153193.33546                  22994683.5234
        19.2504         15.2504
  20749600.3054   -4137905.62748  -3160456.05047                  20749607.2114
        30.5004         29.0004
